Wetterdaten: Dienstag, 21.02.2023
Datum Zeit Temp. 2m Temp +5 cm Feuchte A. Luftdruck Regen Wind Richtung Richtung Sonnenschein UV Solar Taupunkt Windchill Windben
21.02.2023 00:00 3,4 C 2,2 C 91 % 1023,8 hPa 0,0 l/m 6,4 km/h (2 Bft) SW 225 0 min 0,0 UV-I 0 W/m 2,1 C 3,4 C 11,3 km/h (2 Bft)
21.02.2023 00:01 3,4 C 2,2 C 91 % 1023,8 hPa 0,0 l/m 6,4 km/h (2 Bft) SW 225 0 min 0,0 UV-I 0 W/m 2,1 C 3,4 C 11,3 km/h (2 Bft)
21.02.2023 00:02 3,4 C 2,2 C 92 % 1023,7 hPa 0,0 l/m 4,8 km/h (1 Bft) SW 225 0 min 0,0 UV-I 0 W/m 2,2 C 3,4 C 6,4 km/h (2 Bft)
21.02.2023 00:03 3,4 C 2,2 C 91 % 1023,7 hPa 0,0 l/m 8,0 km/h (2 Bft) W-SW 247 0 min 0,0 UV-I 0 W/m 2,1 C 1,9 C 12,9 km/h (3 Bft)
21.02.2023 00:04 3,4 C 2,2 C 92 % 1023,7 hPa 0,0 l/m 6,4 km/h (2 Bft) SW 225 0 min 0,0 UV-I 0 W/m 2,2 C 3,4 C 8,0 km/h (2 Bft)
21.02.2023 00:05 3,4 C 2,2 C 92 % 1023,8 hPa 0,0 l/m 9,7 km/h (2 Bft) SW 225 0 min 0,0 UV-I 0 W/m 2,2 C 0,5 C 16,1 km/h (3 Bft)
21.02.2023 00:06 3,5 C 2,2 C 92 % 1023,7 hPa 0,0 l/m 4,8 km/h (1 Bft) SW 225 0 min 0,0 UV-I 0 W/m 2,3 C 3,5 C 12,9 km/h (3 Bft)
21.02.2023 00:07 3,5 C 2,2 C 91 % 1023,7 hPa 0,0 l/m 6,4 km/h (2 Bft) SW 225 0 min 0,0 UV-I 0 W/m 2,2 C 3,5 C 11,3 km/h (2 Bft)
21.02.2023 00:08 3,5 C 2,2 C 92 % 1023,7 hPa 0,0 l/m 8,0 km/h (2 Bft) SW 225 0 min 0,0 UV-I 0 W/m 2,3 C 2,0 C 12,9 km/h (3 Bft)
21.02.2023 00:09 3,5 C 2,2 C 92 % 1023,6 hPa 0,0 l/m 6,4 km/h (2 Bft) SW 225 0 min 0,0 UV-I 0 W/m 2,3 C 3,5 C 12,9 km/h (3 Bft)
21.02.2023 00:10 3,6 C 2,2 C 92 % 1023,7 hPa 0,0 l/m 4,8 km/h (1 Bft) SW 225 0 min 0,0 UV-I 0 W/m 2,4 C 3,6 C 8,0 km/h (2 Bft)
21.02.2023 00:11 3,5 C 2,2 C 91 % 1023,7 hPa 0,0 l/m 3,2 km/h (1 Bft) SW 225 0 min 0,0 UV-I 0 W/m 2,2 C 3,5 C 8,0 km/h (2 Bft)
21.02.2023 00:12 3,6 C 2,2 C 92 % 1023,6 hPa 0,0 l/m 8,0 km/h (2 Bft) SW 225 0 min 0,0 UV-I 0 W/m 2,4 C 2,1 C 14,5 km/h (3 Bft)
21.02.2023 00:13 3,6 C 2,2 C 92 % 1023,7 hPa 0,0 l/m 6,4 km/h (2 Bft) SW 225 0 min 0,0 UV-I 0 W/m 2,4 C 3,6 C 9,7 km/h (2 Bft)
21.02.2023 00:14 3,6 C 2,2 C 92 % 1023,7 hPa 0,0 l/m 4,8 km/h (1 Bft) SW 225 0 min 0,0 UV-I 0 W/m 2,4 C 3,6 C 8,0 km/h (2 Bft)
21.02.2023 00:15 3,6 C 2,2 C 91 % 1023,8 hPa 0,0 l/m 4,8 km/h (1 Bft) SW 225 0 min 0,0 UV-I 0 W/m 2,3 C 3,6 C 8,0 km/h (2 Bft)
21.02.2023 00:16 3,5 C 2,2 C 91 % 1023,7 hPa 0,0 l/m 4,8 km/h (1 Bft) SW 225 0 min 0,0 UV-I 0 W/m 2,2 C 3,5 C 8,0 km/h (2 Bft)
21.02.2023 00:17 3,5 C 2,2 C 91 % 1023,6 hPa 0,0 l/m 4,8 km/h (1 Bft) SW 225 0 min 0,0 UV-I 0 W/m 2,2 C 3,5 C 8,0 km/h (2 Bft)
21.02.2023 00:18 3,5 C 2,2 C 92 % 1023,8 hPa 0,0 l/m 6,4 km/h (2 Bft) SW 225 0 min 0,0 UV-I 0 W/m 2,3 C 3,5 C 9,7 km/h (2 Bft)
21.02.2023 00:19 3,5 C 2,2 C 92 % 1023,8 hPa 0,0 l/m 6,4 km/h (2 Bft) SW 225 0 min 0,0 UV-I 0 W/m 2,3 C 3,5 C 9,7 km/h (2 Bft)
21.02.2023 00:20 3,5 C 2,2 C 92 % 1023,7 hPa 0,0 l/m 6,4 km/h (2 Bft) W-SW 247 0 min 0,0 UV-I 0 W/m 2,3 C 3,5 C 9,7 km/h (2 Bft)
21.02.2023 00:21 3,5 C 2,2 C 92 % 1023,7 hPa 0,0 l/m 6,4 km/h (2 Bft) SW 225 0 min 0,0 UV-I 0 W/m 2,3 C 3,5 C 8,0 km/h (2 Bft)
21.02.2023 00:22 3,5 C 2,2 C 92 % 1023,7 hPa 0,0 l/m 6,4 km/h (2 Bft) SW 225 0 min 0,0 UV-I 0 W/m 2,3 C 3,5 C 8,0 km/h (2 Bft)
21.02.2023 00:23 3,4 C 2,2 C 92 % 1023,6 hPa 0,0 l/m 6,4 km/h (2 Bft) SW 225 0 min 0,0 UV-I 0 W/m 2,2 C 3,4 C 9,7 km/h (2 Bft)
21.02.2023 00:24 3,4 C 2,2 C 92 % 1023,6 hPa 0,0 l/m 6,4 km/h (2 Bft) S-SW 202 0 min 0,0 UV-I 0 W/m 2,2 C 3,4 C 11,3 km/h (2 Bft)
21.02.2023 00:25 3,4 C 2,2 C 92 % 1023,6 hPa 0,0 l/m 4,8 km/h (1 Bft) SW 225 0 min 0,0 UV-I 0 W/m 2,2 C 3,4 C 8,0 km/h (2 Bft)
21.02.2023 00:26 3,4 C 2,2 C 92 % 1023,5 hPa 0,0 l/m 4,8 km/h (1 Bft) SW 225 0 min 0,0 UV-I 0 W/m 2,2 C 3,4 C 8,0 km/h (2 Bft)
21.02.2023 00:27 3,4 C 2,2 C 92 % 1023,6 hPa 0,0 l/m 3,2 km/h (1 Bft) W-SW 247 0 min 0,0 UV-I 0 W/m 2,2 C 3,4 C 8,0 km/h (2 Bft)
21.02.2023 00:28 3,4 C 2,2 C 92 % 1023,7 hPa 0,0 l/m 4,8 km/h (1 Bft) SW 225 0 min 0,0 UV-I 0 W/m 2,2 C 3,4 C 8,0 km/h (2 Bft)
21.02.2023 00:29 3,4 C 2,2 C 92 % 1023,6 hPa 0,0 l/m 4,8 km/h (1 Bft) SW 225 0 min 0,0 UV-I 0 W/m 2,2 C 3,4 C 12,9 km/h (3 Bft)
21.02.2023 00:30 3,5 C 2,2 C 92 % 1023,6 hPa 0,0 l/m 6,4 km/h (2 Bft) SW 225 0 min 0,0 UV-I 0 W/m 2,3 C 3,5 C 12,9 km/h (3 Bft)
21.02.2023 00:31 3,5 C 2,2 C 92 % 1023,7 hPa 0,0 l/m 6,4 km/h (2 Bft) SW 225 0 min 0,0 UV-I 0 W/m 2,3 C 3,5 C 9,7 km/h (2 Bft)
21.02.2023 00:32 3,6 C 2,2 C 92 % 1023,7 hPa 0,0 l/m 4,8 km/h (1 Bft) SW 225 0 min 0,0 UV-I 0 W/m 2,4 C 3,6 C 8,0 km/h (2 Bft)
21.02.2023 00:33 3,6 C 2,2 C 92 % 1023,6 hPa 0,0 l/m 6,4 km/h (2 Bft) SW 225 0 min 0,0 UV-I 0 W/m 2,4 C 3,6 C 9,7 km/h (2 Bft)
21.02.2023 00:34 3,5 C 2,2 C 92 % 1023,7 hPa 0,0 l/m 4,8 km/h (1 Bft) SW 225 0 min 0,0 UV-I 0 W/m 2,3 C 3,5 C 9,7 km/h (2 Bft)
21.02.2023 00:35 3,5 C 2,2 C 92 % 1023,7 hPa 0,0 l/m 4,8 km/h (1 Bft) SW 225 0 min 0,0 UV-I 0 W/m 2,3 C 3,5 C 8,0 km/h (2 Bft)
21.02.2023 00:36 3,5 C 2,2 C 92 % 1023,6 hPa 0,0 l/m 3,2 km/h (1 Bft) SW 225 0 min 0,0 UV-I 0 W/m 2,3 C 3,5 C 6,4 km/h (2 Bft)
21.02.2023 00:37 3,5 C 2,2 C 92 % 1023,6 hPa 0,0 l/m 3,2 km/h (1 Bft) W-SW 247 0 min 0,0 UV-I 0 W/m 2,3 C 3,5 C 8,0 km/h (2 Bft)
21.02.2023 00:38 3,5 C 2,2 C 92 % 1023,6 hPa 0,0 l/m 6,4 km/h (2 Bft) W-SW 247 0 min 0,0 UV-I 0 W/m 2,3 C 3,5 C 12,9 km/h (3 Bft)
21.02.2023 00:39 3,5 C 2,2 C 92 % 1023,6 hPa 0,0 l/m 3,2 km/h (1 Bft) W 270 0 min 0,0 UV-I 0 W/m 2,3 C 3,5 C 6,4 km/h (2 Bft)
21.02.2023 00:40 3,5 C 2,2 C 92 % 1023,5 hPa 0,0 l/m 4,8 km/h (1 Bft) W-SW 247 0 min 0,0 UV-I 0 W/m 2,3 C 3,5 C 8,0 km/h (2 Bft)
21.02.2023 00:41 3,5 C 2,2 C 92 % 1023,6 hPa 0,0 l/m 4,8 km/h (1 Bft) SW 225 0 min 0,0 UV-I 0 W/m 2,3 C 3,5 C 9,7 km/h (2 Bft)
21.02.2023 00:42 3,4 C 2,2 C 92 % 1023,5 hPa 0,0 l/m 3,2 km/h (1 Bft) SW 225 0 min 0,0 UV-I 0 W/m 2,2 C 3,4 C 6,4 km/h (2 Bft)
21.02.2023 00:43 3,4 C 2,2 C 92 % 1023,5 hPa 0,0 l/m 3,2 km/h (1 Bft) SW 225 0 min 0,0 UV-I 0 W/m 2,2 C 3,4 C 4,8 km/h (1 Bft)
21.02.2023 00:44 3,4 C 2,2 C 92 % 1023,5 hPa 0,0 l/m 6,4 km/h (2 Bft) SW 225 0 min 0,0 UV-I 0 W/m 2,2 C 3,4 C 8,0 km/h (2 Bft)
21.02.2023 00:45 3,4 C 2,2 C 92 % 1023,6 hPa 0,0 l/m 4,8 km/h (1 Bft) SW 225 0 min 0,0 UV-I 0 W/m 2,2 C 3,4 C 8,0 km/h (2 Bft)
21.02.2023 00:46 3,3 C 2,2 C 92 % 1023,5 hPa 0,0 l/m 4,8 km/h (1 Bft) SW 225 0 min 0,0 UV-I 0 W/m 2,1 C 3,3 C 11,3 km/h (2 Bft)
21.02.2023 00:47 3,3 C 2,2 C 92 % 1023,5 hPa 0,0 l/m 3,2 km/h (1 Bft) SW 225 0 min 0,0 UV-I 0 W/m 2,1 C 3,3 C 6,4 km/h (2 Bft)
21.02.2023 00:48 3,3 C 2,2 C 92 % 1023,5 hPa 0,0 l/m 6,4 km/h (2 Bft) SW 225 0 min 0,0 UV-I 0 W/m 2,1 C 3,3 C 8,0 km/h (2 Bft)
21.02.2023 00:49 3,4 C 2,2 C 92 % 1023,5 hPa 0,0 l/m 3,2 km/h (1 Bft) SW 225 0 min 0,0 UV-I 0 W/m 2,2 C 3,4 C 6,4 km/h (2 Bft)
21.02.2023 00:50 3,4 C 2,2 C 92 % 1023,5 hPa 0,0 l/m 4,8 km/h (1 Bft) SW 225 0 min 0,0 UV-I 0 W/m 2,2 C 3,4 C 8,0 km/h (2 Bft)
21.02.2023 00:51 3,4 C 2,2 C 92 % 1023,5 hPa 0,0 l/m 4,8 km/h (1 Bft) SW 225 0 min 0,0 UV-I 0 W/m 2,2 C 3,4 C 6,4 km/h (2 Bft)
21.02.2023 00:52 3,3 C 2,2 C 92 % 1023,6 hPa 0,0 l/m 4,8 km/h (1 Bft) SW 225 0 min 0,0 UV-I 0 W/m 2,1 C 3,3 C 11,3 km/h (2 Bft)
21.02.2023 00:53 3,3 C 2,2 C 92 % 1023,5 hPa 0,0 l/m 6,4 km/h (2 Bft) S-SW 202 0 min 0,0 UV-I 0 W/m 2,1 C 3,3 C 11,3 km/h (2 Bft)
21.02.2023 00:54 3,3 C 1,7 C 92 % 1023,6 hPa 0,0 l/m 6,4 km/h (2 Bft) W-SW 247 0 min 0,0 UV-I 0 W/m 2,1 C 3,3 C 14,5 km/h (3 Bft)
21.02.2023 00:55 3,3 C 2,2 C 92 % 1023,6 hPa 0,0 l/m 4,8 km/h (1 Bft) SW 225 0 min 0,0 UV-I 0 W/m 2,1 C 3,3 C 9,7 km/h (2 Bft)
21.02.2023 00:56 3,3 C 1,7 C 92 % 1023,6 hPa 0,0 l/m 4,8 km/h (1 Bft) SW 225 0 min 0,0 UV-I 0 W/m 2,1 C 3,3 C 9,7 km/h (2 Bft)
21.02.2023 00:57 3,3 C 1,7 C 92 % 1023,6 hPa 0,0 l/m 6,4 km/h (2 Bft) SW 225 0 min 0,0 UV-I 0 W/m 2,1 C 3,3 C 11,3 km/h (2 Bft)
21.02.2023 00:58 3,2 C 1,7 C 92 % 1023,7 hPa 0,0 l/m 6,4 km/h (2 Bft) SW 225 0 min 0,0 UV-I 0 W/m 2,0 C 3,2 C 12,9 km/h (3 Bft)
21.02.2023 00:59 3,3 C 1,7 C 92 % 1023,5 hPa 0,0 l/m 6,4 km/h (2 Bft) SW 225 0 min 0,0 UV-I 0 W/m 2,1 C 3,3 C 11,3 km/h (2 Bft)
21.02.2023 01:00 3,2 C 1,7 C 92 % 1023,6 hPa 0,0 l/m 4,8 km/h (1 Bft) SW 225 0 min 0,0 UV-I 0 W/m 2,0 C 3,2 C 8,0 km/h (2 Bft)
21.02.2023 01:01 3,2 C 1,7 C 92 % 1023,6 hPa 0,0 l/m 4,8 km/h (1 Bft) SW 225 0 min 0,0 UV-I 0 W/m 2,0 C 3,2 C 6,4 km/h (2 Bft)
21.02.2023 01:02 3,2 C 1,7 C 92 % 1023,6 hPa 0,0 l/m 3,2 km/h (1 Bft) SW 225 0 min 0,0 UV-I 0 W/m 2,0 C 3,2 C 6,4 km/h (2 Bft)
21.02.2023 01:03 3,2 C 1,7 C 92 % 1023,6 hPa 0,0 l/m 4,8 km/h (1 Bft) SW 225 0 min 0,0 UV-I 0 W/m 2,0 C 3,2 C 8,0 km/h (2 Bft)
21.02.2023 01:04 3,3 C 1,7 C 92 % 1023,7 hPa 0,0 l/m 4,8 km/h (1 Bft) SW 225 0 min 0,0 UV-I 0 W/m 2,1 C 3,3 C 9,7 km/h (2 Bft)
21.02.2023 01:05 3,2 C 2,2 C 92 % 1023,6 hPa 0,0 l/m 4,8 km/h (1 Bft) SW 225 0 min 0,0 UV-I 0 W/m 2,0 C 3,2 C 9,7 km/h (2 Bft)
21.02.2023 01:06 3,3 C 2,2 C 92 % 1023,7 hPa 0,0 l/m 6,4 km/h (2 Bft) S-SW 202 0 min 0,0 UV-I 0 W/m 2,1 C 3,3 C 9,7 km/h (2 Bft)
21.02.2023 01:07 3,3 C 2,2 C 92 % 1023,6 hPa 0,0 l/m 6,4 km/h (2 Bft) S-SW 202 0 min 0,0 UV-I 0 W/m 2,1 C 3,3 C 12,9 km/h (3 Bft)
21.02.2023 01:08 3,3 C 2,2 C 92 % 1023,6 hPa 0,0 l/m 4,8 km/h (1 Bft) SW 225 0 min 0,0 UV-I 0 W/m 2,1 C 3,3 C 6,4 km/h (2 Bft)
21.02.2023 01:09 3,3 C 2,2 C 92 % 1023,6 hPa 0,0 l/m 4,8 km/h (1 Bft) SW 225 0 min 0,0 UV-I 0 W/m 2,1 C 3,3 C 8,0 km/h (2 Bft)
21.02.2023 01:10 3,2 C 2,2 C 92 % 1023,6 hPa 0,0 l/m 6,4 km/h (2 Bft) SW 225 0 min 0,0 UV-I 0 W/m 2,0 C 3,2 C 9,7 km/h (2 Bft)
21.02.2023 01:11 3,1 C 1,7 C 92 % 1023,6 hPa 0,0 l/m 6,4 km/h (2 Bft) S-SW 202 0 min 0,0 UV-I 0 W/m 1,9 C 3,1 C 9,7 km/h (2 Bft)
21.02.2023 01:12 3,0 C 1,7 C 92 % 1023,5 hPa 0,0 l/m 6,4 km/h (2 Bft) S-SW 202 0 min 0,0 UV-I 0 W/m 1,8 C 3,0 C 9,7 km/h (2 Bft)
21.02.2023 01:13 2,9 C 1,7 C 92 % 1023,6 hPa 0,0 l/m 6,4 km/h (2 Bft) S-SW 202 0 min 0,0 UV-I 0 W/m 1,7 C 2,9 C 11,3 km/h (2 Bft)
21.02.2023 01:14 2,9 C 1,7 C 92 % 1023,5 hPa 0,0 l/m 4,8 km/h (1 Bft) SW 225 0 min 0,0 UV-I 0 W/m 1,7 C 2,9 C 6,4 km/h (2 Bft)
21.02.2023 01:15 2,9 C 1,7 C 92 % 1023,5 hPa 0,0 l/m 4,8 km/h (1 Bft) W-SW 247 0 min 0,0 UV-I 0 W/m 1,7 C 2,9 C 6,4 km/h (2 Bft)
21.02.2023 01:16 2,9 C 1,7 C 92 % 1023,6 hPa 0,0 l/m 3,2 km/h (1 Bft) W-SW 247 0 min 0,0 UV-I 0 W/m 1,7 C 2,9 C 4,8 km/h (1 Bft)
21.02.2023 01:17 2,9 C 1,7 C 92 % 1023,6 hPa 0,0 l/m 3,2 km/h (1 Bft) W-SW 247 0 min 0,0 UV-I 0 W/m 1,7 C 2,9 C 4,8 km/h (1 Bft)
21.02.2023 01:18 2,9 C 1,7 C 92 % 1023,6 hPa 0,0 l/m 4,8 km/h (1 Bft) SW 225 0 min 0,0 UV-I 0 W/m 1,7 C 2,9 C 8,0 km/h (2 Bft)
21.02.2023 01:19 3,0 C 1,7 C 92 % 1023,6 hPa 0,0 l/m 3,2 km/h (1 Bft) W-SW 247 0 min 0,0 UV-I 0 W/m 1,8 C 3,0 C 8,0 km/h (2 Bft)
21.02.2023 01:20 3,1 C 1,7 C 92 % 1023,6 hPa 0,0 l/m 3,2 km/h (1 Bft) W-SW 247 0 min 0,0 UV-I 0 W/m 1,9 C 3,1 C 6,4 km/h (2 Bft)
21.02.2023 01:21 3,1 C 1,7 C 92 % 1023,6 hPa 0,0 l/m 4,8 km/h (1 Bft) SW 225 0 min 0,0 UV-I 0 W/m 1,9 C 3,1 C 6,4 km/h (2 Bft)
21.02.2023 01:22 3,1 C 1,7 C 92 % 1023,6 hPa 0,0 l/m 4,8 km/h (1 Bft) W-SW 247 0 min 0,0 UV-I 0 W/m 1,9 C 3,1 C 8,0 km/h (2 Bft)
21.02.2023 01:23 3,1 C 1,7 C 92 % 1023,5 hPa 0,0 l/m 4,8 km/h (1 Bft) SW 225 0 min 0,0 UV-I 0 W/m 1,9 C 3,1 C 8,0 km/h (2 Bft)
21.02.2023 01:24 3,1 C 1,7 C 92 % 1023,5 hPa 0,0 l/m 3,2 km/h (1 Bft) SW 225 0 min 0,0 UV-I 0 W/m 1,9 C 3,1 C 6,4 km/h (2 Bft)
21.02.2023 01:25 3,1 C 1,7 C 92 % 1023,6 hPa 0,0 l/m 4,8 km/h (1 Bft) SW 225 0 min 0,0 UV-I 0 W/m 1,9 C 3,1 C 8,0 km/h (2 Bft)
21.02.2023 01:26 3,1 C 1,7 C 92 % 1023,5 hPa 0,0 l/m 4,8 km/h (1 Bft) SW 225 0 min 0,0 UV-I 0 W/m 1,9 C 3,1 C 8,0 km/h (2 Bft)
21.02.2023 01:27 3,1 C 1,7 C 92 % 1023,4 hPa 0,0 l/m 4,8 km/h (1 Bft) SW 225 0 min 0,0 UV-I 0 W/m 1,9 C 3,1 C 8,0 km/h (2 Bft)
21.02.2023 01:28 3,2 C 1,7 C 92 % 1023,5 hPa 0,0 l/m 4,8 km/h (1 Bft) SW 225 0 min 0,0 UV-I 0 W/m 2,0 C 3,2 C 6,4 km/h (2 Bft)
21.02.2023 01:29 3,2 C 1,7 C 92 % 1023,5 hPa 0,0 l/m 3,2 km/h (1 Bft) SW 225 0 min 0,0 UV-I 0 W/m 2,0 C 3,2 C 6,4 km/h (2 Bft)
21.02.2023 01:30 3,1 C 1,7 C 92 % 1023,5 hPa 0,0 l/m 1,6 km/h (1 Bft) W-SW 247 0 min 0,0 UV-I 0 W/m 1,9 C 3,1 C 3,2 km/h (1 Bft)
21.02.2023 01:31 3,1 C 1,7 C 92 % 1023,5 hPa 0,0 l/m 1,6 km/h (1 Bft) W-SW 247 0 min 0,0 UV-I 0 W/m 1,9 C 3,1 C 4,8 km/h (1 Bft)
21.02.2023 01:32 3,2 C 1,7 C 92 % 1023,5 hPa 0,0 l/m 4,8 km/h (1 Bft) W-SW 247 0 min 0,0 UV-I 0 W/m 2,0 C 3,2 C 11,3 km/h (2 Bft)
21.02.2023 01:33 3,1 C 1,7 C 92 % 1023,5 hPa 0,0 l/m 4,8 km/h (1 Bft) W-SW 247 0 min 0,0 UV-I 0 W/m 1,9 C 3,1 C 8,0 km/h (2 Bft)
21.02.2023 01:34 3,2 C 2,2 C 92 % 1023,5 hPa 0,0 l/m 6,4 km/h (2 Bft) SW 225 0 min 0,0 UV-I 0 W/m 2,0 C 3,2 C 9,7 km/h (2 Bft)
21.02.2023 01:35 3,2 C 2,2 C 92 % 1023,5 hPa 0,0 l/m 6,4 km/h (2 Bft) W-SW 247 0 min 0,0 UV-I 0 W/m 2,0 C 3,2 C 12,9 km/h (3 Bft)
21.02.2023 01:36 3,2 C 2,2 C 92 % 1023,5 hPa 0,0 l/m 6,4 km/h (2 Bft) SW 225 0 min 0,0 UV-I 0 W/m 2,0 C 3,2 C 9,7 km/h (2 Bft)
21.02.2023 01:37 3,2 C 2,2 C 92 % 1023,5 hPa 0,0 l/m 4,8 km/h (1 Bft) W-SW 247 0 min 0,0 UV-I 0 W/m 2,0 C 3,2 C 9,7 km/h (2 Bft)
21.02.2023 01:38 3,3 C 2,2 C 93 % 1023,6 hPa 0,0 l/m 6,4 km/h (2 Bft) SW 225 0 min 0,0 UV-I 0 W/m 2,3 C 3,3 C 16,1 km/h (3 Bft)
21.02.2023 01:39 3,3 C 2,2 C 93 % 1023,6 hPa 0,0 l/m 8,0 km/h (2 Bft) W-SW 247 0 min 0,0 UV-I 0 W/m 2,3 C 1,8 C 12,9 km/h (3 Bft)
21.02.2023 01:40 3,4 C 2,2 C 93 % 1023,6 hPa 0,0 l/m 4,8 km/h (1 Bft) W-SW 247 0 min 0,0 UV-I 0 W/m 2,4 C 3,4 C 9,7 km/h (2 Bft)
21.02.2023 01:41 3,4 C 2,2 C 93 % 1023,6 hPa 0,0 l/m 4,8 km/h (1 Bft) W-SW 247 0 min 0,0 UV-I 0 W/m 2,4 C 3,4 C 8,0 km/h (2 Bft)
21.02.2023 01:42 3,4 C 2,2 C 93 % 1023,6 hPa 0,0 l/m 4,8 km/h (1 Bft) SW 225 0 min 0,0 UV-I 0 W/m 2,4 C 3,4 C 8,0 km/h (2 Bft)
21.02.2023 01:43 3,4 C 2,2 C 92 % 1023,5 hPa 0,0 l/m 4,8 km/h (1 Bft) SW 225 0 min 0,0 UV-I 0 W/m 2,2 C 3,4 C 6,4 km/h (2 Bft)
21.02.2023 01:44 3,4 C 2,2 C 92 % 1023,5 hPa 0,0 l/m 3,2 km/h (1 Bft) SW 225 0 min 0,0 UV-I 0 W/m 2,2 C 3,4 C 6,4 km/h (2 Bft)
21.02.2023 01:45 3,4 C 2,2 C 93 % 1023,5 hPa 0,0 l/m 6,4 km/h (2 Bft) W-SW 247 0 min 0,0 UV-I 0 W/m 2,4 C 3,4 C 9,7 km/h (2 Bft)
21.02.2023 01:46 3,4 C 2,2 C 93 % 1023,5 hPa 0,0 l/m 4,8 km/h (1 Bft) SW 225 0 min 0,0 UV-I 0 W/m 2,4 C 3,4 C 6,4 km/h (2 Bft)
21.02.2023 01:47 3,4 C 2,2 C 92 % 1023,4 hPa 0,0 l/m 3,2 km/h (1 Bft) SW 225 0 min 0,0 UV-I 0 W/m 2,2 C 3,4 C 6,4 km/h (2 Bft)
21.02.2023 01:48 3,3 C 2,2 C 92 % 1023,4 hPa 0,0 l/m 3,2 km/h (1 Bft) SW 225 0 min 0,0 UV-I 0 W/m 2,1 C 3,3 C 6,4 km/h (2 Bft)
21.02.2023 01:49 3,3 C 2,2 C 92 % 1023,4 hPa 0,0 l/m 1,6 km/h (1 Bft) SW 225 0 min 0,0 UV-I 0 W/m 2,1 C 3,3 C 3,2 km/h (1 Bft)
21.02.2023 01:50 3,2 C 2,2 C 92 % 1023,4 hPa 0,0 l/m 4,8 km/h (1 Bft) SW 225 0 min 0,0 UV-I 0 W/m 2,0 C 3,2 C 9,7 km/h (2 Bft)
21.02.2023 01:51 3,1 C 1,7 C 92 % 1023,4 hPa 0,0 l/m 4,8 km/h (1 Bft) SW 225 0 min 0,0 UV-I 0 W/m 1,9 C 3,1 C 8,0 km/h (2 Bft)
21.02.2023 01:52 3,1 C 1,7 C 92 % 1023,4 hPa 0,0 l/m 4,8 km/h (1 Bft) W-SW 247 0 min 0,0 UV-I 0 W/m 1,9 C 3,1 C 11,3 km/h (2 Bft)
21.02.2023 01:53 3,1 C 1,7 C 92 % 1023,4 hPa 0,0 l/m 4,8 km/h (1 Bft) SW 225 0 min 0,0 UV-I 0 W/m 1,9 C 3,1 C 8,0 km/h (2 Bft)
21.02.2023 01:54 3,1 C 1,7 C 92 % 1023,4 hPa 0,0 l/m 4,8 km/h (1 Bft) SW 225 0 min 0,0 UV-I 0 W/m 1,9 C 3,1 C 6,4 km/h (2 Bft)
21.02.2023 01:55 3,0 C 1,7 C 92 % 1023,4 hPa 0,0 l/m 4,8 km/h (1 Bft) SW 225 0 min 0,0 UV-I 0 W/m 1,8 C 3,0 C 6,4 km/h (2 Bft)
21.02.2023 01:56 2,9 C 1,7 C 92 % 1023,3 hPa 0,0 l/m 3,2 km/h (1 Bft) SW 225 0 min 0,0 UV-I 0 W/m 1,7 C 2,9 C 4,8 km/h (1 Bft)
21.02.2023 01:57 2,9 C 1,7 C 92 % 1023,4 hPa 0,0 l/m 3,2 km/h (1 Bft) SW 225 0 min 0,0 UV-I 0 W/m 1,7 C 2,9 C 4,8 km/h (1 Bft)
21.02.2023 01:58 2,9 C 1,7 C 92 % 1023,5 hPa 0,0 l/m 3,2 km/h (1 Bft) SW 225 0 min 0,0 UV-I 0 W/m 1,7 C 2,9 C 6,4 km/h (2 Bft)
21.02.2023 01:59 2,8 C 1,7 C 92 % 1023,4 hPa 0,0 l/m 3,2 km/h (1 Bft) SW 225 0 min 0,0 UV-I 0 W/m 1,6 C 2,8 C 4,8 km/h (1 Bft)
21.02.2023 02:00 2,8 C 1,7 C 92 % 1023,4 hPa 0,0 l/m 3,2 km/h (1 Bft) SW 225 0 min 0,0 UV-I 0 W/m 1,6 C 2,8 C 6,4 km/h (2 Bft)
21.02.2023 02:01 2,8 C 1,7 C 92 % 1023,4 hPa 0,0 l/m 3,2 km/h (1 Bft) SW 225 0 min 0,0 UV-I 0 W/m 1,6 C 2,8 C 6,4 km/h (2 Bft)
21.02.2023 02:02 2,8 C 1,7 C 92 % 1023,4 hPa 0,0 l/m 3,2 km/h (1 Bft) W-SW 247 0 min 0,0 UV-I 0 W/m 1,6 C 2,8 C 8,0 km/h (2 Bft)
21.02.2023 02:03 2,8 C 1,7 C 92 % 1023,3 hPa 0,0 l/m 4,8 km/h (1 Bft) S-SW 202 0 min 0,0 UV-I 0 W/m 1,6 C 2,8 C 11,3 km/h (2 Bft)
21.02.2023 02:04 2,8 C 1,7 C 92 % 1023,2 hPa 0,0 l/m 4,8 km/h (1 Bft) SW 225 0 min 0,0 UV-I 0 W/m 1,6 C 2,8 C 6,4 km/h (2 Bft)
21.02.2023 02:05 2,8 C 1,7 C 92 % 1023,3 hPa 0,0 l/m 3,2 km/h (1 Bft) SW 225 0 min 0,0 UV-I 0 W/m 1,6 C 2,8 C 4,8 km/h (1 Bft)
21.02.2023 02:06 2,7 C 1,7 C 92 % 1023,3 hPa 0,0 l/m 3,2 km/h (1 Bft) SW 225 0 min 0,0 UV-I 0 W/m 1,5 C 2,7 C 6,4 km/h (2 Bft)
21.02.2023 02:07 2,6 C 1,1 C 92 % 1023,1 hPa 0,0 l/m 3,2 km/h (1 Bft) S-SW 202 0 min 0,0 UV-I 0 W/m 1,4 C 2,6 C 6,4 km/h (2 Bft)
21.02.2023 02:08 2,5 C 1,1 C 92 % 1023,1 hPa 0,0 l/m 4,8 km/h (1 Bft) S-SW 202 0 min 0,0 UV-I 0 W/m 1,3 C 2,5 C 6,4 km/h (2 Bft)
21.02.2023 02:09 2,4 C 1,1 C 92 % 1023,1 hPa 0,0 l/m 4,8 km/h (1 Bft) S-SW 202 0 min 0,0 UV-I 0 W/m 1,2 C 2,4 C 6,4 km/h (2 Bft)
21.02.2023 02:10 2,4 C 1,1 C 92 % 1023,2 hPa 0,0 l/m 3,2 km/h (1 Bft) S-SW 202 0 min 0,0 UV-I 0 W/m 1,2 C 2,4 C 4,8 km/h (1 Bft)
21.02.2023 02:11 2,3 C 1,1 C 92 % 1023,2 hPa 0,0 l/m 3,2 km/h (1 Bft) W-SW 247 0 min 0,0 UV-I 0 W/m 1,1 C 2,3 C 4,8 km/h (1 Bft)
21.02.2023 02:12 2,3 C 1,1 C 92 % 1023,2 hPa 0,0 l/m 4,8 km/h (1 Bft) W-SW 247 0 min 0,0 UV-I 0 W/m 1,1 C 2,3 C 6,4 km/h (2 Bft)
21.02.2023 02:13 2,4 C 1,1 C 93 % 1023,1 hPa 0,0 l/m 3,2 km/h (1 Bft) SW 225 0 min 0,0 UV-I 0 W/m 1,4 C 2,4 C 4,8 km/h (1 Bft)
21.02.2023 02:14 2,6 C 1,1 C 93 % 1023,3 hPa 0,0 l/m 3,2 km/h (1 Bft) SW 225 0 min 0,0 UV-I 0 W/m 1,6 C 2,6 C 4,8 km/h (1 Bft)
21.02.2023 02:15 2,7 C 1,1 C 93 % 1023,3 hPa 0,0 l/m 4,8 km/h (1 Bft) W 270 0 min 0,0 UV-I 0 W/m 1,7 C 2,7 C 8,0 km/h (2 Bft)
21.02.2023 02:16 2,7 C 1,7 C 93 % 1023,4 hPa 0,0 l/m 3,2 km/h (1 Bft) W 270 0 min 0,0 UV-I 0 W/m 1,7 C 2,7 C 6,4 km/h (2 Bft)
21.02.2023 02:17 2,8 C 1,7 C 93 % 1023,3 hPa 0,0 l/m 4,8 km/h (1 Bft) W-SW 247 0 min 0,0 UV-I 0 W/m 1,8 C 2,8 C 8,0 km/h (2 Bft)
21.02.2023 02:18 2,8 C 1,7 C 93 % 1023,3 hPa 0,0 l/m 4,8 km/h (1 Bft) SW 225 0 min 0,0 UV-I 0 W/m 1,8 C 2,8 C 9,7 km/h (2 Bft)
21.02.2023 02:19 2,8 C 1,7 C 93 % 1023,3 hPa 0,0 l/m 4,8 km/h (1 Bft) SW 225 0 min 0,0 UV-I 0 W/m 1,8 C 2,8 C 9,7 km/h (2 Bft)
21.02.2023 02:20 2,7 C 1,1 C 92 % 1023,3 hPa 0,0 l/m 3,2 km/h (1 Bft) SW 225 0 min 0,0 UV-I 0 W/m 1,5 C 2,7 C 4,8 km/h (1 Bft)
21.02.2023 02:21 2,6 C 1,1 C 92 % 1023,3 hPa 0,0 l/m 4,8 km/h (1 Bft) SW 225 0 min 0,0 UV-I 0 W/m 1,4 C 2,6 C 8,0 km/h (2 Bft)
21.02.2023 02:22 2,4 C 1,1 C 92 % 1023,2 hPa 0,0 l/m 6,4 km/h (2 Bft) S 180 0 min 0,0 UV-I 0 W/m 1,2 C 2,4 C 9,7 km/h (2 Bft)
21.02.2023 02:23 2,3 C 1,1 C 92 % 1023,2 hPa 0,0 l/m 8,0 km/h (2 Bft) S-SW 202 0 min 0,0 UV-I 0 W/m 1,1 C 0,8 C 9,7 km/h (2 Bft)
21.02.2023 02:24 2,3 C 1,1 C 92 % 1023,2 hPa 0,0 l/m 6,4 km/h (2 Bft) S-SW 202 0 min 0,0 UV-I 0 W/m 1,1 C 2,3 C 9,7 km/h (2 Bft)
21.02.2023 02:25 2,3 C 1,1 C 93 % 1023,2 hPa 0,0 l/m 4,8 km/h (1 Bft) S-SW 202 0 min 0,0 UV-I 0 W/m 1,3 C 2,3 C 6,4 km/h (2 Bft)
21.02.2023 02:26 2,3 C 1,1 C 93 % 1023,2 hPa 0,0 l/m 4,8 km/h (1 Bft) S-SW 202 0 min 0,0 UV-I 0 W/m 1,3 C 2,3 C 6,4 km/h (2 Bft)
21.02.2023 02:27 2,2 C 1,1 C 93 % 1023,2 hPa 0,0 l/m 4,8 km/h (1 Bft) S-SW 202 0 min 0,0 UV-I 0 W/m 1,2 C 2,2 C 6,4 km/h (2 Bft)
21.02.2023 02:28 2,3 C 1,1 C 93 % 1023,2 hPa 0,0 l/m 3,2 km/h (1 Bft) SW 225 0 min 0,0 UV-I 0 W/m 1,3 C 2,3 C 4,8 km/h (1 Bft)
21.02.2023 02:29 2,3 C 1,1 C 93 % 1023,1 hPa 0,0 l/m 3,2 km/h (1 Bft) SW 225 0 min 0,0 UV-I 0 W/m 1,3 C 2,3 C 4,8 km/h (1 Bft)
21.02.2023 02:30 2,3 C 1,1 C 93 % 1023,1 hPa 0,0 l/m 4,8 km/h (1 Bft) SW 225 0 min 0,0 UV-I 0 W/m 1,3 C 2,3 C 6,4 km/h (2 Bft)
21.02.2023 02:31 2,3 C 1,1 C 93 % 1023,2 hPa 0,0 l/m 4,8 km/h (1 Bft) SW 225 0 min 0,0 UV-I 0 W/m 1,3 C 2,3 C 6,4 km/h (2 Bft)
21.02.2023 02:32 2,4 C 1,1 C 93 % 1023,1 hPa 0,0 l/m 4,8 km/h (1 Bft) W-SW 247 0 min 0,0 UV-I 0 W/m 1,4 C 2,4 C 6,4 km/h (2 Bft)
21.02.2023 02:33 2,4 C 1,1 C 93 % 1023,1 hPa 0,0 l/m 6,4 km/h (2 Bft) SW 225 0 min 0,0 UV-I 0 W/m 1,4 C 2,4 C 9,7 km/h (2 Bft)
21.02.2023 02:34 2,6 C 1,1 C 93 % 1023,2 hPa 0,0 l/m 4,8 km/h (1 Bft) S-SW 202 0 min 0,0 UV-I 0 W/m 1,6 C 2,6 C 6,4 km/h (2 Bft)
21.02.2023 02:35 2,6 C 1,7 C 93 % 1023,1 hPa 0,0 l/m 4,8 km/h (1 Bft) S-SW 202 0 min 0,0 UV-I 0 W/m 1,6 C 2,6 C 6,4 km/h (2 Bft)
21.02.2023 02:36 2,6 C 1,7 C 93 % 1023,0 hPa 0,0 l/m 3,2 km/h (1 Bft) SW 225 0 min 0,0 UV-I 0 W/m 1,6 C 2,6 C 6,4 km/h (2 Bft)
21.02.2023 02:37 2,5 C 1,1 C 93 % 1023,1 hPa 0,0 l/m 3,2 km/h (1 Bft) SW 225 0 min 0,0 UV-I 0 W/m 1,5 C 2,5 C 4,8 km/h (1 Bft)
21.02.2023 02:38 2,4 C 1,1 C 92 % 1023,1 hPa 0,0 l/m 3,2 km/h (1 Bft) SW 225 0 min 0,0 UV-I 0 W/m 1,2 C 2,4 C 6,4 km/h (2 Bft)
21.02.2023 02:39 2,4 C 1,1 C 93 % 1023,2 hPa 0,0 l/m 1,6 km/h (1 Bft) W-SW 247 0 min 0,0 UV-I 0 W/m 1,4 C 2,4 C 4,8 km/h (1 Bft)
21.02.2023 02:40 2,3 C 1,1 C 93 % 1023,2 hPa 0,0 l/m 1,6 km/h (1 Bft) W-SW 247 0 min 0,0 UV-I 0 W/m 1,3 C 2,3 C 3,2 km/h (1 Bft)
21.02.2023 02:41 2,4 C 1,1 C 93 % 1023,2 hPa 0,0 l/m 3,2 km/h (1 Bft) W-SW 247 0 min 0,0 UV-I 0 W/m 1,4 C 2,4 C 4,8 km/h (1 Bft)
21.02.2023 02:42 2,5 C 1,1 C 93 % 1023,2 hPa 0,0 l/m 3,2 km/h (1 Bft) W-SW 247 0 min 0,0 UV-I 0 W/m 1,5 C 2,5 C 6,4 km/h (2 Bft)
21.02.2023 02:43 2,5 C 1,1 C 93 % 1023,2 hPa 0,0 l/m 3,2 km/h (1 Bft) W-SW 247 0 min 0,0 UV-I 0 W/m 1,5 C 2,5 C 4,8 km/h (1 Bft)
21.02.2023 02:44 2,6 C 1,1 C 93 % 1023,2 hPa 0,0 l/m 4,8 km/h (1 Bft) W-SW 247 0 min 0,0 UV-I 0 W/m 1,6 C 2,6 C 6,4 km/h (2 Bft)
21.02.2023 02:45 2,7 C 1,1 C 93 % 1023,1 hPa 0,0 l/m 3,2 km/h (1 Bft) W-SW 247 0 min 0,0 UV-I 0 W/m 1,7 C 2,7 C 4,8 km/h (1 Bft)
21.02.2023 02:46 2,7 C 1,1 C 93 % 1023,1 hPa 0,0 l/m 4,8 km/h (1 Bft) W-SW 247 0 min 0,0 UV-I 0 W/m 1,7 C 2,7 C 9,7 km/h (2 Bft)
21.02.2023 02:47 2,6 C 1,1 C 93 % 1023,1 hPa 0,0 l/m 4,8 km/h (1 Bft) SW 225 0 min 0,0 UV-I 0 W/m 1,6 C 2,6 C 9,7 km/h (2 Bft)
21.02.2023 02:48 2,4 C 1,1 C 92 % 1023,1 hPa 0,0 l/m 1,6 km/h (1 Bft) W 270 0 min 0,0 UV-I 0 W/m 1,2 C 2,4 C 4,8 km/h (1 Bft)
21.02.2023 02:49 2,3 C 0,6 C 92 % 1023,2 hPa 0,0 l/m 3,2 km/h (1 Bft) W 270 0 min 0,0 UV-I 0 W/m 1,1 C 2,3 C 4,8 km/h (1 Bft)
21.02.2023 02:50 2,2 C 0,6 C 92 % 1023,0 hPa 0,0 l/m 4,8 km/h (1 Bft) W 270 0 min 0,0 UV-I 0 W/m 1,0 C 2,2 C 8,0 km/h (2 Bft)
21.02.2023 02:51 2,2 C 0,6 C 93 % 1023,0 hPa 0,0 l/m 4,8 km/h (1 Bft) W-SW 247 0 min 0,0 UV-I 0 W/m 1,2 C 2,2 C 6,4 km/h (2 Bft)
21.02.2023 02:52 2,2 C 0,6 C 92 % 1023,0 hPa 0,0 l/m 4,8 km/h (1 Bft) W-SW 247 0 min 0,0 UV-I 0 W/m 1,0 C 2,2 C 6,4 km/h (2 Bft)
21.02.2023 02:53 2,1 C 0,6 C 92 % 1023,0 hPa 0,0 l/m 4,8 km/h (1 Bft) SW 225 0 min 0,0 UV-I 0 W/m 0,9 C 2,1 C 8,0 km/h (2 Bft)
21.02.2023 02:54 2,1 C 0,6 C 93 % 1023,0 hPa 0,0 l/m 4,8 km/h (1 Bft) W-SW 247 0 min 0,0 UV-I 0 W/m 1,1 C 2,1 C 6,4 km/h (2 Bft)
21.02.2023 02:55 1,9 C 0,6 C 93 % 1023,0 hPa 0,0 l/m 4,8 km/h (1 Bft) W-SW 247 0 min 0,0 UV-I 0 W/m 0,9 C 1,9 C 4,8 km/h (1 Bft)
21.02.2023 02:56 1,8 C 0,6 C 92 % 1022,9 hPa 0,0 l/m 3,2 km/h (1 Bft) SW 225 0 min 0,0 UV-I 0 W/m 0,6 C 1,8 C 6,4 km/h (2 Bft)
21.02.2023 02:57 1,8 C 0,6 C 92 % 1023,0 hPa 0,0 l/m 3,2 km/h (1 Bft) SW 225 0 min 0,0 UV-I 0 W/m 0,6 C 1,8 C 6,4 km/h (2 Bft)
21.02.2023 02:58 1,8 C 0,6 C 93 % 1023,0 hPa 0,0 l/m 4,8 km/h (1 Bft) SW 225 0 min 0,0 UV-I 0 W/m 0,8 C 1,8 C 8,0 km/h (2 Bft)
21.02.2023 02:59 1,9 C 0,6 C 93 % 1023,0 hPa 0,0 l/m 4,8 km/h (1 Bft) SW 225 0 min 0,0 UV-I 0 W/m 0,9 C 1,9 C 8,0 km/h (2 Bft)
21.02.2023 03:00 1,9 C 0,6 C 93 % 1023,0 hPa 0,0 l/m 3,2 km/h (1 Bft) W-SW 247 0 min 0,0 UV-I 0 W/m 0,9 C 1,9 C 8,0 km/h (2 Bft)
21.02.2023 03:01 1,9 C 0,6 C 93 % 1023,0 hPa 0,0 l/m 3,2 km/h (1 Bft) W-SW 247 0 min 0,0 UV-I 0 W/m 0,9 C 1,9 C 6,4 km/h (2 Bft)
21.02.2023 03:02 2,0 C 0,6 C 93 % 1022,9 hPa 0,0 l/m 3,2 km/h (1 Bft) SW 225 0 min 0,0 UV-I 0 W/m 1,0 C 2,0 C 4,8 km/h (1 Bft)
21.02.2023 03:03 2,0 C 0,6 C 93 % 1023,0 hPa 0,0 l/m 3,2 km/h (1 Bft) SW 225 0 min 0,0 UV-I 0 W/m 1,0 C 2,0 C 6,4 km/h (2 Bft)
21.02.2023 03:04 1,9 C 0,6 C 93 % 1023,0 hPa 0,0 l/m 3,2 km/h (1 Bft) SW 225 0 min 0,0 UV-I 0 W/m 0,9 C 1,9 C 6,4 km/h (2 Bft)
21.02.2023 03:05 1,9 C 0,6 C 93 % 1023,0 hPa 0,0 l/m 4,8 km/h (1 Bft) SW 225 0 min 0,0 UV-I 0 W/m 0,9 C 1,9 C 8,0 km/h (2 Bft)
21.02.2023 03:06 1,9 C 0,6 C 93 % 1023,0 hPa 0,0 l/m 4,8 km/h (1 Bft) W-SW 247 0 min 0,0 UV-I 0 W/m 0,9 C 1,9 C 8,0 km/h (2 Bft)
21.02.2023 03:07 1,9 C 0,6 C 93 % 1023,0 hPa 0,0 l/m 4,8 km/h (1 Bft) SW 225 0 min 0,0 UV-I 0 W/m 0,9 C 1,9 C 6,4 km/h (2 Bft)
21.02.2023 03:08 2,0 C 0,6 C 93 % 1023,0 hPa 0,0 l/m 4,8 km/h (1 Bft) SW 225 0 min 0,0 UV-I 0 W/m 1,0 C 2,0 C 8,0 km/h (2 Bft)
21.02.2023 03:09 2,2 C 0,6 C 93 % 1023,0 hPa 0,0 l/m 6,4 km/h (2 Bft) W-SW 247 0 min 0,0 UV-I 0 W/m 1,2 C 2,2 C 12,9 km/h (3 Bft)
21.02.2023 03:10 2,3 C 1,1 C 93 % 1022,9 hPa 0,0 l/m 6,4 km/h (2 Bft) SW 225 0 min 0,0 UV-I 0 W/m 1,3 C 2,3 C 9,7 km/h (2 Bft)
21.02.2023 03:11 2,4 C 1,1 C 93 % 1022,9 hPa 0,0 l/m 8,0 km/h (2 Bft) SW 225 0 min 0,0 UV-I 0 W/m 1,4 C 0,9 C 12,9 km/h (3 Bft)
21.02.2023 03:12 2,5 C 1,1 C 93 % 1023,0 hPa 0,0 l/m 6,4 km/h (2 Bft) S-SW 202 0 min 0,0 UV-I 0 W/m 1,5 C 2,5 C 12,9 km/h (3 Bft)
21.02.2023 03:13 2,6 C 1,1 C 94 % 1022,9 hPa 0,0 l/m 8,0 km/h (2 Bft) SW 225 0 min 0,0 UV-I 0 W/m 1,7 C 1,1 C 12,9 km/h (3 Bft)
21.02.2023 03:14 2,7 C 1,7 C 94 % 1022,9 hPa 0,0 l/m 9,7 km/h (2 Bft) SW 225 0 min 0,0 UV-I 0 W/m 1,8 C -0,2 C 16,1 km/h (3 Bft)
21.02.2023 03:15 2,8 C 1,7 C 94 % 1022,9 hPa 0,0 l/m 4,8 km/h (1 Bft) W-SW 247 0 min 0,0 UV-I 0 W/m 1,9 C 2,8 C 9,7 km/h (2 Bft)
21.02.2023 03:16 2,8 C 1,7 C 93 % 1022,9 hPa 0,0 l/m 6,4 km/h (2 Bft) SW 225 0 min 0,0 UV-I 0 W/m 1,8 C 2,8 C 9,7 km/h (2 Bft)
21.02.2023 03:17 2,7 C 1,7 C 93 % 1022,9 hPa 0,0 l/m 3,2 km/h (1 Bft) SW 225 0 min 0,0 UV-I 0 W/m 1,7 C 2,7 C 6,4 km/h (2 Bft)
21.02.2023 03:18 2,7 C 1,1 C 93 % 1023,0 hPa 0,0 l/m 3,2 km/h (1 Bft) SW 225 0 min 0,0 UV-I 0 W/m 1,7 C 2,7 C 6,4 km/h (2 Bft)
21.02.2023 03:19 2,7 C 1,1 C 93 % 1022,9 hPa 0,0 l/m 3,2 km/h (1 Bft) W-SW 247 0 min 0,0 UV-I 0 W/m 1,7 C 2,7 C 8,0 km/h (2 Bft)
21.02.2023 03:20 2,7 C 1,7 C 93 % 1022,9 hPa 0,0 l/m 4,8 km/h (1 Bft) W-SW 247 0 min 0,0 UV-I 0 W/m 1,7 C 2,7 C 8,0 km/h (2 Bft)
21.02.2023 03:21 2,7 C 1,7 C 93 % 1023,0 hPa 0,0 l/m 4,8 km/h (1 Bft) W-SW 247 0 min 0,0 UV-I 0 W/m 1,7 C 2,7 C 9,7 km/h (2 Bft)
21.02.2023 03:22 2,7 C 1,7 C 93 % 1022,9 hPa 0,0 l/m 1,6 km/h (1 Bft) SW 225 0 min 0,0 UV-I 0 W/m 1,7 C 2,7 C 4,8 km/h (1 Bft)
21.02.2023 03:23 2,7 C 1,1 C 93 % 1023,0 hPa 0,0 l/m 1,6 km/h (1 Bft) SW 225 0 min 0,0 UV-I 0 W/m 1,7 C 2,7 C 4,8 km/h (1 Bft)
21.02.2023 03:24 2,6 C 1,1 C 93 % 1023,0 hPa 0,0 l/m 1,6 km/h (1 Bft) SW 225 0 min 0,0 UV-I 0 W/m 1,6 C 2,6 C 4,8 km/h (1 Bft)
21.02.2023 03:25 2,6 C 1,1 C 93 % 1022,9 hPa 0,0 l/m 4,8 km/h (1 Bft) SW 225 0 min 0,0 UV-I 0 W/m 1,6 C 2,6 C 8,0 km/h (2 Bft)
21.02.2023 03:26 2,6 C 1,7 C 93 % 1022,9 hPa 0,0 l/m 3,2 km/h (1 Bft) W-SW 247 0 min 0,0 UV-I 0 W/m 1,6 C 2,6 C 9,7 km/h (2 Bft)
21.02.2023 03:27 2,6 C 1,1 C 93 % 1022,9 hPa 0,0 l/m 3,2 km/h (1 Bft) W 270 0 min 0,0 UV-I 0 W/m 1,6 C 2,6 C 6,4 km/h (2 Bft)
21.02.2023 03:28 2,6 C 1,1 C 93 % 1022,8 hPa 0,0 l/m 1,6 km/h (1 Bft) W 270 0 min 0,0 UV-I 0 W/m 1,6 C 2,6 C 3,2 km/h (1 Bft)
21.02.2023 03:29 2,5 C 1,1 C 93 % 1022,8 hPa 0,0 l/m 3,2 km/h (1 Bft) W 270 0 min 0,0 UV-I 0 W/m 1,5 C 2,5 C 8,0 km/h (2 Bft)
21.02.2023 03:30 2,5 C 1,7 C 93 % 1022,8 hPa 0,0 l/m 3,2 km/h (1 Bft) SW 225 0 min 0,0 UV-I 0 W/m 1,5 C 2,5 C 4,8 km/h (1 Bft)
21.02.2023 03:31 2,5 C 1,1 C 93 % 1022,9 hPa 0,0 l/m 4,8 km/h (1 Bft) SW 225 0 min 0,0 UV-I 0 W/m 1,5 C 2,5 C 6,4 km/h (2 Bft)
21.02.2023 03:32 2,5 C 1,1 C 93 % 1022,9 hPa 0,0 l/m 4,8 km/h (1 Bft) SW 225 0 min 0,0 UV-I 0 W/m 1,5 C 2,5 C 8,0 km/h (2 Bft)
21.02.2023 03:33 2,5 C 1,1 C 93 % 1022,8 hPa 0,0 l/m 3,2 km/h (1 Bft) SW 225 0 min 0,0 UV-I 0 W/m 1,5 C 2,5 C 6,4 km/h (2 Bft)
21.02.2023 03:34 2,4 C 1,7 C 93 % 1022,8 hPa 0,0 l/m 4,8 km/h (1 Bft) SW 225 0 min 0,0 UV-I 0 W/m 1,4 C 2,4 C 6,4 km/h (2 Bft)
21.02.2023 03:35 2,4 C 1,7 C 93 % 1022,8 hPa 0,0 l/m 4,8 km/h (1 Bft) S-SW 202 0 min 0,0 UV-I 0 W/m 1,4 C 2,4 C 8,0 km/h (2 Bft)
21.02.2023 03:36 2,4 C 1,7 C 93 % 1022,8 hPa 0,0 l/m 4,8 km/h (1 Bft) S-SW 202 0 min 0,0 UV-I 0 W/m 1,4 C 2,4 C 6,4 km/h (2 Bft)
21.02.2023 03:37 2,4 C 1,7 C 93 % 1022,8 hPa 0,0 l/m 4,8 km/h (1 Bft) S-SW 202 0 min 0,0 UV-I 0 W/m 1,4 C 2,4 C 6,4 km/h (2 Bft)
21.02.2023 03:38 2,4 C 1,7 C 93 % 1022,8 hPa 0,0 l/m 3,2 km/h (1 Bft) S-SW 202 0 min 0,0 UV-I 0 W/m 1,4 C 2,4 C 6,4 km/h (2 Bft)
21.02.2023 03:39 2,4 C 1,7 C 93 % 1022,8 hPa 0,0 l/m 3,2 km/h (1 Bft) S-SW 202 0 min 0,0 UV-I 0 W/m 1,4 C 2,4 C 4,8 km/h (1 Bft)
21.02.2023 03:40 2,3 C 1,7 C 93 % 1022,9 hPa 0,0 l/m 3,2 km/h (1 Bft) S-SW 202 0 min 0,0 UV-I 0 W/m 1,3 C 2,3 C 6,4 km/h (2 Bft)
21.02.2023 03:41 2,3 C 1,7 C 93 % 1022,8 hPa 0,0 l/m 1,6 km/h (1 Bft) S-SW 202 0 min 0,0 UV-I 0 W/m 1,3 C 2,3 C 3,2 km/h (1 Bft)
21.02.2023 03:42 2,4 C 1,7 C 93 % 1022,8 hPa 0,0 l/m 1,6 km/h (1 Bft) W-SW 247 0 min 0,0 UV-I 0 W/m 1,4 C 2,4 C 6,4 km/h (2 Bft)
21.02.2023 03:43 2,4 C 1,7 C 93 % 1022,9 hPa 0,0 l/m 1,6 km/h (1 Bft) W-SW 247 0 min 0,0 UV-I 0 W/m 1,4 C 2,4 C 3,2 km/h (1 Bft)
21.02.2023 03:44 2,3 C 1,7 C 93 % 1022,9 hPa 0,0 l/m 1,6 km/h (1 Bft) W-SW 247 0 min 0,0 UV-I 0 W/m 1,3 C 2,3 C 3,2 km/h (1 Bft)
21.02.2023 03:45 2,3 C 1,1 C 93 % 1022,7 hPa 0,0 l/m 1,6 km/h (1 Bft) W-SW 247 0 min 0,0 UV-I 0 W/m 1,3 C 2,3 C 3,2 km/h (1 Bft)
21.02.2023 03:46 2,3 C 1,1 C 93 % 1022,8 hPa 0,0 l/m 1,6 km/h (1 Bft) W-SW 247 0 min 0,0 UV-I 0 W/m 1,3 C 2,3 C 1,6 km/h (1 Bft)
21.02.2023 03:47 2,2 C 1,1 C 93 % 1022,8 hPa 0,0 l/m 1,6 km/h (1 Bft) W-SW 247 0 min 0,0 UV-I 0 W/m 1,2 C 2,2 C 3,2 km/h (1 Bft)
21.02.2023 03:48 2,2 C 1,1 C 93 % 1022,7 hPa 0,0 l/m 1,6 km/h (1 Bft) W-SW 247 0 min 0,0 UV-I 0 W/m 1,2 C 2,2 C 1,6 km/h (1 Bft)
21.02.2023 03:49 2,1 C 1,1 C 93 % 1022,7 hPa 0,0 l/m 3,2 km/h (1 Bft) W-SW 247 0 min 0,0 UV-I 0 W/m 1,1 C 2,1 C 4,8 km/h (1 Bft)
21.02.2023 03:50 2,1 C 1,1 C 93 % 1022,7 hPa 0,0 l/m 3,2 km/h (1 Bft) SW 225 0 min 0,0 UV-I 0 W/m 1,1 C 2,1 C 6,4 km/h (2 Bft)
21.02.2023 03:51 2,1 C 1,1 C 93 % 1022,7 hPa 0,0 l/m 3,2 km/h (1 Bft) SW 225 0 min 0,0 UV-I 0 W/m 1,1 C 2,1 C 6,4 km/h (2 Bft)
21.02.2023 03:52 2,1 C 1,1 C 93 % 1022,8 hPa 0,0 l/m 1,6 km/h (1 Bft) SW 225 0 min 0,0 UV-I 0 W/m 1,1 C 2,1 C 3,2 km/h (1 Bft)
21.02.2023 03:53 2,1 C 1,1 C 93 % 1022,6 hPa 0,0 l/m 3,2 km/h (1 Bft) S-SW 202 0 min 0,0 UV-I 0 W/m 1,1 C 2,1 C 8,0 km/h (2 Bft)
21.02.2023 03:54 2,1 C 1,1 C 93 % 1022,7 hPa 0,0 l/m 3,2 km/h (1 Bft) S-SW 202 0 min 0,0 UV-I 0 W/m 1,1 C 2,1 C 4,8 km/h (1 Bft)
21.02.2023 03:55 2,1 C 1,1 C 93 % 1022,7 hPa 0,0 l/m 0,0 km/h (0 Bft) S-SW 202 0 min 0,0 UV-I 0 W/m 1,1 C 2,1 C 1,6 km/h (1 Bft)
21.02.2023 03:56 2,1 C 1,1 C 93 % 1022,7 hPa 0,0 l/m 1,6 km/h (1 Bft) S-SW 202 0 min 0,0 UV-I 0 W/m 1,1 C 2,1 C 4,8 km/h (1 Bft)
21.02.2023 03:57 2,1 C 1,1 C 93 % 1022,7 hPa 0,0 l/m 1,6 km/h (1 Bft) SW 225 0 min 0,0 UV-I 0 W/m 1,1 C 2,1 C 1,6 km/h (1 Bft)
21.02.2023 03:58 2,1 C 1,1 C 93 % 1022,7 hPa 0,0 l/m 0,0 km/h (0 Bft) SW 225 0 min 0,0 UV-I 0 W/m 1,1 C 2,1 C 1,6 km/h (1 Bft)
21.02.2023 03:59 2,0 C 1,1 C 93 % 1022,7 hPa 0,0 l/m 1,6 km/h (1 Bft) SW 225 0 min 0,0 UV-I 0 W/m 1,0 C 2,0 C 3,2 km/h (1 Bft)
21.02.2023 04:00 2,0 C 1,1 C 93 % 1022,7 hPa 0,0 l/m 1,6 km/h (1 Bft) SW 225 0 min 0,0 UV-I 0 W/m 1,0 C 2,0 C 3,2 km/h (1 Bft)
21.02.2023 04:01 1,9 C 1,1 C 93 % 1022,6 hPa 0,0 l/m 1,6 km/h (1 Bft) SW 225 0 min 0,0 UV-I 0 W/m 0,9 C 1,9 C 3,2 km/h (1 Bft)
21.02.2023 04:02 1,9 C 1,1 C 93 % 1022,7 hPa 0,0 l/m 1,6 km/h (1 Bft) SW 225 0 min 0,0 UV-I 0 W/m 0,9 C 1,9 C 3,2 km/h (1 Bft)
21.02.2023 04:03 1,9 C 1,1 C 93 % 1022,7 hPa 0,0 l/m 1,6 km/h (1 Bft) SW 225 0 min 0,0 UV-I 0 W/m 0,9 C 1,9 C 3,2 km/h (1 Bft)
21.02.2023 04:04 1,9 C 1,1 C 93 % 1022,6 hPa 0,0 l/m 1,6 km/h (1 Bft) SW 225 0 min 0,0 UV-I 0 W/m 0,9 C 1,9 C 3,2 km/h (1 Bft)
21.02.2023 04:05 1,9 C 1,1 C 93 % 1022,7 hPa 0,0 l/m 1,6 km/h (1 Bft) SW 225 0 min 0,0 UV-I 0 W/m 0,9 C 1,9 C 3,2 km/h (1 Bft)
21.02.2023 04:06 1,9 C 1,1 C 93 % 1022,7 hPa 0,0 l/m 1,6 km/h (1 Bft) SW 225 0 min 0,0 UV-I 0 W/m 0,9 C 1,9 C 3,2 km/h (1 Bft)
21.02.2023 04:07 2,0 C 1,1 C 93 % 1022,7 hPa 0,0 l/m 1,6 km/h (1 Bft) SW 225 0 min 0,0 UV-I 0 W/m 1,0 C 2,0 C 3,2 km/h (1 Bft)
21.02.2023 04:08 2,0 C 1,1 C 93 % 1022,6 hPa 0,0 l/m 1,6 km/h (1 Bft) SW 225 0 min 0,0 UV-I 0 W/m 1,0 C 2,0 C 3,2 km/h (1 Bft)
21.02.2023 04:09 2,1 C 1,1 C 93 % 1022,6 hPa 0,0 l/m 3,2 km/h (1 Bft) SW 225 0 min 0,0 UV-I 0 W/m 1,1 C 2,1 C 4,8 km/h (1 Bft)
21.02.2023 04:10 2,1 C 1,1 C 93 % 1022,8 hPa 0,0 l/m 3,2 km/h (1 Bft) SW 225 0 min 0,0 UV-I 0 W/m 1,1 C 2,1 C 4,8 km/h (1 Bft)
21.02.2023 04:11 2,1 C 1,7 C 93 % 1022,7 hPa 0,0 l/m 3,2 km/h (1 Bft) SW 225 0 min 0,0 UV-I 0 W/m 1,1 C 2,1 C 3,2 km/h (1 Bft)
21.02.2023 04:12 2,1 C 1,1 C 93 % 1022,6 hPa 0,0 l/m 3,2 km/h (1 Bft) SW 225 0 min 0,0 UV-I 0 W/m 1,1 C 2,1 C 4,8 km/h (1 Bft)
21.02.2023 04:13 2,1 C 1,1 C 93 % 1022,6 hPa 0,0 l/m 4,8 km/h (1 Bft) SW 225 0 min 0,0 UV-I 0 W/m 1,1 C 2,1 C 4,8 km/h (1 Bft)
21.02.2023 04:14 2,1 C 1,1 C 93 % 1022,6 hPa 0,0 l/m 3,2 km/h (1 Bft) SW 225 0 min 0,0 UV-I 0 W/m 1,1 C 2,1 C 4,8 km/h (1 Bft)
21.02.2023 04:15 2,1 C 1,1 C 93 % 1022,6 hPa 0,0 l/m 1,6 km/h (1 Bft) SW 225 0 min 0,0 UV-I 0 W/m 1,1 C 2,1 C 3,2 km/h (1 Bft)
21.02.2023 04:16 2,1 C 1,1 C 93 % 1022,6 hPa 0,0 l/m 1,6 km/h (1 Bft) SW 225 0 min 0,0 UV-I 0 W/m 1,1 C 2,1 C 3,2 km/h (1 Bft)
21.02.2023 04:17 2,1 C 1,1 C 93 % 1022,5 hPa 0,0 l/m 1,6 km/h (1 Bft) SW 225 0 min 0,0 UV-I 0 W/m 1,1 C 2,1 C 3,2 km/h (1 Bft)
21.02.2023 04:18 2,1 C 1,1 C 93 % 1022,6 hPa 0,0 l/m 0,0 km/h (0 Bft) SW 225 0 min 0,0 UV-I 0 W/m 1,1 C 2,1 C 1,6 km/h (1 Bft)
21.02.2023 04:19 2,1 C 1,1 C 93 % 1022,6 hPa 0,0 l/m 1,6 km/h (1 Bft) SW 225 0 min 0,0 UV-I 0 W/m 1,1 C 2,1 C 1,6 km/h (1 Bft)
21.02.2023 04:20 2,1 C 1,1 C 93 % 1022,6 hPa 0,0 l/m 0,0 km/h (0 Bft) SW 225 0 min 0,0 UV-I 0 W/m 1,1 C 2,1 C 1,6 km/h (1 Bft)
21.02.2023 04:21 2,1 C 1,1 C 93 % 1022,6 hPa 0,0 l/m 0,0 km/h (0 Bft) N 0 0 min 0,0 UV-I 0 W/m 1,1 C 2,1 C 0,0 km/h (0 Bft)
21.02.2023 04:22 2,2 C 0,6 C 93 % 1022,5 hPa 0,0 l/m 0,0 km/h (0 Bft) N 0 0 min 0,0 UV-I 0 W/m 1,2 C 2,2 C 0,0 km/h (0 Bft)
21.02.2023 04:23 2,2 C 0,6 C 93 % 1022,7 hPa 0,0 l/m 0,0 km/h (0 Bft) SW 225 0 min 0,0 UV-I 0 W/m 1,2 C 2,2 C 1,6 km/h (1 Bft)
21.02.2023 04:24 2,2 C 1,1 C 94 % 1022,6 hPa 0,0 l/m 0,0 km/h (0 Bft) SW 225 0 min 0,0 UV-I 0 W/m 1,3 C 2,2 C 1,6 km/h (1 Bft)
21.02.2023 04:25 2,2 C 0,6 C 94 % 1022,5 hPa 0,0 l/m 0,0 km/h (0 Bft) N 0 0 min 0,0 UV-I 0 W/m 1,3 C 2,2 C 0,0 km/h (0 Bft)
21.02.2023 04:26 2,2 C 0,6 C 94 % 1022,5 hPa 0,0 l/m 0,0 km/h (0 Bft) N 0 0 min 0,0 UV-I 0 W/m 1,3 C 2,2 C 0,0 km/h (0 Bft)
21.02.2023 04:27 2,2 C 0,6 C 94 % 1022,6 hPa 0,0 l/m 0,0 km/h (0 Bft) N 0 0 min 0,0 UV-I 0 W/m 1,3 C 2,2 C 0,0 km/h (0 Bft)
21.02.2023 04:28 2,3 C 0,6 C 94 % 1022,6 hPa 0,0 l/m 0,0 km/h (0 Bft) N 0 0 min 0,0 UV-I 0 W/m 1,4 C 2,3 C 0,0 km/h (0 Bft)
21.02.2023 04:29 2,3 C 0,6 C 94 % 1022,7 hPa 0,0 l/m 1,6 km/h (1 Bft) SW 225 0 min 0,0 UV-I 0 W/m 1,4 C 2,3 C 3,2 km/h (1 Bft)
21.02.2023 04:30 2,3 C 0,6 C 94 % 1022,6 hPa 0,0 l/m 1,6 km/h (1 Bft) SW 225 0 min 0,0 UV-I 0 W/m 1,4 C 2,3 C 3,2 km/h (1 Bft)
21.02.2023 04:31 2,4 C 0,6 C 94 % 1022,5 hPa 0,0 l/m 1,6 km/h (1 Bft) SW 225 0 min 0,0 UV-I 0 W/m 1,5 C 2,4 C 3,2 km/h (1 Bft)
21.02.2023 04:32 2,4 C 0,6 C 94 % 1022,6 hPa 0,0 l/m 0,0 km/h (0 Bft) SW 225 0 min 0,0 UV-I 0 W/m 1,5 C 2,4 C 1,6 km/h (1 Bft)
21.02.2023 04:33 2,4 C 0,6 C 94 % 1022,6 hPa 0,0 l/m 1,6 km/h (1 Bft) SW 225 0 min 0,0 UV-I 0 W/m 1,5 C 2,4 C 3,2 km/h (1 Bft)
21.02.2023 04:34 2,4 C 0,6 C 94 % 1022,6 hPa 0,0 l/m 0,0 km/h (0 Bft) SW 225 0 min 0,0 UV-I 0 W/m 1,5 C 2,4 C 1,6 km/h (1 Bft)
21.02.2023 04:35 2,4 C 0,6 C 94 % 1022,6 hPa 0,0 l/m 3,2 km/h (1 Bft) SW 225 0 min 0,0 UV-I 0 W/m 1,5 C 2,4 C 4,8 km/h (1 Bft)
21.02.2023 04:36 2,4 C 0,6 C 94 % 1022,7 hPa 0,0 l/m 3,2 km/h (1 Bft) S-SW 202 0 min 0,0 UV-I 0 W/m 1,5 C 2,4 C 6,4 km/h (2 Bft)
21.02.2023 04:37 2,4 C 0,6 C 94 % 1022,7 hPa 0,0 l/m 1,6 km/h (1 Bft) S-SW 202 0 min 0,0 UV-I 0 W/m 1,5 C 2,4 C 3,2 km/h (1 Bft)
21.02.2023 04:38 2,5 C 1,1 C 94 % 1022,7 hPa 0,0 l/m 1,6 km/h (1 Bft) S-SW 202 0 min 0,0 UV-I 0 W/m 1,6 C 2,5 C 3,2 km/h (1 Bft)
21.02.2023 04:39 2,5 C 1,1 C 94 % 1022,5 hPa 0,0 l/m 1,6 km/h (1 Bft) S-SW 202 0 min 0,0 UV-I 0 W/m 1,6 C 2,5 C 3,2 km/h (1 Bft)
21.02.2023 04:40 2,5 C 1,1 C 94 % 1022,6 hPa 0,0 l/m 1,6 km/h (1 Bft) S-SW 202 0 min 0,0 UV-I 0 W/m 1,6 C 2,5 C 3,2 km/h (1 Bft)
21.02.2023 04:41 2,5 C 1,1 C 94 % 1022,5 hPa 0,0 l/m 0,0 km/h (0 Bft) S-SW 202 0 min 0,0 UV-I 0 W/m 1,6 C 2,5 C 1,6 km/h (1 Bft)
21.02.2023 04:42 2,5 C 1,1 C 94 % 1022,6 hPa 0,0 l/m 0,0 km/h (0 Bft) S-SW 202 0 min 0,0 UV-I 0 W/m 1,6 C 2,5 C 1,6 km/h (1 Bft)
21.02.2023 04:43 2,6 C 0,6 C 94 % 1022,6 hPa 0,0 l/m 0,0 km/h (0 Bft) N 0 0 min 0,0 UV-I 0 W/m 1,7 C 2,6 C 0,0 km/h (0 Bft)
21.02.2023 04:44 2,5 C 0,6 C 94 % 1022,6 hPa 0,0 l/m 0,0 km/h (0 Bft) S-SW 202 0 min 0,0 UV-I 0 W/m 1,6 C 2,5 C 1,6 km/h (1 Bft)
21.02.2023 04:45 2,5 C 0,6 C 94 % 1022,6 hPa 0,0 l/m 0,0 km/h (0 Bft) S-SW 202 0 min 0,0 UV-I 0 W/m 1,6 C 2,5 C 1,6 km/h (1 Bft)
21.02.2023 04:46 2,6 C 0,6 C 94 % 1022,5 hPa 0,0 l/m 0,0 km/h (0 Bft) N 0 0 min 0,0 UV-I 0 W/m 1,7 C 2,6 C 0,0 km/h (0 Bft)
21.02.2023 04:47 2,6 C 0,6 C 94 % 1022,5 hPa 0,0 l/m 0,0 km/h (0 Bft) N 0 0 min 0,0 UV-I 0 W/m 1,7 C 2,6 C 0,0 km/h (0 Bft)
21.02.2023 04:48 2,6 C 0,6 C 94 % 1022,6 hPa 0,0 l/m 0,0 km/h (0 Bft) S-SW 202 0 min 0,0 UV-I 0 W/m 1,7 C 2,6 C 1,6 km/h (1 Bft)
21.02.2023 04:49 2,6 C 0,6 C 94 % 1022,6 hPa 0,0 l/m 1,6 km/h (1 Bft) S-SW 202 0 min 0,0 UV-I 0 W/m 1,7 C 2,6 C 3,2 km/h (1 Bft)
21.02.2023 04:50 2,6 C 0,6 C 94 % 1022,5 hPa 0,0 l/m 1,6 km/h (1 Bft) S-SW 202 0 min 0,0 UV-I 0 W/m 1,7 C 2,6 C 3,2 km/h (1 Bft)
21.02.2023 04:51 2,6 C 0,6 C 94 % 1022,5 hPa 0,0 l/m 0,0 km/h (0 Bft) S-SW 202 0 min 0,0 UV-I 0 W/m 1,7 C 2,6 C 1,6 km/h (1 Bft)
21.02.2023 04:52 2,6 C 1,1 C 94 % 1022,6 hPa 0,0 l/m 0,0 km/h (0 Bft) N 0 0 min 0,0 UV-I 0 W/m 1,7 C 2,6 C 0,0 km/h (0 Bft)
21.02.2023 04:53 2,6 C 0,6 C 94 % 1022,5 hPa 0,0 l/m 0,0 km/h (0 Bft) S-SW 202 0 min 0,0 UV-I 0 W/m 1,7 C 2,6 C 1,6 km/h (1 Bft)
21.02.2023 04:54 2,5 C 0,6 C 94 % 1022,5 hPa 0,0 l/m 0,0 km/h (0 Bft) N 0 0 min 0,0 UV-I 0 W/m 1,6 C 2,5 C 0,0 km/h (0 Bft)
21.02.2023 04:55 2,5 C 0,6 C 93 % 1022,6 hPa 0,0 l/m 0,0 km/h (0 Bft) N 0 0 min 0,0 UV-I 0 W/m 1,5 C 2,5 C 0,0 km/h (0 Bft)
21.02.2023 04:56 2,4 C 0,6 C 93 % 1022,4 hPa 0,0 l/m 0,0 km/h (0 Bft) N 0 0 min 0,0 UV-I 0 W/m 1,4 C 2,4 C 0,0 km/h (0 Bft)
21.02.2023 04:57 2,4 C 0,6 C 93 % 1022,5 hPa 0,0 l/m 0,0 km/h (0 Bft) N 0 0 min 0,0 UV-I 0 W/m 1,4 C 2,4 C 0,0 km/h (0 Bft)
21.02.2023 04:58 2,4 C 0,6 C 93 % 1022,5 hPa 0,0 l/m 0,0 km/h (0 Bft) N 0 0 min 0,0 UV-I 0 W/m 1,4 C 2,4 C 0,0 km/h (0 Bft)
21.02.2023 04:59 2,4 C 0,6 C 93 % 1022,5 hPa 0,0 l/m 0,0 km/h (0 Bft) S-SW 202 0 min 0,0 UV-I 0 W/m 1,4 C 2,4 C 1,6 km/h (1 Bft)
21.02.2023 05:00 2,4 C 0,6 C 94 % 1022,4 hPa 0,0 l/m 0,0 km/h (0 Bft) S-SW 202 0 min 0,0 UV-I 0 W/m 1,5 C 2,4 C 1,6 km/h (1 Bft)
21.02.2023 05:01 2,4 C 0,6 C 94 % 1022,4 hPa 0,0 l/m 0,0 km/h (0 Bft) S-SW 202 0 min 0,0 UV-I 0 W/m 1,5 C 2,4 C 1,6 km/h (1 Bft)
21.02.2023 05:02 2,4 C 0,6 C 94 % 1022,5 hPa 0,0 l/m 1,6 km/h (1 Bft) S-SW 202 0 min 0,0 UV-I 0 W/m 1,5 C 2,4 C 3,2 km/h (1 Bft)
21.02.2023 05:03 2,4 C 0,6 C 94 % 1022,5 hPa 0,0 l/m 1,6 km/h (1 Bft) S-SW 202 0 min 0,0 UV-I 0 W/m 1,5 C 2,4 C 4,8 km/h (1 Bft)
21.02.2023 05:04 2,4 C 0,6 C 94 % 1022,4 hPa 0,0 l/m 0,0 km/h (0 Bft) N 0 0 min 0,0 UV-I 0 W/m 1,5 C 2,4 C 0,0 km/h (0 Bft)
21.02.2023 05:05 2,3 C 0,6 C 94 % 1022,5 hPa 0,0 l/m 1,6 km/h (1 Bft) S-SW 202 0 min 0,0 UV-I 0 W/m 1,4 C 2,3 C 3,2 km/h (1 Bft)
21.02.2023 05:06 2,3 C 0,6 C 94 % 1022,4 hPa 0,0 l/m 0,0 km/h (0 Bft) S-SW 202 0 min 0,0 UV-I 0 W/m 1,4 C 2,3 C 1,6 km/h (1 Bft)
21.02.2023 05:07 2,3 C 0,6 C 94 % 1022,4 hPa 0,0 l/m 1,6 km/h (1 Bft) S-SW 202 0 min 0,0 UV-I 0 W/m 1,4 C 2,3 C 3,2 km/h (1 Bft)
21.02.2023 05:08 2,3 C 0,6 C 94 % 1022,4 hPa 0,0 l/m 0,0 km/h (0 Bft) S-SW 202 0 min 0,0 UV-I 0 W/m 1,4 C 2,3 C 1,6 km/h (1 Bft)
21.02.2023 05:09 2,3 C 0,6 C 94 % 1022,4 hPa 0,0 l/m 0,0 km/h (0 Bft) N 0 0 min 0,0 UV-I 0 W/m 1,4 C 2,3 C 0,0 km/h (0 Bft)
21.02.2023 05:10 2,3 C 0,6 C 94 % 1022,4 hPa 0,0 l/m 0,0 km/h (0 Bft) N 0 0 min 0,0 UV-I 0 W/m 1,4 C 2,3 C 0,0 km/h (0 Bft)
21.02.2023 05:11 2,3 C 0,6 C 94 % 1022,4 hPa 0,0 l/m 0,0 km/h (0 Bft) N 0 0 min 0,0 UV-I 0 W/m 1,4 C 2,3 C 0,0 km/h (0 Bft)
21.02.2023 05:12 2,3 C 0,6 C 94 % 1022,4 hPa 0,0 l/m 0,0 km/h (0 Bft) N 0 0 min 0,0 UV-I 0 W/m 1,4 C 2,3 C 0,0 km/h (0 Bft)
21.02.2023 05:13 2,3 C 0,6 C 94 % 1022,4 hPa 0,0 l/m 0,0 km/h (0 Bft) N 0 0 min 0,0 UV-I 0 W/m 1,4 C 2,3 C 0,0 km/h (0 Bft)
21.02.2023 05:14 2,3 C 0,6 C 94 % 1022,5 hPa 0,0 l/m 0,0 km/h (0 Bft) N 0 0 min 0,0 UV-I 0 W/m 1,4 C 2,3 C 0,0 km/h (0 Bft)
21.02.2023 05:15 2,3 C 0,6 C 94 % 1022,4 hPa 0,0 l/m 0,0 km/h (0 Bft) N 0 0 min 0,0 UV-I 0 W/m 1,4 C 2,3 C 0,0 km/h (0 Bft)
21.02.2023 05:16 2,3 C 0,6 C 94 % 1022,4 hPa 0,0 l/m 0,0 km/h (0 Bft) N 0 0 min 0,0 UV-I 0 W/m 1,4 C 2,3 C 0,0 km/h (0 Bft)
21.02.2023 05:17 2,3 C 0,0 C 94 % 1022,4 hPa 0,0 l/m 0,0 km/h (0 Bft) N 0 0 min 0,0 UV-I 0 W/m 1,4 C 2,3 C 0,0 km/h (0 Bft)
21.02.2023 05:18 2,3 C 0,0 C 94 % 1022,4 hPa 0,0 l/m 0,0 km/h (0 Bft) N 0 0 min 0,0 UV-I 0 W/m 1,4 C 2,3 C 0,0 km/h (0 Bft)
21.02.2023 05:19 2,3 C 0,0 C 94 % 1022,4 hPa 0,0 l/m 0,0 km/h (0 Bft) N 0 0 min 0,0 UV-I 0 W/m 1,4 C 2,3 C 0,0 km/h (0 Bft)
21.02.2023 05:20 2,3 C 0,0 C 94 % 1022,4 hPa 0,0 l/m 0,0 km/h (0 Bft) N 0 0 min 0,0 UV-I 0 W/m 1,4 C 2,3 C 0,0 km/h (0 Bft)
21.02.2023 05:21 2,3 C 0,0 C 94 % 1022,4 hPa 0,0 l/m 0,0 km/h (0 Bft) N 0 0 min 0,0 UV-I 0 W/m 1,4 C 2,3 C 0,0 km/h (0 Bft)
21.02.2023 05:22 2,3 C 0,0 C 94 % 1022,3 hPa 0,0 l/m 0,0 km/h (0 Bft) N 0 0 min 0,0 UV-I 0 W/m 1,4 C 2,3 C 0,0 km/h (0 Bft)
21.02.2023 05:23 2,3 C 0,0 C 94 % 1022,4 hPa 0,0 l/m 0,0 km/h (0 Bft) N 0 0 min 0,0 UV-I 0 W/m 1,4 C 2,3 C 0,0 km/h (0 Bft)
21.02.2023 05:24 2,3 C 0,0 C 94 % 1022,5 hPa 0,0 l/m 0,0 km/h (0 Bft) N 0 0 min 0,0 UV-I 0 W/m 1,4 C 2,3 C 0,0 km/h (0 Bft)
21.02.2023 05:25 2,3 C 0,0 C 94 % 1022,4 hPa 0,0 l/m 0,0 km/h (0 Bft) N 0 0 min 0,0 UV-I 0 W/m 1,4 C 2,3 C 0,0 km/h (0 Bft)
21.02.2023 05:26 2,3 C 0,0 C 94 % 1022,4 hPa 0,0 l/m 0,0 km/h (0 Bft) N 0 0 min 0,0 UV-I 0 W/m 1,4 C 2,3 C 0,0 km/h (0 Bft)
21.02.2023 05:27 2,3 C 0,0 C 94 % 1022,5 hPa 0,0 l/m 0,0 km/h (0 Bft) N 0 0 min 0,0 UV-I 0 W/m 1,4 C 2,3 C 0,0 km/h (0 Bft)
21.02.2023 05:28 2,3 C 0,0 C 94 % 1022,4 hPa 0,0 l/m 0,0 km/h (0 Bft) N 0 0 min 0,0 UV-I 0 W/m 1,4 C 2,3 C 0,0 km/h (0 Bft)
21.02.2023 05:29 2,4 C 0,0 C 94 % 1022,3 hPa 0,0 l/m 0,0 km/h (0 Bft) N 0 0 min 0,0 UV-I 0 W/m 1,5 C 2,4 C 0,0 km/h (0 Bft)
21.02.2023 05:30 2,3 C 0,0 C 94 % 1022,4 hPa 0,0 l/m 0,0 km/h (0 Bft) N 0 0 min 0,0 UV-I 0 W/m 1,4 C 2,3 C 0,0 km/h (0 Bft)
21.02.2023 05:31 2,3 C 0,0 C 94 % 1022,5 hPa 0,0 l/m 0,0 km/h (0 Bft) N 0 0 min 0,0 UV-I 0 W/m 1,4 C 2,3 C 0,0 km/h (0 Bft)
21.02.2023 05:32 2,3 C 0,0 C 94 % 1022,4 hPa 0,0 l/m 0,0 km/h (0 Bft) N 0 0 min 0,0 UV-I 0 W/m 1,4 C 2,3 C 0,0 km/h (0 Bft)
21.02.2023 05:33 2,3 C 0,0 C 94 % 1022,4 hPa 0,0 l/m 0,0 km/h (0 Bft) N 0 0 min 0,0 UV-I 0 W/m 1,4 C 2,3 C 0,0 km/h (0 Bft)
21.02.2023 05:34 2,2 C 0,0 C 94 % 1022,4 hPa 0,0 l/m 0,0 km/h (0 Bft) N 0 0 min 0,0 UV-I 0 W/m 1,3 C 2,2 C 0,0 km/h (0 Bft)
21.02.2023 05:35 2,2 C 0,0 C 94 % 1022,4 hPa 0,0 l/m 0,0 km/h (0 Bft) N 0 0 min 0,0 UV-I 0 W/m 1,3 C 2,2 C 0,0 km/h (0 Bft)
21.02.2023 05:36 2,2 C 0,0 C 94 % 1022,4 hPa 0,0 l/m 0,0 km/h (0 Bft) N 0 0 min 0,0 UV-I 0 W/m 1,3 C 2,2 C 0,0 km/h (0 Bft)
21.02.2023 05:37 2,2 C 0,0 C 94 % 1022,4 hPa 0,0 l/m 0,0 km/h (0 Bft) N 0 0 min 0,0 UV-I 0 W/m 1,3 C 2,2 C 0,0 km/h (0 Bft)
21.02.2023 05:38 2,2 C 0,0 C 93 % 1022,4 hPa 0,0 l/m 0,0 km/h (0 Bft) N 0 0 min 0,0 UV-I 0 W/m 1,2 C 2,2 C 0,0 km/h (0 Bft)
21.02.2023 05:39 2,2 C 0,0 C 93 % 1022,4 hPa 0,0 l/m 0,0 km/h (0 Bft) N 0 0 min 0,0 UV-I 0 W/m 1,2 C 2,2 C 0,0 km/h (0 Bft)
21.02.2023 05:40 2,2 C 0,0 C 93 % 1022,4 hPa 0,0 l/m 0,0 km/h (0 Bft) N 0 0 min 0,0 UV-I 0 W/m 1,2 C 2,2 C 0,0 km/h (0 Bft)
21.02.2023 05:41 2,1 C 0,0 C 93 % 1022,4 hPa 0,0 l/m 0,0 km/h (0 Bft) N 0 0 min 0,0 UV-I 0 W/m 1,1 C 2,1 C 0,0 km/h (0 Bft)
21.02.2023 05:42 2,1 C 0,0 C 94 % 1022,4 hPa 0,0 l/m 0,0 km/h (0 Bft) N 0 0 min 0,0 UV-I 0 W/m 1,2 C 2,1 C 0,0 km/h (0 Bft)
21.02.2023 05:43 2,1 C -0,6 C 93 % 1022,4 hPa 0,0 l/m 0,0 km/h (0 Bft) N 0 0 min 0,0 UV-I 0 W/m 1,1 C 2,1 C 0,0 km/h (0 Bft)
21.02.2023 05:44 1,9 C 0,0 C 94 % 1022,5 hPa 0,0 l/m 0,0 km/h (0 Bft) N 0 0 min 0,0 UV-I 0 W/m 1,0 C 1,9 C 0,0 km/h (0 Bft)
21.02.2023 05:45 1,8 C 0,0 C 93 % 1022,3 hPa 0,0 l/m 0,0 km/h (0 Bft) N 0 0 min 0,0 UV-I 0 W/m 0,8 C 1,8 C 0,0 km/h (0 Bft)
21.02.2023 05:46 1,6 C 0,0 C 93 % 1022,4 hPa 0,0 l/m 0,0 km/h (0 Bft) N 0 0 min 0,0 UV-I 0 W/m 0,6 C 1,6 C 0,0 km/h (0 Bft)
21.02.2023 05:47 1,4 C -0,6 C 93 % 1022,3 hPa 0,0 l/m 0,0 km/h (0 Bft) N 0 0 min 0,0 UV-I 0 W/m 0,4 C 1,4 C 0,0 km/h (0 Bft)
21.02.2023 05:48 1,3 C -0,6 C 93 % 1022,4 hPa 0,0 l/m 0,0 km/h (0 Bft) N 0 0 min 0,0 UV-I 0 W/m 0,3 C 1,3 C 0,0 km/h (0 Bft)
21.02.2023 05:49 1,3 C -0,6 C 93 % 1022,3 hPa 0,0 l/m 0,0 km/h (0 Bft) N 0 0 min 0,0 UV-I 0 W/m 0,3 C 1,3 C 0,0 km/h (0 Bft)
21.02.2023 05:50 1,1 C -0,6 C 93 % 1022,2 hPa 0,0 l/m 0,0 km/h (0 Bft) N 0 0 min 0,0 UV-I 0 W/m 0,1 C 1,1 C 0,0 km/h (0 Bft)
21.02.2023 05:51 1,0 C -0,6 C 93 % 1022,3 hPa 0,0 l/m 0,0 km/h (0 Bft) N 0 0 min 0,0 UV-I 0 W/m -0,0 C 1,0 C 0,0 km/h (0 Bft)
21.02.2023 05:52 0,9 C -0,6 C 93 % 1022,3 hPa 0,0 l/m 0,0 km/h (0 Bft) N 0 0 min 0,0 UV-I 0 W/m -0,1 C 0,9 C 0,0 km/h (0 Bft)
21.02.2023 05:53 0,8 C -1,1 C 93 % 1022,3 hPa 0,0 l/m 0,0 km/h (0 Bft) N 0 0 min 0,0 UV-I 0 W/m -0,2 C 0,8 C 0,0 km/h (0 Bft)
21.02.2023 05:54 0,7 C -1,1 C 93 % 1022,4 hPa 0,0 l/m 0,0 km/h (0 Bft) N 0 0 min 0,0 UV-I 0 W/m -0,3 C 0,7 C 0,0 km/h (0 Bft)
21.02.2023 05:55 0,7 C -1,1 C 93 % 1022,3 hPa 0,0 l/m 0,0 km/h (0 Bft) N 0 0 min 0,0 UV-I 0 W/m -0,3 C 0,7 C 0,0 km/h (0 Bft)
21.02.2023 05:56 0,7 C -1,1 C 93 % 1022,3 hPa 0,0 l/m 0,0 km/h (0 Bft) N 0 0 min 0,0 UV-I 0 W/m -0,3 C 0,7 C 0,0 km/h (0 Bft)
21.02.2023 05:57 0,7 C -1,1 C 93 % 1022,2 hPa 0,0 l/m 0,0 km/h (0 Bft) N 0 0 min 0,0 UV-I 0 W/m -0,3 C 0,7 C 0,0 km/h (0 Bft)
21.02.2023 05:58 0,7 C -1,1 C 93 % 1022,3 hPa 0,0 l/m 0,0 km/h (0 Bft) N 0 0 min 0,0 UV-I 0 W/m -0,3 C 0,7 C 0,0 km/h (0 Bft)
21.02.2023 05:59 0,8 C -1,1 C 93 % 1022,3 hPa 0,0 l/m 0,0 km/h (0 Bft) N 0 0 min 0,0 UV-I 0 W/m -0,2 C 0,8 C 0,0 km/h (0 Bft)
21.02.2023 06:00 0,9 C -1,1 C 93 % 1022,2 hPa 0,0 l/m 0,0 km/h (0 Bft) N 0 0 min 0,0 UV-I 0 W/m -0,1 C 0,9 C 0,0 km/h (0 Bft)
21.02.2023 06:01 1,1 C -0,6 C 94 % 1022,1 hPa 0,0 l/m 0,0 km/h (0 Bft) N 0 0 min 0,0 UV-I 0 W/m 0,2 C 1,1 C 0,0 km/h (0 Bft)
21.02.2023 06:02 1,3 C -0,6 C 94 % 1022,2 hPa 0,0 l/m 0,0 km/h (0 Bft) N 0 0 min 0,0 UV-I 0 W/m 0,4 C 1,3 C 0,0 km/h (0 Bft)
21.02.2023 06:03 1,3 C -0,6 C 94 % 1022,2 hPa 0,0 l/m 0,0 km/h (0 Bft) N 0 0 min 0,0 UV-I 0 W/m 0,4 C 1,3 C 0,0 km/h (0 Bft)
21.02.2023 06:04 1,2 C -0,6 C 94 % 1022,2 hPa 0,0 l/m 0,0 km/h (0 Bft) N 0 0 min 0,0 UV-I 0 W/m 0,3 C 1,2 C 0,0 km/h (0 Bft)
21.02.2023 06:05 1,2 C -0,6 C 94 % 1022,3 hPa 0,0 l/m 0,0 km/h (0 Bft) N 0 0 min 0,0 UV-I 0 W/m 0,3 C 1,2 C 0,0 km/h (0 Bft)
21.02.2023 06:06 1,2 C -0,6 C 94 % 1022,2 hPa 0,0 l/m 0,0 km/h (0 Bft) N 0 0 min 0,0 UV-I 0 W/m 0,3 C 1,2 C 0,0 km/h (0 Bft)
21.02.2023 06:07 1,3 C -0,6 C 94 % 1022,2 hPa 0,0 l/m 0,0 km/h (0 Bft) N 0 0 min 0,0 UV-I 0 W/m 0,4 C 1,3 C 0,0 km/h (0 Bft)
21.02.2023 06:08 1,4 C -0,6 C 94 % 1022,2 hPa 0,0 l/m 0,0 km/h (0 Bft) N 0 0 min 0,0 UV-I 0 W/m 0,5 C 1,4 C 0,0 km/h (0 Bft)
21.02.2023 06:09 1,4 C -0,6 C 94 % 1022,2 hPa 0,0 l/m 0,0 km/h (0 Bft) N 0 0 min 0,0 UV-I 0 W/m 0,5 C 1,4 C 0,0 km/h (0 Bft)
21.02.2023 06:10 1,4 C -0,6 C 94 % 1022,2 hPa 0,0 l/m 0,0 km/h (0 Bft) N 0 0 min 0,0 UV-I 0 W/m 0,5 C 1,4 C 0,0 km/h (0 Bft)
21.02.2023 06:11 1,2 C -1,1 C 94 % 1022,3 hPa 0,0 l/m 0,0 km/h (0 Bft) N 0 0 min 0,0 UV-I 0 W/m 0,3 C 1,2 C 0,0 km/h (0 Bft)
21.02.2023 06:12 1,0 C -1,1 C 93 % 1022,2 hPa 0,0 l/m 0,0 km/h (0 Bft) N 0 0 min 0,0 UV-I 0 W/m -0,0 C 1,0 C 0,0 km/h (0 Bft)
21.02.2023 06:13 0,9 C -1,1 C 93 % 1022,2 hPa 0,0 l/m 0,0 km/h (0 Bft) N 0 0 min 0,0 UV-I 0 W/m -0,1 C 0,9 C 0,0 km/h (0 Bft)
21.02.2023 06:14 0,9 C -1,1 C 93 % 1022,2 hPa 0,0 l/m 0,0 km/h (0 Bft) N 0 0 min 0,0 UV-I 0 W/m -0,1 C 0,9 C 0,0 km/h (0 Bft)
21.02.2023 06:15 0,9 C -1,1 C 93 % 1022,2 hPa 0,0 l/m 0,0 km/h (0 Bft) N 0 0 min 0,0 UV-I 0 W/m -0,1 C 0,9 C 0,0 km/h (0 Bft)
21.02.2023 06:16 0,8 C -1,1 C 93 % 1022,3 hPa 0,0 l/m 0,0 km/h (0 Bft) N 0 0 min 0,0 UV-I 0 W/m -0,2 C 0,8 C 0,0 km/h (0 Bft)
21.02.2023 06:17 0,8 C -0,6 C 93 % 1022,2 hPa 0,0 l/m 0,0 km/h (0 Bft) N 0 0 min 0,0 UV-I 0 W/m -0,2 C 0,8 C 0,0 km/h (0 Bft)
21.02.2023 06:18 0,8 C -0,6 C 93 % 1022,3 hPa 0,0 l/m 0,0 km/h (0 Bft) N 0 0 min 0,0 UV-I 0 W/m -0,2 C 0,8 C 0,0 km/h (0 Bft)
21.02.2023 06:19 0,8 C -0,6 C 93 % 1022,2 hPa 0,0 l/m 0,0 km/h (0 Bft) N 0 0 min 0,0 UV-I 0 W/m -0,2 C 0,8 C 0,0 km/h (0 Bft)
21.02.2023 06:20 0,7 C -0,6 C 93 % 1022,3 hPa 0,0 l/m 0,0 km/h (0 Bft) N 0 0 min 0,0 UV-I 0 W/m -0,3 C 0,7 C 0,0 km/h (0 Bft)
21.02.2023 06:21 0,7 C -0,6 C 93 % 1022,3 hPa 0,0 l/m 0,0 km/h (0 Bft) N 0 0 min 0,0 UV-I 0 W/m -0,3 C 0,7 C 0,0 km/h (0 Bft)
21.02.2023 06:22 0,9 C -0,6 C 93 % 1022,2 hPa 0,0 l/m 0,0 km/h (0 Bft) N 0 0 min 0,0 UV-I 0 W/m -0,1 C 0,9 C 0,0 km/h (0 Bft)
21.02.2023 06:23 1,2 C -0,6 C 94 % 1022,4 hPa 0,0 l/m 0,0 km/h (0 Bft) N 0 0 min 0,0 UV-I 0 W/m 0,3 C 1,2 C 0,0 km/h (0 Bft)
21.02.2023 06:24 1,3 C -0,6 C 94 % 1022,3 hPa 0,0 l/m 0,0 km/h (0 Bft) N 0 0 min 0,0 UV-I 0 W/m 0,4 C 1,3 C 0,0 km/h (0 Bft)
21.02.2023 06:25 1,4 C -0,6 C 94 % 1022,4 hPa 0,0 l/m 0,0 km/h (0 Bft) N 0 0 min 0,0 UV-I 0 W/m 0,5 C 1,4 C 0,0 km/h (0 Bft)
21.02.2023 06:26 1,6 C 0,0 C 94 % 1022,4 hPa 0,0 l/m 0,0 km/h (0 Bft) N 0 0 min 0,0 UV-I 0 W/m 0,7 C 1,6 C 0,0 km/h (0 Bft)
21.02.2023 06:27 1,6 C 0,0 C 94 % 1022,4 hPa 0,0 l/m 0,0 km/h (0 Bft) N 0 0 min 0,0 UV-I 0 W/m 0,7 C 1,6 C 0,0 km/h (0 Bft)
21.02.2023 06:28 1,4 C 0,0 C 94 % 1022,4 hPa 0,0 l/m 0,0 km/h (0 Bft) N 0 0 min 0,0 UV-I 0 W/m 0,5 C 1,4 C 0,0 km/h (0 Bft)
21.02.2023 06:29 1,2 C -0,6 C 94 % 1022,4 hPa 0,0 l/m 0,0 km/h (0 Bft) N 0 0 min 0,0 UV-I 0 W/m 0,3 C 1,2 C 0,0 km/h (0 Bft)
21.02.2023 06:30 1,1 C -0,6 C 93 % 1022,3 hPa 0,0 l/m 0,0 km/h (0 Bft) N 0 0 min 0,0 UV-I 0 W/m 0,1 C 1,1 C 0,0 km/h (0 Bft)
21.02.2023 06:31 0,9 C -0,6 C 93 % 1022,4 hPa 0,0 l/m 0,0 km/h (0 Bft) N 0 0 min 0,0 UV-I 0 W/m -0,1 C 0,9 C 0,0 km/h (0 Bft)
21.02.2023 06:32 0,8 C -0,6 C 93 % 1022,3 hPa 0,0 l/m 0,0 km/h (0 Bft) N 0 0 min 0,0 UV-I 0 W/m -0,2 C 0,8 C 0,0 km/h (0 Bft)
21.02.2023 06:33 0,8 C -0,6 C 93 % 1022,4 hPa 0,0 l/m 0,0 km/h (0 Bft) N 0 0 min 0,0 UV-I 0 W/m -0,2 C 0,8 C 0,0 km/h (0 Bft)
21.02.2023 06:34 0,9 C -0,6 C 93 % 1022,4 hPa 0,0 l/m 0,0 km/h (0 Bft) N 0 0 min 0,0 UV-I 0 W/m -0,1 C 0,9 C 0,0 km/h (0 Bft)
21.02.2023 06:35 1,1 C -0,6 C 94 % 1022,4 hPa 0,0 l/m 0,0 km/h (0 Bft) N 0 0 min 0,0 UV-I 0 W/m 0,2 C 1,1 C 0,0 km/h (0 Bft)
21.02.2023 06:36 1,2 C -0,6 C 94 % 1022,3 hPa 0,0 l/m 0,0 km/h (0 Bft) N 0 0 min 0,0 UV-I 0 W/m 0,3 C 1,2 C 0,0 km/h (0 Bft)
21.02.2023 06:37 1,2 C -0,6 C 94 % 1022,4 hPa 0,0 l/m 0,0 km/h (0 Bft) N 0 0 min 0,0 UV-I 0 W/m 0,3 C 1,2 C 0,0 km/h (0 Bft)
21.02.2023 06:38 1,3 C -0,6 C 94 % 1022,4 hPa 0,0 l/m 0,0 km/h (0 Bft) N 0 0 min 0,0 UV-I 0 W/m 0,4 C 1,3 C 0,0 km/h (0 Bft)
21.02.2023 06:39 1,3 C -0,6 C 94 % 1022,4 hPa 0,0 l/m 0,0 km/h (0 Bft) N 0 0 min 0,0 UV-I 0 W/m 0,4 C 1,3 C 0,0 km/h (0 Bft)
21.02.2023 06:40 1,3 C -0,6 C 94 % 1022,4 hPa 0,0 l/m 0,0 km/h (0 Bft) N 0 0 min 0,0 UV-I 0 W/m 0,4 C 1,3 C 0,0 km/h (0 Bft)
21.02.2023 06:41 1,3 C -0,6 C 94 % 1022,5 hPa 0,0 l/m 0,0 km/h (0 Bft) N 0 0 min 0,0 UV-I 0 W/m 0,4 C 1,3 C 0,0 km/h (0 Bft)
21.02.2023 06:42 1,3 C -0,6 C 94 % 1022,5 hPa 0,0 l/m 0,0 km/h (0 Bft) N 0 0 min 0,0 UV-I 0 W/m 0,4 C 1,3 C 0,0 km/h (0 Bft)
21.02.2023 06:43 1,3 C -0,6 C 94 % 1022,4 hPa 0,0 l/m 0,0 km/h (0 Bft) N 0 0 min 0,0 UV-I 0 W/m 0,4 C 1,3 C 0,0 km/h (0 Bft)
21.02.2023 06:44 1,3 C -0,6 C 94 % 1022,5 hPa 0,0 l/m 0,0 km/h (0 Bft) N 0 0 min 0,0 UV-I 0 W/m 0,4 C 1,3 C 0,0 km/h (0 Bft)
21.02.2023 06:45 1,1 C -0,6 C 94 % 1022,4 hPa 0,0 l/m 0,0 km/h (0 Bft) N 0 0 min 0,0 UV-I 0 W/m 0,2 C 1,1 C 0,0 km/h (0 Bft)
21.02.2023 06:46 0,9 C -0,6 C 93 % 1022,4 hPa 0,0 l/m 0,0 km/h (0 Bft) N 0 0 min 0,0 UV-I 0 W/m -0,1 C 0,9 C 0,0 km/h (0 Bft)
21.02.2023 06:47 0,8 C -0,6 C 93 % 1022,4 hPa 0,0 l/m 0,0 km/h (0 Bft) N 0 0 min 0,0 UV-I 0 W/m -0,2 C 0,8 C 0,0 km/h (0 Bft)
21.02.2023 06:48 0,8 C -0,6 C 94 % 1022,4 hPa 0,0 l/m 0,0 km/h (0 Bft) N 0 0 min 0,0 UV-I 0 W/m -0,1 C 0,8 C 0,0 km/h (0 Bft)
21.02.2023 06:49 1,0 C -0,6 C 94 % 1022,4 hPa 0,0 l/m 0,0 km/h (0 Bft) N 0 0 min 0,0 UV-I 0 W/m 0,1 C 1,0 C 0,0 km/h (0 Bft)
21.02.2023 06:50 1,1 C -0,6 C 94 % 1022,5 hPa 0,0 l/m 0,0 km/h (0 Bft) N 0 0 min 0,0 UV-I 0 W/m 0,2 C 1,1 C 0,0 km/h (0 Bft)
21.02.2023 06:51 1,2 C -0,6 C 94 % 1022,2 hPa 0,0 l/m 0,0 km/h (0 Bft) N 0 0 min 0,0 UV-I 0 W/m 0,3 C 1,2 C 0,0 km/h (0 Bft)
21.02.2023 06:52 1,2 C -0,6 C 94 % 1022,4 hPa 0,0 l/m 0,0 km/h (0 Bft) N 0 0 min 0,0 UV-I 0 W/m 0,3 C 1,2 C 0,0 km/h (0 Bft)
21.02.2023 06:53 1,3 C -0,6 C 94 % 1022,4 hPa 0,0 l/m 0,0 km/h (0 Bft) N 0 0 min 0,0 UV-I 0 W/m 0,4 C 1,3 C 0,0 km/h (0 Bft)
21.02.2023 06:54 1,1 C -0,6 C 94 % 1022,4 hPa 0,0 l/m 0,0 km/h (0 Bft) N 0 0 min 0,0 UV-I 0 W/m 0,2 C 1,1 C 0,0 km/h (0 Bft)
21.02.2023 06:55 1,1 C -0,6 C 94 % 1022,4 hPa 0,0 l/m 0,0 km/h (0 Bft) N 0 0 min 0,0 UV-I 0 W/m 0,2 C 1,1 C 0,0 km/h (0 Bft)
21.02.2023 06:56 1,0 C -0,6 C 94 % 1022,4 hPa 0,0 l/m 0,0 km/h (0 Bft) N 0 0 min 0,0 UV-I 0 W/m 0,1 C 1,0 C 0,0 km/h (0 Bft)
21.02.2023 06:57 1,1 C -0,6 C 94 % 1022,4 hPa 0,0 l/m 0,0 km/h (0 Bft) N 0 0 min 0,0 UV-I 0 W/m 0,2 C 1,1 C 0,0 km/h (0 Bft)
21.02.2023 06:58 1,1 C -0,6 C 94 % 1022,3 hPa 0,0 l/m 0,0 km/h (0 Bft) N 0 0 min 0,0 UV-I 0 W/m 0,2 C 1,1 C 0,0 km/h (0 Bft)
21.02.2023 06:59 0,9 C -1,1 C 94 % 1022,5 hPa 0,0 l/m 0,0 km/h (0 Bft) N 0 0 min 0,0 UV-I 0 W/m 0,0 C 0,9 C 0,0 km/h (0 Bft)
21.02.2023 07:00 0,7 C -1,1 C 93 % 1022,4 hPa 0,0 l/m 0,0 km/h (0 Bft) N 0 0 min 0,0 UV-I 0 W/m -0,3 C 0,7 C 0,0 km/h (0 Bft)
21.02.2023 07:01 0,6 C -1,1 C 93 % 1022,3 hPa 0,0 l/m 0,0 km/h (0 Bft) N 0 0 min 0,0 UV-I 0 W/m -0,4 C 0,6 C 0,0 km/h (0 Bft)
21.02.2023 07:02 0,4 C -1,1 C 93 % 1022,5 hPa 0,0 l/m 0,0 km/h (0 Bft) N 0 0 min 0,0 UV-I 0 W/m -0,6 C 0,4 C 0,0 km/h (0 Bft)
21.02.2023 07:03 0,4 C -1,1 C 93 % 1022,5 hPa 0,0 l/m 0,0 km/h (0 Bft) N 0 0 min 0,0 UV-I 0 W/m -0,6 C 0,4 C 0,0 km/h (0 Bft)
21.02.2023 07:04 0,3 C -1,1 C 93 % 1022,5 hPa 0,0 l/m 0,0 km/h (0 Bft) N 0 0 min 0,0 UV-I 0 W/m -0,7 C 0,3 C 0,0 km/h (0 Bft)
21.02.2023 07:05 0,3 C -1,1 C 93 % 1022,5 hPa 0,0 l/m 0,0 km/h (0 Bft) N 0 0 min 0,0 UV-I 0 W/m -0,7 C 0,3 C 0,0 km/h (0 Bft)
21.02.2023 07:06 0,2 C -1,1 C 93 % 1022,4 hPa 0,0 l/m 0,0 km/h (0 Bft) N 0 0 min 0,0 UV-I 0 W/m -0,8 C 0,2 C 0,0 km/h (0 Bft)
21.02.2023 07:07 0,2 C -1,1 C 93 % 1022,4 hPa 0,0 l/m 0,0 km/h (0 Bft) N 0 0 min 0,0 UV-I 0 W/m -0,8 C 0,2 C 0,0 km/h (0 Bft)
21.02.2023 07:08 0,1 C -1,1 C 93 % 1022,4 hPa 0,0 l/m 0,0 km/h (0 Bft) N 0 0 min 0,0 UV-I 0 W/m -0,9 C 0,1 C 0,0 km/h (0 Bft)
21.02.2023 07:09 0,1 C -1,1 C 93 % 1022,4 hPa 0,0 l/m 0,0 km/h (0 Bft) N 0 0 min 0,0 UV-I 0 W/m -0,9 C 0,1 C 0,0 km/h (0 Bft)
21.02.2023 07:10 0,0 C -1,1 C 93 % 1022,4 hPa 0,0 l/m 0,0 km/h (0 Bft) N 0 0 min 0,0 UV-I 0 W/m -1,0 C 0,0 C 0,0 km/h (0 Bft)
21.02.2023 07:11 0,0 C -1,7 C 93 % 1022,5 hPa 0,0 l/m 0,0 km/h (0 Bft) N 0 0 min 0,0 UV-I 0 W/m -1,0 C 0,0 C 0,0 km/h (0 Bft)
21.02.2023 07:12 0,0 C -1,1 C 94 % 1022,4 hPa 0,0 l/m 0,0 km/h (0 Bft) N 0 0 min 0,0 UV-I 0 W/m -0,8 C 0,0 C 0,0 km/h (0 Bft)
21.02.2023 07:13 0,0 C -1,1 C 94 % 1022,5 hPa 0,0 l/m 0,0 km/h (0 Bft) N 0 0 min 0,0 UV-I 0 W/m -0,8 C 0,0 C 0,0 km/h (0 Bft)
21.02.2023 07:14 0,0 C -1,1 C 94 % 1022,4 hPa 0,0 l/m 0,0 km/h (0 Bft) N 0 0 min 0,0 UV-I 0 W/m -0,8 C 0,0 C 0,0 km/h (0 Bft)
21.02.2023 07:15 -0,1 C -1,1 C 94 % 1022,5 hPa 0,0 l/m 0,0 km/h (0 Bft) N 0 0 min 0,0 UV-I 0 W/m -0,9 C -0,1 C 0,0 km/h (0 Bft)
21.02.2023 07:16 -0,1 C -1,1 C 94 % 1022,5 hPa 0,0 l/m 0,0 km/h (0 Bft) N 0 0 min 0,0 UV-I 0 W/m -0,9 C -0,1 C 0,0 km/h (0 Bft)
21.02.2023 07:17 -0,1 C -1,1 C 94 % 1022,4 hPa 0,0 l/m 0,0 km/h (0 Bft) N 0 0 min 0,0 UV-I 0 W/m -0,9 C -0,1 C 0,0 km/h (0 Bft)
21.02.2023 07:18 -0,1 C -1,7 C 94 % 1022,5 hPa 0,0 l/m 0,0 km/h (0 Bft) N 0 0 min 0,0 UV-I 0 W/m -0,9 C -0,1 C 0,0 km/h (0 Bft)
21.02.2023 07:19 -0,1 C -1,7 C 93 % 1022,5 hPa 0,0 l/m 0,0 km/h (0 Bft) N 0 0 min 0,0 UV-I 0 W/m -1,1 C -0,1 C 0,0 km/h (0 Bft)
21.02.2023 07:20 -0,1 C -1,7 C 93 % 1022,4 hPa 0,0 l/m 0,0 km/h (0 Bft) N 0 0 min 0,0 UV-I 0 W/m -1,1 C -0,1 C 0,0 km/h (0 Bft)
21.02.2023 07:21 -0,1 C -1,7 C 94 % 1022,5 hPa 0,0 l/m 0,0 km/h (0 Bft) N 0 0 min 0,0 UV-I 0 W/m -0,9 C -0,1 C 0,0 km/h (0 Bft)
21.02.2023 07:22 -0,1 C -1,7 C 94 % 1022,6 hPa 0,0 l/m 0,0 km/h (0 Bft) N 0 0 min 0,0 UV-I 0 W/m -0,9 C -0,1 C 0,0 km/h (0 Bft)
21.02.2023 07:23 -0,1 C -1,7 C 94 % 1022,5 hPa 0,0 l/m 0,0 km/h (0 Bft) N 0 0 min 0,0 UV-I 0 W/m -0,9 C -0,1 C 0,0 km/h (0 Bft)
21.02.2023 07:24 -0,2 C -1,7 C 93 % 1022,4 hPa 0,0 l/m 0,0 km/h (0 Bft) N 0 0 min 0,0 UV-I 0 W/m -1,2 C -0,2 C 0,0 km/h (0 Bft)
21.02.2023 07:25 -0,2 C -1,7 C 93 % 1022,6 hPa 0,0 l/m 0,0 km/h (0 Bft) N 0 0 min 0,0 UV-I 0 W/m -1,2 C -0,2 C 0,0 km/h (0 Bft)
21.02.2023 07:26 -0,2 C -1,7 C 93 % 1022,6 hPa 0,0 l/m 0,0 km/h (0 Bft) N 0 0 min 0,0 UV-I 0 W/m -1,2 C -0,2 C 0,0 km/h (0 Bft)
21.02.2023 07:27 -0,3 C -1,7 C 93 % 1022,5 hPa 0,0 l/m 0,0 km/h (0 Bft) N 0 0 min 0,0 UV-I 0 W/m -1,3 C -0,3 C 0,0 km/h (0 Bft)
21.02.2023 07:28 -0,3 C -1,1 C 93 % 1022,6 hPa 0,0 l/m 0,0 km/h (0 Bft) N 0 0 min 0,0 UV-I 0 W/m -1,3 C -0,3 C 0,0 km/h (0 Bft)
21.02.2023 07:29 -0,3 C -1,7 C 93 % 1022,5 hPa 0,0 l/m 0,0 km/h (0 Bft) N 0 0 min 0,0 UV-I 0 W/m -1,3 C -0,3 C 0,0 km/h (0 Bft)
21.02.2023 07:30 -0,3 C -1,7 C 93 % 1022,5 hPa 0,0 l/m 0,0 km/h (0 Bft) N 0 0 min 0,0 UV-I 0 W/m -1,3 C -0,3 C 0,0 km/h (0 Bft)
21.02.2023 07:31 -0,3 C -1,1 C 93 % 1022,5 hPa 0,0 l/m 0,0 km/h (0 Bft) N 0 0 min 0,0 UV-I 0 W/m -1,3 C -0,3 C 0,0 km/h (0 Bft)
21.02.2023 07:32 -0,3 C -1,1 C 93 % 1022,4 hPa 0,0 l/m 0,0 km/h (0 Bft) N 0 0 min 0,0 UV-I 0 W/m -1,3 C -0,3 C 0,0 km/h (0 Bft)
21.02.2023 07:33 -0,3 C -1,7 C 93 % 1022,5 hPa 0,0 l/m 0,0 km/h (0 Bft) N 0 0 min 0,0 UV-I 0 W/m -1,3 C -0,3 C 0,0 km/h (0 Bft)
21.02.2023 07:34 -0,3 C -1,7 C 94 % 1022,5 hPa 0,0 l/m 0,0 km/h (0 Bft) N 0 0 min 0,0 UV-I 0 W/m -1,1 C -0,3 C 0,0 km/h (0 Bft)
21.02.2023 07:35 -0,3 C -1,7 C 94 % 1022,5 hPa 0,0 l/m 0,0 km/h (0 Bft) N 0 0 min 0,0 UV-I 5 W/m -1,1 C -0,3 C 0,0 km/h (0 Bft)
21.02.2023 07:36 -0,3 C -1,7 C 94 % 1022,5 hPa 0,0 l/m 0,0 km/h (0 Bft) N 0 0 min 0,0 UV-I 5 W/m -1,1 C -0,3 C 0,0 km/h (0 Bft)
21.02.2023 07:37 -0,4 C -1,7 C 94 % 1022,5 hPa 0,0 l/m 0,0 km/h (0 Bft) N 0 0 min 0,0 UV-I 5 W/m -1,2 C -0,4 C 0,0 km/h (0 Bft)
21.02.2023 07:38 -0,4 C -1,7 C 94 % 1022,5 hPa 0,0 l/m 0,0 km/h (0 Bft) N 0 0 min 0,0 UV-I 5 W/m -1,2 C -0,4 C 0,0 km/h (0 Bft)
21.02.2023 07:39 -0,4 C -1,7 C 94 % 1022,5 hPa 0,0 l/m 0,0 km/h (0 Bft) N 0 0 min 0,0 UV-I 5 W/m -1,2 C -0,4 C 0,0 km/h (0 Bft)
21.02.2023 07:40 -0,4 C -1,7 C 94 % 1022,5 hPa 0,0 l/m 0,0 km/h (0 Bft) N 0 0 min 0,0 UV-I 5 W/m -1,2 C -0,4 C 0,0 km/h (0 Bft)
21.02.2023 07:41 -0,4 C -1,7 C 94 % 1022,5 hPa 0,0 l/m 0,0 km/h (0 Bft) N 0 0 min 0,0 UV-I 7 W/m -1,2 C -0,4 C 0,0 km/h (0 Bft)
21.02.2023 07:42 -0,5 C -1,7 C 94 % 1022,5 hPa 0,0 l/m 0,0 km/h (0 Bft) N 0 0 min 0,0 UV-I 7 W/m -1,3 C -0,5 C 0,0 km/h (0 Bft)
21.02.2023 07:43 -0,6 C -1,7 C 93 % 1022,5 hPa 0,0 l/m 0,0 km/h (0 Bft) N 0 0 min 0,0 UV-I 8 W/m -1,6 C -0,6 C 0,0 km/h (0 Bft)
21.02.2023 07:44 -0,6 C -1,1 C 93 % 1022,5 hPa 0,0 l/m 0,0 km/h (0 Bft) N 0 0 min 0,0 UV-I 9 W/m -1,6 C -0,6 C 0,0 km/h (0 Bft)
21.02.2023 07:45 -0,6 C -1,1 C 93 % 1022,5 hPa 0,0 l/m 0,0 km/h (0 Bft) N 0 0 min 0,0 UV-I 9 W/m -1,6 C -0,6 C 0,0 km/h (0 Bft)
21.02.2023 07:46 -0,6 C -1,7 C 93 % 1022,5 hPa 0,0 l/m 0,0 km/h (0 Bft) N 0 0 min 0,0 UV-I 11 W/m -1,6 C -0,6 C 0,0 km/h (0 Bft)
21.02.2023 07:47 -0,5 C -1,1 C 94 % 1022,5 hPa 0,0 l/m 0,0 km/h (0 Bft) N 0 0 min 0,0 UV-I 11 W/m -1,3 C -0,5 C 0,0 km/h (0 Bft)
21.02.2023 07:48 -0,5 C -1,1 C 94 % 1022,5 hPa 0,0 l/m 0,0 km/h (0 Bft) N 0 0 min 0,0 UV-I 11 W/m -1,3 C -0,5 C 0,0 km/h (0 Bft)
21.02.2023 07:49 -0,5 C -1,1 C 94 % 1022,5 hPa 0,0 l/m 0,0 km/h (0 Bft) N 0 0 min 0,0 UV-I 12 W/m -1,3 C -0,5 C 0,0 km/h (0 Bft)
21.02.2023 07:50 -0,5 C -1,1 C 94 % 1022,6 hPa 0,0 l/m 0,0 km/h (0 Bft) N 0 0 min 0,0 UV-I 14 W/m -1,3 C -0,5 C 0,0 km/h (0 Bft)
21.02.2023 07:51 -0,6 C -1,1 C 94 % 1022,6 hPa 0,0 l/m 0,0 km/h (0 Bft) N 0 0 min 0,0 UV-I 14 W/m -1,4 C -0,6 C 0,0 km/h (0 Bft)
21.02.2023 07:52 -0,6 C -1,1 C 94 % 1022,5 hPa 0,0 l/m 0,0 km/h (0 Bft) N 0 0 min 0,0 UV-I 16 W/m -1,4 C -0,6 C 0,0 km/h (0 Bft)
21.02.2023 07:53 -0,7 C -1,1 C 93 % 1022,6 hPa 0,0 l/m 0,0 km/h (0 Bft) N 0 0 min 0,0 UV-I 16 W/m -1,7 C -0,7 C 0,0 km/h (0 Bft)
21.02.2023 07:54 -0,6 C -1,1 C 94 % 1022,6 hPa 0,0 l/m 0,0 km/h (0 Bft) N 0 0 min 0,0 UV-I 18 W/m -1,4 C -0,6 C 0,0 km/h (0 Bft)
21.02.2023 07:55 -0,7 C -1,7 C 94 % 1022,5 hPa 0,0 l/m 0,0 km/h (0 Bft) N 0 0 min 0,0 UV-I 19 W/m -1,5 C -0,7 C 0,0 km/h (0 Bft)
21.02.2023 07:56 -0,7 C -1,7 C 94 % 1022,5 hPa 0,0 l/m 0,0 km/h (0 Bft) N 0 0 min 0,0 UV-I 21 W/m -1,5 C -0,7 C 0,0 km/h (0 Bft)
21.02.2023 07:57 -0,6 C -1,1 C 94 % 1022,5 hPa 0,0 l/m 0,0 km/h (0 Bft) N 0 0 min 0,0 UV-I 23 W/m -1,4 C -0,6 C 0,0 km/h (0 Bft)
21.02.2023 07:58 -0,6 C -1,1 C 94 % 1022,6 hPa 0,0 l/m 0,0 km/h (0 Bft) N 0 0 min 0,0 UV-I 25 W/m -1,4 C -0,6 C 0,0 km/h (0 Bft)
21.02.2023 07:59 -0,6 C -1,1 C 94 % 1022,6 hPa 0,0 l/m 0,0 km/h (0 Bft) N 0 0 min 0,0 UV-I 25 W/m -1,4 C -0,6 C 0,0 km/h (0 Bft)
21.02.2023 08:00 -0,6 C -1,1 C 94 % 1022,5 hPa 0,0 l/m 0,0 km/h (0 Bft) N 0 0 min 0,0 UV-I 27 W/m -1,4 C -0,6 C 0,0 km/h (0 Bft)
21.02.2023 08:01 -0,6 C -1,1 C 94 % 1022,5 hPa 0,0 l/m 0,0 km/h (0 Bft) N 0 0 min 0,0 UV-I 28 W/m -1,4 C -0,6 C 0,0 km/h (0 Bft)
21.02.2023 08:02 -0,6 C -1,1 C 94 % 1022,6 hPa 0,0 l/m 0,0 km/h (0 Bft) N 0 0 min 0,0 UV-I 30 W/m -1,4 C -0,6 C 0,0 km/h (0 Bft)
21.02.2023 08:03 -0,5 C -1,1 C 94 % 1022,5 hPa 0,0 l/m 0,0 km/h (0 Bft) N 0 0 min 0,0 UV-I 32 W/m -1,3 C -0,5 C 0,0 km/h (0 Bft)
21.02.2023 08:04 -0,5 C -1,1 C 94 % 1022,6 hPa 0,0 l/m 0,0 km/h (0 Bft) N 0 0 min 0,0 UV-I 33 W/m -1,3 C -0,5 C 0,0 km/h (0 Bft)
21.02.2023 08:05 -0,4 C -1,1 C 94 % 1022,7 hPa 0,0 l/m 0,0 km/h (0 Bft) N 0 0 min 0,0 UV-I 35 W/m -1,2 C -0,4 C 0,0 km/h (0 Bft)
21.02.2023 08:06 -0,4 C -1,1 C 94 % 1022,5 hPa 0,0 l/m 0,0 km/h (0 Bft) N 0 0 min 0,0 UV-I 38 W/m -1,2 C -0,4 C 0,0 km/h (0 Bft)
21.02.2023 08:07 -0,4 C -1,1 C 94 % 1022,6 hPa 0,0 l/m 0,0 km/h (0 Bft) N 0 0 min 0,0 UV-I 40 W/m -1,2 C -0,4 C 0,0 km/h (0 Bft)
21.02.2023 08:08 -0,4 C -1,1 C 94 % 1022,7 hPa 0,0 l/m 0,0 km/h (0 Bft) N 0 0 min 0,0 UV-I 40 W/m -1,2 C -0,4 C 0,0 km/h (0 Bft)
21.02.2023 08:09 -0,4 C -1,1 C 94 % 1022,5 hPa 0,0 l/m 0,0 km/h (0 Bft) N 0 0 min 0,0 UV-I 42 W/m -1,2 C -0,4 C 0,0 km/h (0 Bft)
21.02.2023 08:10 -0,5 C -0,6 C 94 % 1022,6 hPa 0,0 l/m 0,0 km/h (0 Bft) N 0 0 min 0,0 UV-I 44 W/m -1,3 C -0,5 C 0,0 km/h (0 Bft)
21.02.2023 08:11 -0,4 C -0,6 C 94 % 1022,6 hPa 0,0 l/m 0,0 km/h (0 Bft) N 0 0 min 0,0 UV-I 46 W/m -1,2 C -0,4 C 0,0 km/h (0 Bft)
21.02.2023 08:12 -0,4 C -0,6 C 94 % 1022,6 hPa 0,0 l/m 0,0 km/h (0 Bft) N 0 0 min 0,0 UV-I 48 W/m -1,2 C -0,4 C 0,0 km/h (0 Bft)
21.02.2023 08:13 -0,3 C -0,6 C 94 % 1022,6 hPa 0,0 l/m 0,0 km/h (0 Bft) N 0 0 min 0,0 UV-I 51 W/m -1,1 C -0,3 C 0,0 km/h (0 Bft)
21.02.2023 08:14 -0,3 C -0,6 C 94 % 1022,7 hPa 0,0 l/m 0,0 km/h (0 Bft) N 0 0 min 0,0 UV-I 53 W/m -1,1 C -0,3 C 0,0 km/h (0 Bft)
21.02.2023 08:15 -0,3 C -0,6 C 94 % 1022,6 hPa 0,0 l/m 0,0 km/h (0 Bft) N 0 0 min 0,0 UV-I 53 W/m -1,1 C -0,3 C 0,0 km/h (0 Bft)
21.02.2023 08:16 -0,2 C -0,6 C 94 % 1022,7 hPa 0,0 l/m 0,0 km/h (0 Bft) N 0 0 min 0,0 UV-I 54 W/m -1,0 C -0,2 C 0,0 km/h (0 Bft)
21.02.2023 08:17 -0,3 C -0,6 C 94 % 1022,6 hPa 0,0 l/m 0,0 km/h (0 Bft) N 0 0 min 0,0 UV-I 54 W/m -1,1 C -0,3 C 0,0 km/h (0 Bft)
21.02.2023 08:18 -0,3 C -0,6 C 94 % 1022,6 hPa 0,0 l/m 0,0 km/h (0 Bft) N 0 0 min 0,0 UV-I 58 W/m -1,1 C -0,3 C 0,0 km/h (0 Bft)
21.02.2023 08:19 -0,3 C -0,6 C 94 % 1022,7 hPa 0,0 l/m 0,0 km/h (0 Bft) N 0 0 min 0,0 UV-I 49 W/m -1,1 C -0,3 C 0,0 km/h (0 Bft)
21.02.2023 08:20 -0,3 C 0,0 C 94 % 1022,6 hPa 0,0 l/m 0,0 km/h (0 Bft) N 0 0 min 0,0 UV-I 46 W/m -1,1 C -0,3 C 0,0 km/h (0 Bft)
21.02.2023 08:21 -0,3 C 0,0 C 94 % 1022,7 hPa 0,0 l/m 0,0 km/h (0 Bft) N 0 0 min 0,0 UV-I 42 W/m -1,1 C -0,3 C 0,0 km/h (0 Bft)
21.02.2023 08:22 -0,3 C 0,0 C 94 % 1022,7 hPa 0,0 l/m 0,0 km/h (0 Bft) N 0 0 min 0,0 UV-I 39 W/m -1,1 C -0,3 C 0,0 km/h (0 Bft)
21.02.2023 08:23 -0,2 C 0,0 C 94 % 1022,6 hPa 0,0 l/m 1,6 km/h (1 Bft) S-SW 202 0 min 0,0 UV-I 37 W/m -1,0 C -0,2 C 4,8 km/h (1 Bft)
21.02.2023 08:24 -0,2 C 0,0 C 94 % 1022,7 hPa 0,0 l/m 3,2 km/h (1 Bft) S-SW 202 0 min 0,0 UV-I 33 W/m -1,0 C -0,2 C 3,2 km/h (1 Bft)
21.02.2023 08:25 -0,1 C 0,0 C 94 % 1022,6 hPa 0,0 l/m 3,2 km/h (1 Bft) S-SW 202 0 min 0,0 UV-I 32 W/m -0,9 C -0,1 C 4,8 km/h (1 Bft)
21.02.2023 08:26 0,0 C 0,0 C 94 % 1022,7 hPa 0,0 l/m 3,2 km/h (1 Bft) S-SW 202 0 min 0,0 UV-I 33 W/m -0,8 C 0,0 C 4,8 km/h (1 Bft)
21.02.2023 08:27 0,1 C 0,0 C 94 % 1022,6 hPa 0,0 l/m 3,2 km/h (1 Bft) S-SW 202 0 min 0,0 UV-I 35 W/m -0,7 C 0,1 C 3,2 km/h (1 Bft)
21.02.2023 08:28 0,1 C 0,0 C 94 % 1022,6 hPa 0,0 l/m 1,6 km/h (1 Bft) S-SW 202 0 min 0,0 UV-I 33 W/m -0,7 C 0,1 C 3,2 km/h (1 Bft)
21.02.2023 08:29 0,2 C 0,0 C 94 % 1022,6 hPa 0,0 l/m 0,0 km/h (0 Bft) S-SW 202 0 min 0,0 UV-I 35 W/m -0,6 C 0,2 C 1,6 km/h (1 Bft)
21.02.2023 08:30 0,2 C 0,0 C 94 % 1022,6 hPa 0,0 l/m 0,0 km/h (0 Bft) S-SW 202 0 min 0,0 UV-I 35 W/m -0,6 C 0,2 C 3,2 km/h (1 Bft)
21.02.2023 08:31 0,3 C 0,0 C 94 % 1022,6 hPa 0,0 l/m 0,0 km/h (0 Bft) S-SW 202 0 min 0,0 UV-I 39 W/m -0,5 C 0,3 C 1,6 km/h (1 Bft)
21.02.2023 08:32 0,3 C 0,0 C 94 % 1022,7 hPa 0,0 l/m 0,0 km/h (0 Bft) N 0 0 min 0,0 UV-I 42 W/m -0,5 C 0,3 C 0,0 km/h (0 Bft)
21.02.2023 08:33 0,3 C 0,0 C 94 % 1022,6 hPa 0,0 l/m 0,0 km/h (0 Bft) S-SW 202 0 min 0,0 UV-I 42 W/m -0,5 C 0,3 C 1,6 km/h (1 Bft)
21.02.2023 08:34 0,3 C 0,0 C 94 % 1022,5 hPa 0,0 l/m 1,6 km/h (1 Bft) S-SW 202 0 min 0,0 UV-I 42 W/m -0,5 C 0,3 C 3,2 km/h (1 Bft)
21.02.2023 08:35 0,2 C 0,0 C 94 % 1022,6 hPa 0,0 l/m 1,6 km/h (1 Bft) S-SW 202 0 min 0,0 UV-I 42 W/m -0,6 C 0,2 C 3,2 km/h (1 Bft)
21.02.2023 08:36 0,2 C 0,0 C 94 % 1022,5 hPa 0,0 l/m 0,0 km/h (0 Bft) S-SW 202 0 min 0,0 UV-I 43 W/m -0,6 C 0,2 C 1,6 km/h (1 Bft)
21.02.2023 08:37 0,2 C 0,0 C 94 % 1022,6 hPa 0,0 l/m 0,0 km/h (0 Bft) N 0 0 min 0,0 UV-I 42 W/m -0,6 C 0,2 C 0,0 km/h (0 Bft)
21.02.2023 08:38 0,2 C 0,0 C 94 % 1022,6 hPa 0,0 l/m 0,0 km/h (0 Bft) N 0 0 min 0,0 UV-I 44 W/m -0,6 C 0,2 C 0,0 km/h (0 Bft)
21.02.2023 08:39 0,2 C 0,0 C 94 % 1022,6 hPa 0,0 l/m 0,0 km/h (0 Bft) N 0 0 min 0,0 UV-I 42 W/m -0,6 C 0,2 C 0,0 km/h (0 Bft)
21.02.2023 08:40 0,1 C 0,0 C 94 % 1022,6 hPa 0,0 l/m 0,0 km/h (0 Bft) N 0 0 min 0,0 UV-I 46 W/m -0,7 C 0,1 C 0,0 km/h (0 Bft)
21.02.2023 08:41 0,1 C 0,0 C 94 % 1022,6 hPa 0,0 l/m 0,0 km/h (0 Bft) N 0 0 min 0,0 UV-I 53 W/m -0,7 C 0,1 C 0,0 km/h (0 Bft)
21.02.2023 08:42 0,1 C 0,0 C 94 % 1022,5 hPa 0,0 l/m 1,6 km/h (1 Bft) S-SW 202 0 min 0,0 UV-I 56 W/m -0,7 C 0,1 C 3,2 km/h (1 Bft)
21.02.2023 08:43 0,2 C 0,0 C 94 % 1022,6 hPa 0,0 l/m 3,2 km/h (1 Bft) S-SW 202 0 min 0,0 UV-I 54 W/m -0,6 C 0,2 C 3,2 km/h (1 Bft)
21.02.2023 08:44 0,2 C 0,0 C 94 % 1022,6 hPa 0,0 l/m 1,6 km/h (1 Bft) S-SW 202 0 min 0,0 UV-I 56 W/m -0,6 C 0,2 C 3,2 km/h (1 Bft)
21.02.2023 08:45 0,3 C 0,0 C 94 % 1022,5 hPa 0,0 l/m 1,6 km/h (1 Bft) S-SW 202 0 min 0,0 UV-I 56 W/m -0,5 C 0,3 C 3,2 km/h (1 Bft)
21.02.2023 08:46 0,3 C 0,0 C 94 % 1022,6 hPa 0,0 l/m 1,6 km/h (1 Bft) S-SW 202 0 min 0,0 UV-I 58 W/m -0,5 C 0,3 C 3,2 km/h (1 Bft)
21.02.2023 08:47 0,3 C 0,0 C 94 % 1022,5 hPa 0,0 l/m 0,0 km/h (0 Bft) S-SW 202 0 min 0,0 UV-I 68 W/m -0,5 C 0,3 C 1,6 km/h (1 Bft)
21.02.2023 08:48 0,4 C 0,0 C 94 % 1022,5 hPa 0,0 l/m 0,0 km/h (0 Bft) N 0 0 min 0,0 UV-I 69 W/m -0,5 C 0,4 C 0,0 km/h (0 Bft)
21.02.2023 08:49 0,3 C 0,0 C 94 % 1022,5 hPa 0,0 l/m 0,0 km/h (0 Bft) S-SW 202 0 min 0,0 UV-I 67 W/m -0,5 C 0,3 C 1,6 km/h (1 Bft)
21.02.2023 08:50 0,3 C 0,0 C 94 % 1022,5 hPa 0,0 l/m 1,6 km/h (1 Bft) S-SW 202 0 min 0,0 UV-I 72 W/m -0,5 C 0,3 C 3,2 km/h (1 Bft)
21.02.2023 08:51 0,3 C 0,6 C 94 % 1022,4 hPa 0,0 l/m 3,2 km/h (1 Bft) S-SW 202 0 min 0,0 UV-I 79 W/m -0,5 C 0,3 C 3,2 km/h (1 Bft)
21.02.2023 08:52 0,3 C 0,6 C 94 % 1022,5 hPa 0,0 l/m 3,2 km/h (1 Bft) S-SW 202 0 min 0,0 UV-I 79 W/m -0,5 C 0,3 C 3,2 km/h (1 Bft)
21.02.2023 08:53 0,4 C 0,6 C 94 % 1022,5 hPa 0,0 l/m 3,2 km/h (1 Bft) S-SW 202 0 min 0,0 UV-I 77 W/m -0,5 C 0,4 C 3,2 km/h (1 Bft)
21.02.2023 08:54 0,6 C 0,6 C 94 % 1022,4 hPa 0,0 l/m 1,6 km/h (1 Bft) S-SW 202 0 min 0,0 UV-I 79 W/m -0,3 C 0,6 C 3,2 km/h (1 Bft)
21.02.2023 08:55 0,6 C 0,6 C 94 % 1022,5 hPa 0,0 l/m 1,6 km/h (1 Bft) S-SW 202 0 min 0,0 UV-I 81 W/m -0,3 C 0,6 C 1,6 km/h (1 Bft)
21.02.2023 08:56 0,7 C 0,6 C 94 % 1022,4 hPa 0,0 l/m 1,6 km/h (1 Bft) S-SW 202 0 min 0,0 UV-I 81 W/m -0,2 C 0,7 C 3,2 km/h (1 Bft)
21.02.2023 08:57 0,8 C 1,1 C 94 % 1022,4 hPa 0,0 l/m 1,6 km/h (1 Bft) S-SW 202 0 min 0,0 UV-I 77 W/m -0,1 C 0,8 C 3,2 km/h (1 Bft)
21.02.2023 08:58 0,9 C 1,1 C 95 % 1022,4 hPa 0,0 l/m 1,6 km/h (1 Bft) S-SW 202 0 min 0,0 UV-I 76 W/m 0,2 C 0,9 C 1,6 km/h (1 Bft)
21.02.2023 08:59 1,0 C 1,7 C 95 % 1022,4 hPa 0,0 l/m 0,0 km/h (0 Bft) S-SW 202 0 min 0,0 UV-I 61 W/m 0,3 C 1,0 C 1,6 km/h (1 Bft)
21.02.2023 09:00 1,1 C 1,1 C 94 % 1022,5 hPa 0,0 l/m 0,0 km/h (0 Bft) S-SW 202 0 min 0,0 UV-I 53 W/m 0,2 C 1,1 C 1,6 km/h (1 Bft)
21.02.2023 09:01 1,1 C 1,1 C 94 % 1022,5 hPa 0,0 l/m 1,6 km/h (1 Bft) S-SW 202 0 min 0,0 UV-I 47 W/m 0,2 C 1,1 C 3,2 km/h (1 Bft)
21.02.2023 09:02 1,2 C 1,7 C 95 % 1022,5 hPa 0,0 l/m 1,6 km/h (1 Bft) S-SW 202 0 min 0,0 UV-I 54 W/m 0,5 C 1,2 C 3,2 km/h (1 Bft)
21.02.2023 09:03 1,2 C 1,7 C 95 % 1022,4 hPa 0,0 l/m 1,6 km/h (1 Bft) S-SW 202 0 min 0,0 UV-I 62 W/m 0,5 C 1,2 C 3,2 km/h (1 Bft)
21.02.2023 09:04 1,3 C 1,7 C 95 % 1022,5 hPa 0,0 l/m 0,0 km/h (0 Bft) S-SW 202 0 min 0,0 UV-I 65 W/m 0,6 C 1,3 C 1,6 km/h (1 Bft)
21.02.2023 09:05 1,3 C 1,7 C 95 % 1022,4 hPa 0,0 l/m 1,6 km/h (1 Bft) S-SW 202 0 min 0,0 UV-I 62 W/m 0,6 C 1,3 C 3,2 km/h (1 Bft)
21.02.2023 09:06 1,3 C 1,7 C 95 % 1022,5 hPa 0,0 l/m 3,2 km/h (1 Bft) S-SW 202 0 min 0,0 UV-I 56 W/m 0,6 C 1,3 C 4,8 km/h (1 Bft)
21.02.2023 09:07 1,3 C 1,7 C 95 % 1022,5 hPa 0,0 l/m 3,2 km/h (1 Bft) S-SW 202 0 min 0,0 UV-I 62 W/m 0,6 C 1,3 C 4,8 km/h (1 Bft)
21.02.2023 09:08 1,4 C 1,7 C 94 % 1022,4 hPa 0,0 l/m 3,2 km/h (1 Bft) S-SW 202 0 min 0,0 UV-I 83 W/m 0,5 C 1,4 C 3,2 km/h (1 Bft)
21.02.2023 09:09 1,4 C 1,7 C 94 % 1022,4 hPa 0,0 l/m 3,2 km/h (1 Bft) S-SW 202 0 min 0,5 UV-I 97 W/m 0,5 C 1,4 C 4,8 km/h (1 Bft)
21.02.2023 09:10 1,4 C 1,7 C 94 % 1022,4 hPa 0,0 l/m 3,2 km/h (1 Bft) S-SW 202 0 min 0,5 UV-I 100 W/m 0,5 C 1,4 C 4,8 km/h (1 Bft)
21.02.2023 09:11 1,4 C 1,7 C 94 % 1022,5 hPa 0,0 l/m 4,8 km/h (1 Bft) S-SW 202 0 min 0,5 UV-I 90 W/m 0,5 C 1,4 C 8,0 km/h (2 Bft)
21.02.2023 09:12 1,6 C 2,2 C 94 % 1022,4 hPa 0,0 l/m 4,8 km/h (1 Bft) SW 225 0 min 0,5 UV-I 77 W/m 0,7 C 1,6 C 8,0 km/h (2 Bft)
21.02.2023 09:13 1,8 C 2,2 C 95 % 1022,5 hPa 0,0 l/m 6,4 km/h (2 Bft) SW 225 0 min 0,5 UV-I 90 W/m 1,1 C 1,8 C 8,0 km/h (2 Bft)
21.02.2023 09:14 1,9 C 2,2 C 95 % 1022,4 hPa 0,0 l/m 6,4 km/h (2 Bft) SW 225 0 min 0,5 UV-I 86 W/m 1,2 C 1,9 C 8,0 km/h (2 Bft)
21.02.2023 09:15 2,0 C 2,2 C 95 % 1022,4 hPa 0,0 l/m 4,8 km/h (1 Bft) SW 225 0 min 0,5 UV-I 84 W/m 1,3 C 2,0 C 6,4 km/h (2 Bft)
21.02.2023 09:16 2,1 C 2,2 C 95 % 1022,4 hPa 0,0 l/m 4,8 km/h (1 Bft) SW 225 0 min 0,5 UV-I 79 W/m 1,4 C 2,1 C 4,8 km/h (1 Bft)
21.02.2023 09:17 2,2 C 2,2 C 95 % 1022,4 hPa 0,0 l/m 4,8 km/h (1 Bft) SW 225 0 min 0,5 UV-I 77 W/m 1,5 C 2,2 C 8,0 km/h (2 Bft)
21.02.2023 09:18 2,3 C 2,2 C 95 % 1022,4 hPa 0,0 l/m 6,4 km/h (2 Bft) SW 225 0 min 0,5 UV-I 95 W/m 1,6 C 2,3 C 9,7 km/h (2 Bft)
21.02.2023 09:19 2,4 C 2,8 C 95 % 1022,4 hPa 0,0 l/m 4,8 km/h (1 Bft) SW 225 0 min 0,5 UV-I 104 W/m 1,7 C 2,4 C 8,0 km/h (2 Bft)
21.02.2023 09:20 2,4 C 2,8 C 95 % 1022,4 hPa 0,0 l/m 6,4 km/h (2 Bft) S-SW 202 0 min 0,5 UV-I 128 W/m 1,7 C 2,4 C 8,0 km/h (2 Bft)
21.02.2023 09:21 2,5 C 2,8 C 95 % 1022,4 hPa 0,0 l/m 4,8 km/h (1 Bft) S-SW 202 0 min 0,5 UV-I 100 W/m 1,8 C 2,5 C 8,0 km/h (2 Bft)
21.02.2023 09:22 2,6 C 3,3 C 95 % 1022,4 hPa 0,0 l/m 4,8 km/h (1 Bft) S-SW 202 0 min 0,5 UV-I 99 W/m 1,9 C 2,6 C 8,0 km/h (2 Bft)
21.02.2023 09:23 2,6 C 3,3 C 95 % 1022,5 hPa 0,0 l/m 6,4 km/h (2 Bft) SW 225 0 min 0,5 UV-I 88 W/m 1,9 C 2,6 C 8,0 km/h (2 Bft)
21.02.2023 09:24 2,6 C 2,8 C 95 % 1022,6 hPa 0,0 l/m 6,4 km/h (2 Bft) SW 225 0 min 0,5 UV-I 86 W/m 1,9 C 2,6 C 8,0 km/h (2 Bft)
21.02.2023 09:25 2,7 C 3,3 C 95 % 1022,5 hPa 0,0 l/m 4,8 km/h (1 Bft) S-SW 202 0 min 0,5 UV-I 84 W/m 2,0 C 2,7 C 8,0 km/h (2 Bft)
21.02.2023 09:26 2,7 C 3,3 C 95 % 1022,6 hPa 0,0 l/m 6,4 km/h (2 Bft) SW 225 0 min 0,5 UV-I 88 W/m 2,0 C 2,7 C 8,0 km/h (2 Bft)
21.02.2023 09:27 2,7 C 3,3 C 95 % 1022,5 hPa 0,0 l/m 4,8 km/h (1 Bft) SW 225 0 min 0,5 UV-I 91 W/m 2,0 C 2,7 C 8,0 km/h (2 Bft)
21.02.2023 09:28 2,7 C 3,3 C 95 % 1022,6 hPa 0,0 l/m 4,8 km/h (1 Bft) SW 225 0 min 0,5 UV-I 104 W/m 2,0 C 2,7 C 6,4 km/h (2 Bft)
21.02.2023 09:29 2,7 C 3,3 C 95 % 1022,5 hPa 0,0 l/m 6,4 km/h (2 Bft) SW 225 0 min 0,5 UV-I 105 W/m 2,0 C 2,7 C 8,0 km/h (2 Bft)
21.02.2023 09:30 2,7 C 3,3 C 95 % 1022,6 hPa 0,0 l/m 6,4 km/h (2 Bft) SW 225 0 min 0,5 UV-I 109 W/m 2,0 C 2,7 C 8,0 km/h (2 Bft)
21.02.2023 09:31 2,8 C 3,3 C 95 % 1022,5 hPa 0,0 l/m 4,8 km/h (1 Bft) SW 225 0 min 0,6 UV-I 120 W/m 2,1 C 2,8 C 6,4 km/h (2 Bft)
21.02.2023 09:32 2,8 C 3,3 C 95 % 1022,6 hPa 0,0 l/m 4,8 km/h (1 Bft) W 270 0 min 0,6 UV-I 127 W/m 2,1 C 2,8 C 6,4 km/h (2 Bft)
21.02.2023 09:33 2,8 C 3,9 C 95 % 1022,6 hPa 0,0 l/m 4,8 km/h (1 Bft) W 270 0 min 0,6 UV-I 121 W/m 2,1 C 2,8 C 6,4 km/h (2 Bft)
21.02.2023 09:34 2,9 C 3,9 C 95 % 1022,5 hPa 0,0 l/m 3,2 km/h (1 Bft) W-SW 247 0 min 0,6 UV-I 135 W/m 2,2 C 2,9 C 6,4 km/h (2 Bft)
21.02.2023 09:35 3,0 C 3,9 C 95 % 1022,5 hPa 0,0 l/m 3,2 km/h (1 Bft) W-SW 247 0 min 0,6 UV-I 149 W/m 2,3 C 3,0 C 4,8 km/h (1 Bft)
21.02.2023 09:36 3,1 C 4,4 C 95 % 1022,5 hPa 0,0 l/m 3,2 km/h (1 Bft) W-SW 247 0 min 0,6 UV-I 144 W/m 2,4 C 3,1 C 6,4 km/h (2 Bft)
21.02.2023 09:37 3,2 C 4,4 C 95 % 1022,5 hPa 0,0 l/m 3,2 km/h (1 Bft) W-SW 247 0 min 0,6 UV-I 141 W/m 2,5 C 3,2 C 3,2 km/h (1 Bft)
21.02.2023 09:38 3,1 C 4,4 C 95 % 1022,5 hPa 0,0 l/m 3,2 km/h (1 Bft) W-SW 247 0 min 0,6 UV-I 141 W/m 2,4 C 3,1 C 3,2 km/h (1 Bft)
21.02.2023 09:39 3,2 C 4,4 C 95 % 1022,5 hPa 0,0 l/m 3,2 km/h (1 Bft) W-SW 247 0 min 0,6 UV-I 128 W/m 2,5 C 3,2 C 4,8 km/h (1 Bft)
21.02.2023 09:40 3,2 C 4,4 C 95 % 1022,4 hPa 0,0 l/m 3,2 km/h (1 Bft) W-SW 247 0 min 0,6 UV-I 124 W/m 2,5 C 3,2 C 4,8 km/h (1 Bft)
21.02.2023 09:41 3,2 C 4,4 C 95 % 1022,4 hPa 0,0 l/m 3,2 km/h (1 Bft) W-SW 247 0 min 0,6 UV-I 125 W/m 2,5 C 3,2 C 4,8 km/h (1 Bft)
21.02.2023 09:42 3,3 C 4,4 C 95 % 1022,5 hPa 0,0 l/m 3,2 km/h (1 Bft) W-SW 247 0 min 0,6 UV-I 105 W/m 2,6 C 3,3 C 4,8 km/h (1 Bft)
21.02.2023 09:43 3,3 C 4,4 C 95 % 1022,4 hPa 0,0 l/m 3,2 km/h (1 Bft) W-SW 247 0 min 0,6 UV-I 113 W/m 2,6 C 3,3 C 4,8 km/h (1 Bft)
21.02.2023 09:44 3,3 C 4,4 C 95 % 1022,4 hPa 0,0 l/m 3,2 km/h (1 Bft) W-SW 247 0 min 0,6 UV-I 114 W/m 2,6 C 3,3 C 4,8 km/h (1 Bft)
21.02.2023 09:45 3,3 C 4,4 C 95 % 1022,4 hPa 0,0 l/m 3,2 km/h (1 Bft) W-SW 247 0 min 0,6 UV-I 116 W/m 2,6 C 3,3 C 4,8 km/h (1 Bft)
21.02.2023 09:46 3,3 C 4,4 C 95 % 1022,4 hPa 0,0 l/m 3,2 km/h (1 Bft) W-SW 247 0 min 0,6 UV-I 119 W/m 2,6 C 3,3 C 4,8 km/h (1 Bft)
21.02.2023 09:47 3,3 C 4,4 C 95 % 1022,3 hPa 0,0 l/m 3,2 km/h (1 Bft) SW 225 0 min 0,6 UV-I 121 W/m 2,6 C 3,3 C 8,0 km/h (2 Bft)
21.02.2023 09:48 3,3 C 4,4 C 95 % 1022,4 hPa 0,0 l/m 1,6 km/h (1 Bft) SW 225 0 min 0,6 UV-I 113 W/m 2,6 C 3,3 C 3,2 km/h (1 Bft)
21.02.2023 09:49 3,3 C 4,4 C 95 % 1022,3 hPa 0,0 l/m 4,8 km/h (1 Bft) SW 225 0 min 0,6 UV-I 118 W/m 2,6 C 3,3 C 8,0 km/h (2 Bft)
21.02.2023 09:50 3,3 C 4,4 C 95 % 1022,3 hPa 0,0 l/m 4,8 km/h (1 Bft) SW 225 0 min 0,7 UV-I 109 W/m 2,6 C 3,3 C 8,0 km/h (2 Bft)
21.02.2023 09:51 3,3 C 4,4 C 95 % 1022,4 hPa 0,0 l/m 4,8 km/h (1 Bft) SW 225 0 min 0,6 UV-I 109 W/m 2,6 C 3,3 C 6,4 km/h (2 Bft)
21.02.2023 09:52 3,3 C 4,4 C 95 % 1022,3 hPa 0,0 l/m 4,8 km/h (1 Bft) SW 225 0 min 0,6 UV-I 104 W/m 2,6 C 3,3 C 4,8 km/h (1 Bft)
21.02.2023 09:53 3,3 C 4,4 C 95 % 1022,4 hPa 0,0 l/m 4,8 km/h (1 Bft) SW 225 0 min 0,7 UV-I 105 W/m 2,6 C 3,3 C 6,4 km/h (2 Bft)
21.02.2023 09:54 3,4 C 4,4 C 95 % 1022,2 hPa 0,0 l/m 4,8 km/h (1 Bft) SW 225 0 min 0,6 UV-I 98 W/m 2,7 C 3,4 C 6,4 km/h (2 Bft)
21.02.2023 09:55 3,4 C 4,4 C 95 % 1022,3 hPa 0,0 l/m 3,2 km/h (1 Bft) SW 225 0 min 0,7 UV-I 104 W/m 2,7 C 3,4 C 4,8 km/h (1 Bft)
21.02.2023 09:56 3,4 C 4,4 C 95 % 1022,3 hPa 0,0 l/m 4,8 km/h (1 Bft) SW 225 0 min 0,7 UV-I 127 W/m 2,7 C 3,4 C 6,4 km/h (2 Bft)
21.02.2023 09:57 3,6 C 4,4 C 95 % 1022,2 hPa 0,0 l/m 3,2 km/h (1 Bft) SW 225 0 min 0,7 UV-I 142 W/m 2,9 C 3,6 C 4,8 km/h (1 Bft)
21.02.2023 09:58 3,7 C 5,0 C 95 % 1022,2 hPa 0,0 l/m 3,2 km/h (1 Bft) SW 225 0 min 0,8 UV-I 174 W/m 3,0 C 3,7 C 6,4 km/h (2 Bft)
21.02.2023 09:59 3,8 C 5,0 C 95 % 1022,2 hPa 0,0 l/m 3,2 km/h (1 Bft) SW 225 0 min 0,8 UV-I 225 W/m 3,1 C 3,8 C 4,8 km/h (1 Bft)
21.02.2023 10:00 3,9 C 5,6 C 95 % 1022,2 hPa 0,0 l/m 3,2 km/h (1 Bft) SW 225 0 min 0,9 UV-I 229 W/m 3,2 C 3,9 C 6,4 km/h (2 Bft)
21.02.2023 10:01 4,1 C 6,1 C 95 % 1022,1 hPa 0,0 l/m 4,8 km/h (1 Bft) SW 225 0 min 0,9 UV-I 230 W/m 3,4 C 4,1 C 4,8 km/h (1 Bft)
21.02.2023 10:02 4,1 C 6,1 C 95 % 1022,2 hPa 0,0 l/m 3,2 km/h (1 Bft) SW 225 1 min 0,9 UV-I 262 W/m 3,4 C 4,1 C 6,4 km/h (2 Bft)
21.02.2023 10:03 4,2 C 6,7 C 95 % 1022,1 hPa 0,0 l/m 3,2 km/h (1 Bft) W-SW 247 1 min 1,0 UV-I 261 W/m 3,5 C 4,2 C 6,4 km/h (2 Bft)
21.02.2023 10:04 4,3 C 7,2 C 95 % 1022,1 hPa 0,0 l/m 3,2 km/h (1 Bft) W-SW 247 1 min 0,9 UV-I 309 W/m 3,6 C 4,3 C 4,8 km/h (1 Bft)
21.02.2023 10:05 4,3 C 7,2 C 95 % 1022,2 hPa 0,0 l/m 3,2 km/h (1 Bft) W-SW 247 0 min 1,0 UV-I 246 W/m 3,6 C 4,3 C 4,8 km/h (1 Bft)
21.02.2023 10:06 4,3 C 7,2 C 95 % 1022,1 hPa 0,0 l/m 3,2 km/h (1 Bft) W-SW 247 0 min 1,0 UV-I 239 W/m 3,6 C 4,3 C 4,8 km/h (1 Bft)
21.02.2023 10:07 4,4 C 7,2 C 95 % 1022,1 hPa 0,0 l/m 4,8 km/h (1 Bft) W-SW 247 0 min 0,9 UV-I 230 W/m 3,7 C 4,4 C 6,4 km/h (2 Bft)
21.02.2023 10:08 4,5 C 7,8 C 95 % 1022,1 hPa 0,0 l/m 3,2 km/h (1 Bft) W-SW 247 0 min 1,0 UV-I 239 W/m 3,8 C 4,5 C 4,8 km/h (1 Bft)
21.02.2023 10:09 4,4 C 7,8 C 95 % 1022,1 hPa 0,0 l/m 4,8 km/h (1 Bft) W-SW 247 1 min 1,1 UV-I 291 W/m 3,7 C 4,4 C 6,4 km/h (2 Bft)
21.02.2023 10:10 4,6 C 8,3 C 95 % 1022,1 hPa 0,0 l/m 4,8 km/h (1 Bft) W-SW 247 0 min 1,0 UV-I 244 W/m 3,9 C 4,6 C 6,4 km/h (2 Bft)
21.02.2023 10:11 4,7 C 8,3 C 95 % 1022,0 hPa 0,0 l/m 3,2 km/h (1 Bft) W-SW 247 1 min 1,1 UV-I 297 W/m 4,0 C 4,7 C 4,8 km/h (1 Bft)
21.02.2023 10:12 4,7 C 8,9 C 95 % 1022,0 hPa 0,0 l/m 4,8 km/h (1 Bft) W 270 1 min 1,1 UV-I 264 W/m 4,0 C 4,7 C 6,4 km/h (2 Bft)
21.02.2023 10:13 4,8 C 8,9 C 95 % 1022,0 hPa 0,0 l/m 4,8 km/h (1 Bft) W 270 0 min 1,1 UV-I 213 W/m 4,1 C 4,8 C 6,4 km/h (2 Bft)
21.02.2023 10:14 4,9 C 8,9 C 95 % 1022,1 hPa 0,0 l/m 3,2 km/h (1 Bft) W 270 0 min 1,0 UV-I 192 W/m 4,2 C 4,9 C 4,8 km/h (1 Bft)
21.02.2023 10:15 4,9 C 8,9 C 95 % 1022,1 hPa 0,0 l/m 1,6 km/h (1 Bft) W 270 0 min 1,0 UV-I 165 W/m 4,2 C 4,9 C 3,2 km/h (1 Bft)
21.02.2023 10:16 4,8 C 8,3 C 95 % 1022,0 hPa 0,0 l/m 3,2 km/h (1 Bft) W 270 0 min 1,1 UV-I 192 W/m 4,1 C 4,8 C 4,8 km/h (1 Bft)
21.02.2023 10:17 4,9 C 8,9 C 95 % 1022,2 hPa 0,0 l/m 3,2 km/h (1 Bft) W 270 1 min 1,3 UV-I 294 W/m 4,2 C 4,9 C 4,8 km/h (1 Bft)
21.02.2023 10:18 4,9 C 9,4 C 95 % 1022,1 hPa 0,0 l/m 3,2 km/h (1 Bft) W 270 1 min 1,2 UV-I 272 W/m 4,2 C 4,9 C 4,8 km/h (1 Bft)
21.02.2023 10:19 4,8 C 9,4 C 95 % 1022,1 hPa 0,0 l/m 3,2 km/h (1 Bft) W 270 0 min 1,2 UV-I 207 W/m 4,1 C 4,8 C 4,8 km/h (1 Bft)
21.02.2023 10:20 4,8 C 9,4 C 95 % 1022,1 hPa 0,0 l/m 3,2 km/h (1 Bft) W 270 0 min 1,3 UV-I 207 W/m 4,1 C 4,8 C 4,8 km/h (1 Bft)
21.02.2023 10:21 4,9 C 10,0 C 95 % 1022,0 hPa 0,0 l/m 3,2 km/h (1 Bft) W 270 1 min 1,3 UV-I 335 W/m 4,2 C 4,9 C 6,4 km/h (2 Bft)
21.02.2023 10:22 5,1 C 10,0 C 95 % 1022,0 hPa 0,0 l/m 3,2 km/h (1 Bft) W 270 1 min 1,3 UV-I 283 W/m 4,4 C 5,1 C 4,8 km/h (1 Bft)
21.02.2023 10:23 5,2 C 10,6 C 95 % 1022,1 hPa 0,0 l/m 1,6 km/h (1 Bft) W 270 1 min 1,3 UV-I 329 W/m 4,5 C 5,2 C 4,8 km/h (1 Bft)
21.02.2023 10:24 5,2 C 11,1 C 95 % 1022,1 hPa 0,0 l/m 0,0 km/h (0 Bft) W 270 1 min 1,3 UV-I 306 W/m 4,5 C 5,2 C 1,6 km/h (1 Bft)
21.02.2023 10:25 5,1 C 11,1 C 95 % 1022,0 hPa 0,0 l/m 0,0 km/h (0 Bft) N 0 1 min 1,3 UV-I 332 W/m 4,4 C 5,1 C 0,0 km/h (0 Bft)
21.02.2023 10:26 5,2 C 11,7 C 95 % 1022,0 hPa 0,0 l/m 0,0 km/h (0 Bft) W 270 1 min 1,4 UV-I 336 W/m 4,5 C 5,2 C 3,2 km/h (1 Bft)
21.02.2023 10:27 5,2 C 11,1 C 95 % 1022,1 hPa 0,0 l/m 0,0 km/h (0 Bft) N 0 1 min 1,1 UV-I 336 W/m 4,5 C 5,2 C 0,0 km/h (0 Bft)
21.02.2023 10:28 5,2 C 11,1 C 95 % 1022,1 hPa 0,0 l/m 0,0 km/h (0 Bft) N 0 1 min 1,4 UV-I 346 W/m 4,5 C 5,2 C 0,0 km/h (0 Bft)
21.02.2023 10:29 5,2 C 12,2 C 95 % 1022,1 hPa 0,0 l/m 0,0 km/h (0 Bft) N 0 1 min 1,4 UV-I 343 W/m 4,5 C 5,2 C 0,0 km/h (0 Bft)
21.02.2023 10:30 5,3 C 12,2 C 95 % 1022,1 hPa 0,0 l/m 0,0 km/h (0 Bft) N 0 1 min 1,4 UV-I 346 W/m 4,6 C 5,3 C 0,0 km/h (0 Bft)
21.02.2023 10:31 5,3 C 12,8 C 95 % 1022,0 hPa 0,0 l/m 0,0 km/h (0 Bft) W 270 1 min 1,4 UV-I 348 W/m 4,6 C 5,3 C 1,6 km/h (1 Bft)
21.02.2023 10:32 5,4 C 12,8 C 95 % 1022,1 hPa 0,0 l/m 1,6 km/h (1 Bft) W 270 1 min 1,4 UV-I 348 W/m 4,7 C 5,4 C 4,8 km/h (1 Bft)
21.02.2023 10:33 5,3 C 12,8 C 95 % 1022,0 hPa 0,0 l/m 3,2 km/h (1 Bft) W 270 1 min 1,4 UV-I 351 W/m 4,6 C 5,3 C 4,8 km/h (1 Bft)
21.02.2023 10:34 5,3 C 12,8 C 95 % 1022,1 hPa 0,0 l/m 1,6 km/h (1 Bft) W 270 1 min 1,5 UV-I 353 W/m 4,6 C 5,3 C 3,2 km/h (1 Bft)
21.02.2023 10:35 5,4 C 12,8 C 95 % 1022,1 hPa 0,0 l/m 0,0 km/h (0 Bft) N 0 1 min 1,5 UV-I 357 W/m 4,7 C 5,4 C 0,0 km/h (0 Bft)
21.02.2023 10:39 5,6 C 13,3 C 95 % 1022,1 hPa 0,0 l/m 4,3 km/h (1 Bft) W-SW 238 4 min 1,5 UV-I 361 W/m 4,9 C 5,6 C 6,4 km/h (2 Bft)
21.02.2023 10:42 5,6 C 12,8 C 95 % 1022,0 hPa 0,0 l/m 3,4 km/h (1 Bft) SW 236 3 min 1,5 UV-I 367 W/m 4,9 C 5,6 C 6,4 km/h (2 Bft)
21.02.2023 10:45 5,6 C 12,8 C 95 % 1022,0 hPa 0,0 l/m 4,3 km/h (1 Bft) S-SW 208 3 min 1,5 UV-I 359 W/m 4,9 C 5,6 C 9,7 km/h (2 Bft)
21.02.2023 10:48 5,7 C 11,1 C 95 % 1022,0 hPa 0,0 l/m 4,3 km/h (1 Bft) SW 218 3 min 1,4 UV-I 276 W/m 5,0 C 5,7 C 8,0 km/h (2 Bft)
21.02.2023 10:51 5,4 C 9,4 C 95 % 1022,0 hPa 0,0 l/m 5,5 km/h (1 Bft) SW 214 0 min 1,3 UV-I 196 W/m 4,7 C 5,4 C 8,0 km/h (2 Bft)
21.02.2023 10:54 5,7 C 11,7 C 95 % 1021,9 hPa 0,0 l/m 3,8 km/h (1 Bft) W-SW 242 3 min 1,5 UV-I 322 W/m 5,0 C 5,7 C 6,4 km/h (2 Bft)
21.02.2023 10:57 5,8 C 11,7 C 95 % 1021,9 hPa 0,0 l/m 6,2 km/h (2 Bft) SW 225 3 min 1,6 UV-I 354 W/m 5,1 C 5,8 C 11,3 km/h (2 Bft)
21.02.2023 11:00 6,0 C 12,2 C 95 % 1022,0 hPa 0,0 l/m 7,3 km/h (2 Bft) S-SW 201 3 min 1,7 UV-I 391 W/m 5,3 C 5,2 C 12,9 km/h (3 Bft)
21.02.2023 11:03 6,1 C 12,2 C 95 % 1022,0 hPa 0,0 l/m 9,1 km/h (2 Bft) SW 215 3 min 1,7 UV-I 411 W/m 5,4 C 3,9 C 12,9 km/h (3 Bft)
21.02.2023 11:06 6,1 C 12,2 C 95 % 1022,0 hPa 0,0 l/m 6,2 km/h (2 Bft) W-SW 246 3 min 1,7 UV-I 392 W/m 5,4 C 6,1 C 11,3 km/h (2 Bft)
21.02.2023 11:09 6,1 C 12,2 C 95 % 1021,8 hPa 0,0 l/m 7,3 km/h (2 Bft) S-SW 213 3 min 1,7 UV-I 395 W/m 5,4 C 5,3 C 12,9 km/h (3 Bft)
21.02.2023 11:12 6,3 C 12,2 C 94 % 1021,9 hPa 0,0 l/m 5,8 km/h (2 Bft) SW 236 3 min 1,6 UV-I 350 W/m 5,4 C 6,3 C 9,7 km/h (2 Bft)
21.02.2023 11:15 6,6 C 12,2 C 95 % 1021,8 hPa 0,0 l/m 4,3 km/h (1 Bft) S-SW 209 3 min 1,7 UV-I 380 W/m 5,9 C 6,6 C 9,7 km/h (2 Bft)
21.02.2023 11:18 6,7 C 12,8 C 94 % 1021,8 hPa 0,0 l/m 5,7 km/h (1 Bft) W-SW 238 3 min 1,8 UV-I 426 W/m 5,8 C 6,7 C 9,7 km/h (2 Bft)
21.02.2023 11:21 6,9 C 13,9 C 94 % 1021,8 hPa 0,0 l/m 6,4 km/h (2 Bft) S-SW 212 3 min 1,8 UV-I 437 W/m 6,0 C 6,9 C 11,3 km/h (2 Bft)
21.02.2023 11:24 7,1 C 13,3 C 94 % 1021,8 hPa 0,0 l/m 6,1 km/h (2 Bft) W-SW 243 3 min 1,8 UV-I 426 W/m 6,2 C 7,1 C 9,7 km/h (2 Bft)
21.02.2023 11:27 7,3 C 13,9 C 94 % 1021,8 hPa 0,0 l/m 8,3 km/h (2 Bft) S-SW 211 3 min 1,9 UV-I 448 W/m 6,4 C 5,8 C 12,9 km/h (3 Bft)
21.02.2023 11:30 7,5 C 14,4 C 93 % 1021,7 hPa 0,0 l/m 7,6 km/h (2 Bft) SW 217 3 min 2,0 UV-I 462 W/m 6,4 C 6,5 C 11,3 km/h (2 Bft)
21.02.2023 11:33 7,7 C 14,4 C 93 % 1021,7 hPa 0,0 l/m 6,7 km/h (2 Bft) SW 217 3 min 2,0 UV-I 466 W/m 6,6 C 7,5 C 11,3 km/h (2 Bft)
21.02.2023 11:36 7,8 C 14,4 C 93 % 1021,8 hPa 0,0 l/m 6,6 km/h (2 Bft) S-SW 206 3 min 1,9 UV-I 433 W/m 6,7 C 7,7 C 9,7 km/h (2 Bft)
21.02.2023 11:39 8,0 C 14,4 C 92 % 1021,8 hPa 0,0 l/m 5,9 km/h (2 Bft) W-SW 254 3 min 1,9 UV-I 425 W/m 6,8 C 8,0 C 11,3 km/h (2 Bft)
21.02.2023 11:42 8,2 C 15,6 C 91 % 1021,8 hPa 0,0 l/m 5,6 km/h (1 Bft) S-SW 205 3 min 1,9 UV-I 428 W/m 6,8 C 8,2 C 9,7 km/h (2 Bft)
21.02.2023 11:45 8,2 C 15,0 C 90 % 1021,8 hPa 0,0 l/m 6,1 km/h (2 Bft) S-SW 212 3 min 2,0 UV-I 428 W/m 6,7 C 8,2 C 9,7 km/h (2 Bft)
21.02.2023 11:48 8,3 C 15,0 C 89 % 1021,8 hPa 0,0 l/m 5,0 km/h (1 Bft) SW 223 3 min 2,0 UV-I 437 W/m 6,6 C 8,3 C 8,0 km/h (2 Bft)
21.02.2023 11:51 8,3 C 14,4 C 88 % 1021,7 hPa 0,0 l/m 7,6 km/h (2 Bft) SW 218 3 min 1,9 UV-I 401 W/m 6,4 C 7,4 C 12,9 km/h (3 Bft)
21.02.2023 11:54 8,4 C 15,0 C 87 % 1021,7 hPa 0,0 l/m 5,8 km/h (2 Bft) W 268 3 min 1,9 UV-I 404 W/m 6,4 C 8,4 C 9,7 km/h (2 Bft)
21.02.2023 11:57 8,6 C 15,0 C 86 % 1021,8 hPa 0,0 l/m 5,5 km/h (1 Bft) SW 225 3 min 1,9 UV-I 383 W/m 6,4 C 8,6 C 11,3 km/h (2 Bft)
21.02.2023 12:00 8,7 C 14,4 C 85 % 1021,7 hPa 0,0 l/m 4,9 km/h (1 Bft) SW 217 3 min 1,9 UV-I 381 W/m 6,3 C 8,7 C 9,7 km/h (2 Bft)
21.02.2023 12:03 8,8 C 15,0 C 83 % 1021,7 hPa 0,0 l/m 5,7 km/h (1 Bft) SW 224 3 min 1,9 UV-I 401 W/m 6,1 C 8,8 C 12,9 km/h (3 Bft)
21.02.2023 12:06 8,9 C 16,1 C 83 % 1021,7 hPa 0,0 l/m 5,1 km/h (1 Bft) W-SW 254 3 min 2,1 UV-I 442 W/m 6,2 C 8,9 C 9,7 km/h (2 Bft)
21.02.2023 12:09 9,2 C 17,2 C 81 % 1021,5 hPa 0,0 l/m 4,9 km/h (1 Bft) SW 214 3 min 2,1 UV-I 474 W/m 6,1 C 9,2 C 8,0 km/h (2 Bft)
21.02.2023 12:12 9,3 C 17,2 C 82 % 1021,6 hPa 0,0 l/m 6,0 km/h (2 Bft) SW 215 3 min 2,2 UV-I 487 W/m 6,4 C 9,3 C 9,7 km/h (2 Bft)
21.02.2023 12:15 9,4 C 17,2 C 81 % 1021,6 hPa 0,0 l/m 7,0 km/h (2 Bft) SW 218 3 min 2,2 UV-I 494 W/m 6,3 C 9,0 C 9,7 km/h (2 Bft)
21.02.2023 12:18 9,7 C 17,2 C 79 % 1021,5 hPa 0,0 l/m 9,6 km/h (2 Bft) S-SW 209 3 min 2,2 UV-I 508 W/m 6,2 C 7,5 C 11,3 km/h (2 Bft)
21.02.2023 12:21 9,7 C 17,2 C 79 % 1021,5 hPa 0,0 l/m 7,6 km/h (2 Bft) S-SW 205 3 min 2,2 UV-I 513 W/m 6,2 C 8,8 C 11,3 km/h (2 Bft)
21.02.2023 12:24 9,9 C 17,8 C 78 % 1021,5 hPa 0,0 l/m 9,1 km/h (2 Bft) S-SW 204 3 min 2,2 UV-I 513 W/m 6,2 C 8,0 C 12,9 km/h (3 Bft)
21.02.2023 12:27 10,0 C 16,7 C 77 % 1021,4 hPa 0,0 l/m 10,2 km/h (2 Bft) S-SW 207 3 min 2,1 UV-I 483 W/m 6,2 C 7,5 C 14,5 km/h (3 Bft)
21.02.2023 12:30 10,1 C 17,2 C 76 % 1021,4 hPa 0,0 l/m 11,6 km/h (2 Bft) S-SW 211 3 min 2,3 UV-I 512 W/m 6,1 C 6,8 C 16,1 km/h (3 Bft)
21.02.2023 12:33 10,1 C 17,2 C 75 % 1021,3 hPa 0,0 l/m 12,4 km/h (3 Bft) S 188 3 min 2,3 UV-I 511 W/m 5,9 C 6,4 C 17,7 km/h (3 Bft)
21.02.2023 12:36 10,1 C 16,7 C 74 % 1021,2 hPa 0,0 l/m 12,2 km/h (2 Bft) SW 215 3 min 2,2 UV-I 509 W/m 5,7 C 6,5 C 16,1 km/h (3 Bft)
21.02.2023 12:39 10,2 C 17,2 C 74 % 1021,3 hPa 0,0 l/m 11,2 km/h (2 Bft) S-SW 198 3 min 2,2 UV-I 508 W/m 5,8 C 7,2 C 14,5 km/h (3 Bft)
21.02.2023 12:42 10,4 C 17,2 C 74 % 1021,2 hPa 0,0 l/m 10,3 km/h (2 Bft) S-SW 194 3 min 2,2 UV-I 506 W/m 6,0 C 7,9 C 14,5 km/h (3 Bft)
21.02.2023 12:45 10,4 C 17,8 C 73 % 1021,1 hPa 0,0 l/m 8,1 km/h (2 Bft) S 191 3 min 2,3 UV-I 506 W/m 5,8 C 9,2 C 12,9 km/h (3 Bft)
21.02.2023 12:48 10,6 C 17,2 C 72 % 1021,0 hPa 0,0 l/m 9,8 km/h (2 Bft) S-SW 199 3 min 2,2 UV-I 505 W/m 5,8 C 8,4 C 12,9 km/h (3 Bft)
21.02.2023 12:51 10,6 C 18,3 C 73 % 1021,0 hPa 0,0 l/m 7,6 km/h (2 Bft) S-SO 153 3 min 2,2 UV-I 505 W/m 6,0 C 9,8 C 11,3 km/h (2 Bft)
21.02.2023 12:54 10,9 C 18,3 C 72 % 1020,9 hPa 0,0 l/m 8,4 km/h (2 Bft) S-SW 198 3 min 2,2 UV-I 505 W/m 6,1 C 9,5 C 16,1 km/h (3 Bft)
21.02.2023 12:57 11,2 C 18,9 C 71 % 1020,8 hPa 0,0 l/m 7,6 km/h (2 Bft) S 169 3 min 2,2 UV-I 504 W/m 6,1 C 10,4 C 12,9 km/h (3 Bft)
21.02.2023 13:00 11,4 C 19,4 C 70 % 1020,9 hPa 0,0 l/m 8,0 km/h (2 Bft) S 181 3 min 2,2 UV-I 504 W/m 6,1 C 10,3 C 11,3 km/h (2 Bft)
21.02.2023 13:03 11,4 C 18,9 C 70 % 1020,8 hPa 0,0 l/m 7,3 km/h (2 Bft) S 181 3 min 2,2 UV-I 503 W/m 6,1 C 10,8 C 11,3 km/h (2 Bft)
21.02.2023 13:06 11,4 C 19,4 C 69 % 1020,8 hPa 0,0 l/m 7,0 km/h (2 Bft) S-SO 152 3 min 2,2 UV-I 502 W/m 5,9 C 11,0 C 11,3 km/h (2 Bft)
21.02.2023 13:09 11,7 C 19,4 C 69 % 1020,8 hPa 0,0 l/m 8,2 km/h (2 Bft) S-SW 192 3 min 2,2 UV-I 500 W/m 6,2 C 10,5 C 11,3 km/h (2 Bft)
21.02.2023 13:12 11,6 C 20,0 C 70 % 1020,7 hPa 0,0 l/m 7,1 km/h (2 Bft) S-SW 203 3 min 2,2 UV-I 498 W/m 6,3 C 11,1 C 11,3 km/h (2 Bft)
21.02.2023 13:15 11,7 C 20,0 C 69 % 1020,7 hPa 0,0 l/m 8,0 km/h (2 Bft) S 179 3 min 2,2 UV-I 497 W/m 6,2 C 10,6 C 14,5 km/h (3 Bft)
21.02.2023 13:18 11,8 C 20,0 C 69 % 1020,7 hPa 0,0 l/m 8,4 km/h (2 Bft) S 182 3 min 2,2 UV-I 497 W/m 6,3 C 10,5 C 14,5 km/h (3 Bft)
21.02.2023 13:21 12,1 C 20,0 C 68 % 1020,5 hPa 0,0 l/m 8,2 km/h (2 Bft) S 182 3 min 2,2 UV-I 494 W/m 6,4 C 10,9 C 14,5 km/h (3 Bft)
21.02.2023 13:24 12,3 C 20,6 C 68 % 1020,5 hPa 0,0 l/m 7,8 km/h (2 Bft) S 174 3 min 2,2 UV-I 494 W/m 6,6 C 11,4 C 14,5 km/h (3 Bft)
21.02.2023 13:27 12,1 C 19,4 C 68 % 1020,4 hPa 0,0 l/m 9,3 km/h (2 Bft) S-SW 207 3 min 2,2 UV-I 491 W/m 6,4 C 10,3 C 14,5 km/h (3 Bft)
21.02.2023 13:30 12,2 C 19,4 C 68 % 1020,4 hPa 0,0 l/m 9,4 km/h (2 Bft) S 184 3 min 2,2 UV-I 488 W/m 6,5 C 10,3 C 14,5 km/h (3 Bft)
21.02.2023 13:33 12,5 C 20,0 C 69 % 1020,4 hPa 0,0 l/m 7,8 km/h (2 Bft) S-SW 199 3 min 2,2 UV-I 486 W/m 7,0 C 11,6 C 11,3 km/h (2 Bft)
21.02.2023 13:36 12,3 C 19,4 C 67 % 1020,4 hPa 0,0 l/m 10,0 km/h (2 Bft) S 191 3 min 2,2 UV-I 486 W/m 6,4 C 10,1 C 14,5 km/h (3 Bft)
21.02.2023 13:39 12,1 C 18,9 C 67 % 1020,4 hPa 0,0 l/m 11,8 km/h (2 Bft) S 184 3 min 2,2 UV-I 483 W/m 6,2 C 9,0 C 17,7 km/h (3 Bft)
21.02.2023 13:42 12,3 C 20,0 C 68 % 1020,4 hPa 0,0 l/m 9,1 km/h (2 Bft) S 170 3 min 2,1 UV-I 480 W/m 6,6 C 10,6 C 16,1 km/h (3 Bft)
21.02.2023 13:45 12,5 C 19,4 C 67 % 1020,5 hPa 0,0 l/m 8,9 km/h (2 Bft) S 188 3 min 2,1 UV-I 477 W/m 6,5 C 11,0 C 16,1 km/h (3 Bft)
21.02.2023 13:48 12,4 C 18,9 C 68 % 1020,4 hPa 0,0 l/m 8,7 km/h (2 Bft) S-SW 193 3 min 2,1 UV-I 476 W/m 6,7 C 11,0 C 14,5 km/h (3 Bft)
21.02.2023 13:51 12,7 C 20,6 C 67 % 1020,3 hPa 0,0 l/m 8,2 km/h (2 Bft) S-SW 212 3 min 2,1 UV-I 474 W/m 6,7 C 11,6 C 12,9 km/h (3 Bft)
21.02.2023 13:54 12,7 C 20,6 C 67 % 1020,3 hPa 0,0 l/m 8,3 km/h (2 Bft) S-SO 161 3 min 2,1 UV-I 472 W/m 6,7 C 11,5 C 14,5 km/h (3 Bft)
21.02.2023 13:57 12,7 C 20,6 C 67 % 1020,1 hPa 0,0 l/m 7,0 km/h (2 Bft) SW 228 3 min 2,1 UV-I 469 W/m 6,7 C 12,3 C 12,9 km/h (3 Bft)
21.02.2023 14:00 12,8 C 21,1 C 67 % 1020,1 hPa 0,0 l/m 5,3 km/h (1 Bft) S 184 3 min 2,0 UV-I 467 W/m 6,8 C 12,8 C 12,9 km/h (3 Bft)
21.02.2023 14:03 13,0 C 21,7 C 68 % 1020,1 hPa 0,0 l/m 6,2 km/h (2 Bft) S-SW 193 3 min 2,0 UV-I 463 W/m 7,2 C 13,0 C 11,3 km/h (2 Bft)
21.02.2023 14:06 12,9 C 20,6 C 66 % 1020,1 hPa 0,0 l/m 7,5 km/h (2 Bft) S-SW 198 3 min 2,0 UV-I 461 W/m 6,7 C 12,2 C 14,5 km/h (3 Bft)
21.02.2023 14:09 12,9 C 20,6 C 67 % 1020,1 hPa 0,0 l/m 7,2 km/h (2 Bft) S 182 3 min 2,0 UV-I 458 W/m 6,9 C 12,4 C 12,9 km/h (3 Bft)
21.02.2023 14:12 13,1 C 21,1 C 68 % 1020,1 hPa 0,0 l/m 6,9 km/h (2 Bft) SW 214 3 min 2,0 UV-I 455 W/m 7,3 C 12,8 C 11,3 km/h (2 Bft)
21.02.2023 14:15 13,2 C 21,1 C 68 % 1020,0 hPa 0,0 l/m 6,9 km/h (2 Bft) S-SW 200 3 min 2,0 UV-I 452 W/m 7,4 C 12,9 C 11,3 km/h (2 Bft)
21.02.2023 14:18 12,9 C 20,0 C 66 % 1020,0 hPa 0,0 l/m 9,4 km/h (2 Bft) SW 225 3 min 1,9 UV-I 448 W/m 6,7 C 11,1 C 14,5 km/h (3 Bft)
21.02.2023 14:21 13,0 C 20,0 C 67 % 1019,9 hPa 0,0 l/m 10,0 km/h (2 Bft) SW 227 3 min 1,9 UV-I 446 W/m 7,0 C 10,9 C 14,5 km/h (3 Bft)
21.02.2023 14:24 13,0 C 20,0 C 66 % 1019,9 hPa 0,0 l/m 8,9 km/h (2 Bft) S 178 3 min 1,9 UV-I 441 W/m 6,8 C 11,5 C 12,9 km/h (3 Bft)
21.02.2023 14:27 12,9 C 20,6 C 67 % 1019,8 hPa 0,0 l/m 8,7 km/h (2 Bft) S-SW 209 3 min 1,9 UV-I 437 W/m 6,9 C 11,5 C 14,5 km/h (3 Bft)
21.02.2023 14:30 13,1 C 20,6 C 67 % 1019,8 hPa 0,0 l/m 8,5 km/h (2 Bft) S-SW 200 3 min 1,8 UV-I 434 W/m 7,1 C 11,8 C 14,5 km/h (3 Bft)
21.02.2023 14:33 13,1 C 20,0 C 67 % 1019,8 hPa 0,0 l/m 8,3 km/h (2 Bft) S-SW 192 3 min 1,8 UV-I 431 W/m 7,1 C 11,9 C 12,9 km/h (3 Bft)
21.02.2023 14:36 12,9 C 20,0 C 67 % 1019,7 hPa 0,0 l/m 9,2 km/h (2 Bft) S-SW 192 3 min 1,8 UV-I 426 W/m 6,9 C 11,2 C 16,1 km/h (3 Bft)
21.02.2023 14:39 13,0 C 20,0 C 67 % 1019,8 hPa 0,0 l/m 10,6 km/h (2 Bft) SW 214 3 min 1,7 UV-I 421 W/m 7,0 C 10,6 C 16,1 km/h (3 Bft)
21.02.2023 14:42 13,1 C 20,6 C 67 % 1019,7 hPa 0,0 l/m 7,7 km/h (2 Bft) S 180 3 min 1,7 UV-I 416 W/m 7,1 C 12,3 C 12,9 km/h (3 Bft)
21.02.2023 14:45 13,0 C 20,6 C 67 % 1019,6 hPa 0,0 l/m 7,2 km/h (2 Bft) SW 227 3 min 1,7 UV-I 412 W/m 7,0 C 12,5 C 12,9 km/h (3 Bft)
21.02.2023 14:48 13,1 C 21,1 C 67 % 1019,6 hPa 0,0 l/m 7,8 km/h (2 Bft) S-SW 202 3 min 1,7 UV-I 407 W/m 7,1 C 12,2 C 11,3 km/h (2 Bft)
21.02.2023 14:51 13,2 C 20,6 C 67 % 1019,6 hPa 0,0 l/m 7,4 km/h (2 Bft) S-SO 155 3 min 1,6 UV-I 403 W/m 7,2 C 12,6 C 14,5 km/h (3 Bft)
21.02.2023 14:54 13,2 C 20,6 C 68 % 1019,6 hPa 0,0 l/m 8,4 km/h (2 Bft) S-SO 167 3 min 1,6 UV-I 397 W/m 7,4 C 12,0 C 14,5 km/h (3 Bft)
21.02.2023 14:57 13,2 C 20,6 C 67 % 1019,5 hPa 0,0 l/m 8,5 km/h (2 Bft) S-SW 192 3 min 1,6 UV-I 391 W/m 7,2 C 11,9 C 12,9 km/h (3 Bft)
21.02.2023 15:00 13,1 C 20,6 C 68 % 1019,5 hPa 0,0 l/m 8,4 km/h (2 Bft) S-SW 199 3 min 1,5 UV-I 387 W/m 7,3 C 11,9 C 12,9 km/h (3 Bft)
21.02.2023 15:03 13,1 C 20,0 C 68 % 1019,6 hPa 0,0 l/m 7,3 km/h (2 Bft) S 187 3 min 1,5 UV-I 380 W/m 7,3 C 12,5 C 11,3 km/h (2 Bft)
21.02.2023 15:06 13,0 C 20,6 C 68 % 1019,5 hPa 0,0 l/m 6,3 km/h (2 Bft) S 182 3 min 1,5 UV-I 376 W/m 7,2 C 13,0 C 14,5 km/h (3 Bft)
21.02.2023 15:09 13,1 C 20,0 C 68 % 1019,5 hPa 0,0 l/m 7,9 km/h (2 Bft) S 172 3 min 1,4 UV-I 371 W/m 7,3 C 12,2 C 11,3 km/h (2 Bft)
21.02.2023 15:12 13,2 C 20,6 C 68 % 1019,4 hPa 0,0 l/m 4,1 km/h (1 Bft) SW 220 3 min 1,4 UV-I 366 W/m 7,4 C 13,2 C 8,0 km/h (2 Bft)
21.02.2023 15:15 13,4 C 21,1 C 68 % 1019,4 hPa 0,0 l/m 4,9 km/h (1 Bft) S 182 3 min 1,4 UV-I 360 W/m 7,6 C 13,4 C 11,3 km/h (2 Bft)
21.02.2023 15:18 13,3 C 20,0 C 67 % 1019,5 hPa 0,0 l/m 9,3 km/h (2 Bft) S 182 3 min 1,4 UV-I 354 W/m 7,3 C 11,6 C 14,5 km/h (3 Bft)
21.02.2023 15:21 13,2 C 20,0 C 67 % 1019,5 hPa 0,0 l/m 7,3 km/h (2 Bft) S-SW 209 3 min 1,3 UV-I 349 W/m 7,2 C 12,6 C 11,3 km/h (2 Bft)
21.02.2023 15:24 13,3 C 20,6 C 68 % 1019,5 hPa 0,0 l/m 5,6 km/h (1 Bft) S-SW 208 3 min 1,3 UV-I 344 W/m 7,5 C 13,3 C 9,7 km/h (2 Bft)
21.02.2023 15:27 13,2 C 21,1 C 67 % 1019,5 hPa 0,0 l/m 2,7 km/h (1 Bft) S-SO 150 3 min 1,3 UV-I 336 W/m 7,2 C 13,2 C 6,4 km/h (2 Bft)
21.02.2023 15:30 13,2 C 21,1 C 68 % 1019,4 hPa 0,0 l/m 3,8 km/h (1 Bft) S-SW 194 3 min 1,2 UV-I 330 W/m 7,4 C 13,2 C 6,4 km/h (2 Bft)
21.02.2023 15:33 13,2 C 20,6 C 68 % 1019,4 hPa 0,0 l/m 6,0 km/h (2 Bft) SW 230 3 min 1,2 UV-I 324 W/m 7,4 C 13,2 C 9,7 km/h (2 Bft)
21.02.2023 15:36 13,3 C 20,6 C 68 % 1019,3 hPa 0,0 l/m 5,6 km/h (1 Bft) S-SW 199 3 min 1,2 UV-I 320 W/m 7,5 C 13,3 C 8,0 km/h (2 Bft)
21.02.2023 15:39 13,3 C 20,6 C 68 % 1019,4 hPa 0,0 l/m 4,5 km/h (1 Bft) S-SW 194 3 min 1,1 UV-I 313 W/m 7,5 C 13,3 C 6,4 km/h (2 Bft)
21.02.2023 15:42 13,4 C 21,7 C 68 % 1019,3 hPa 0,0 l/m 3,5 km/h (1 Bft) W-SW 258 3 min 1,1 UV-I 306 W/m 7,6 C 13,4 C 6,4 km/h (2 Bft)
21.02.2023 15:45 13,5 C 21,1 C 68 % 1019,3 hPa 0,0 l/m 5,5 km/h (1 Bft) W-SW 252 3 min 1,1 UV-I 299 W/m 7,7 C 13,5 C 9,7 km/h (2 Bft)
21.02.2023 15:48 13,4 C 21,1 C 68 % 1019,3 hPa 0,0 l/m 4,1 km/h (1 Bft) SW 236 3 min 1,0 UV-I 294 W/m 7,6 C 13,4 C 8,0 km/h (2 Bft)
21.02.2023 15:51 13,4 C 21,7 C 68 % 1019,3 hPa 0,0 l/m 4,0 km/h (1 Bft) W 266 3 min 1,0 UV-I 288 W/m 7,6 C 13,4 C 9,7 km/h (2 Bft)
21.02.2023 15:54 13,5 C 21,1 C 67 % 1019,2 hPa 0,0 l/m 2,6 km/h (1 Bft) W 267 3 min 1,0 UV-I 282 W/m 7,5 C 13,5 C 4,8 km/h (1 Bft)
21.02.2023 15:57 13,6 C 21,7 C 68 % 1019,3 hPa 0,0 l/m 2,2 km/h (1 Bft) W-NW 286 3 min 0,9 UV-I 274 W/m 7,8 C 13,6 C 6,4 km/h (2 Bft)
21.02.2023 16:00 13,6 C 21,1 C 68 % 1019,3 hPa 0,0 l/m 3,9 km/h (1 Bft) W-SW 247 3 min 0,9 UV-I 267 W/m 7,8 C 13,6 C 6,4 km/h (2 Bft)
21.02.2023 16:03 13,5 C 17,8 C 68 % 1019,3 hPa 0,0 l/m 3,5 km/h (1 Bft) W-SW 244 3 min 0,9 UV-I 262 W/m 7,7 C 13,5 C 6,4 km/h (2 Bft)
21.02.2023 16:06 13,5 C 16,1 C 68 % 1019,3 hPa 0,0 l/m 3,0 km/h (1 Bft) W-SW 241 3 min 0,9 UV-I 256 W/m 7,7 C 13,5 C 6,4 km/h (2 Bft)
21.02.2023 16:09 13,6 C 15,0 C 67 % 1019,3 hPa 0,0 l/m 1,3 km/h (1 Bft) W-SW 242 3 min 0,8 UV-I 250 W/m 7,6 C 13,6 C 4,8 km/h (1 Bft)
21.02.2023 16:12 13,6 C 17,8 C 70 % 1019,2 hPa 0,0 l/m 0,0 km/h (0 Bft) W-SW 242 0 min 0,8 UV-I 244 W/m 8,2 C 13,6 C 1,6 km/h (1 Bft)
21.02.2023 16:15 13,7 C 20,6 C 67 % 1019,2 hPa 0,0 l/m 1,8 km/h (1 Bft) W-SW 242 0 min 0,7 UV-I 213 W/m 7,7 C 13,7 C 4,8 km/h (1 Bft)
21.02.2023 16:18 13,6 C 21,1 C 68 % 1019,3 hPa 0,0 l/m 0,4 km/h (0 Bft) W-SW 242 0 min 0,7 UV-I 189 W/m 7,8 C 13,6 C 3,2 km/h (1 Bft)
21.02.2023 16:21 13,6 C 21,1 C 67 % 1019,2 hPa 0,0 l/m 0,5 km/h (0 Bft) W-SW 251 0 min 0,7 UV-I 206 W/m 7,6 C 13,6 C 3,2 km/h (1 Bft)
21.02.2023 16:24 13,6 C 22,2 C 67 % 1019,2 hPa 0,0 l/m 0,0 km/h (0 Bft) W-SW 251 0 min 0,7 UV-I 208 W/m 7,6 C 13,6 C 0,0 km/h (0 Bft)
21.02.2023 16:27 13,7 C 22,2 C 67 % 1019,1 hPa 0,0 l/m 0,0 km/h (0 Bft) W-SW 251 0 min 0,7 UV-I 204 W/m 7,7 C 13,7 C 0,0 km/h (0 Bft)
21.02.2023 16:30 13,6 C 22,8 C 68 % 1019,2 hPa 0,0 l/m 0,3 km/h (0 Bft) W-SW 251 0 min 0,6 UV-I 191 W/m 7,8 C 13,6 C 1,6 km/h (1 Bft)
21.02.2023 16:33 13,7 C 23,3 C 69 % 1019,1 hPa 0,0 l/m 0,0 km/h (0 Bft) W-SW 251 0 min 0,6 UV-I 179 W/m 8,1 C 13,7 C 0,0 km/h (0 Bft)
21.02.2023 16:36 13,8 C 22,8 C 67 % 1019,0 hPa 0,0 l/m 0,8 km/h (0 Bft) W-SW 252 0 min 0,5 UV-I 158 W/m 7,8 C 13,8 C 3,2 km/h (1 Bft)
21.02.2023 16:39 13,6 C 21,7 C 68 % 1019,1 hPa 0,0 l/m 1,9 km/h (1 Bft) W-SW 256 0 min 0,5 UV-I 151 W/m 7,8 C 13,6 C 4,8 km/h (1 Bft)
21.02.2023 16:42 13,3 C 21,1 C 68 % 1019,1 hPa 0,0 l/m 0,0 km/h (0 Bft) W-SW 256 0 min 0,5 UV-I 158 W/m 7,5 C 13,3 C 0,0 km/h (0 Bft)
21.02.2023 16:45 13,2 C 21,1 C 68 % 1019,1 hPa 0,0 l/m 0,0 km/h (0 Bft) W-SW 256 0 min 0,5 UV-I 146 W/m 7,4 C 13,2 C 0,0 km/h (0 Bft)
21.02.2023 16:48 13,2 C 20,0 C 69 % 1019,1 hPa 0,0 l/m 0,2 km/h (0 Bft) W-SW 256 0 min 0,1 UV-I 126 W/m 7,6 C 13,2 C 3,2 km/h (1 Bft)
21.02.2023 16:51 13,2 C 18,9 C 69 % 1019,1 hPa 0,0 l/m 0,5 km/h (0 Bft) W-SW 256 0 min 0,0 UV-I 109 W/m 7,6 C 13,2 C 3,2 km/h (1 Bft)
21.02.2023 16:54 13,1 C 18,9 C 69 % 1019,0 hPa 0,0 l/m 0,0 km/h (0 Bft) W-SW 256 0 min 0,0 UV-I 95 W/m 7,5 C 13,1 C 0,0 km/h (0 Bft)
21.02.2023 16:57 13,1 C 17,8 C 68 % 1019,1 hPa 0,0 l/m 0,0 km/h (0 Bft) W-SW 256 0 min 0,0 UV-I 87 W/m 7,3 C 13,1 C 0,0 km/h (0 Bft)
21.02.2023 17:00 13,1 C 16,7 C 68 % 1019,0 hPa 0,0 l/m 0,0 km/h (0 Bft) W-SW 256 0 min 0,0 UV-I 84 W/m 7,3 C 13,1 C 0,0 km/h (0 Bft)
21.02.2023 17:03 13,0 C 14,4 C 69 % 1019,0 hPa 0,0 l/m 0,0 km/h (0 Bft) W-SW 256 0 min 0,0 UV-I 78 W/m 7,4 C 13,0 C 0,0 km/h (0 Bft)
21.02.2023 17:06 12,8 C 12,8 C 69 % 1019,0 hPa 0,0 l/m 0,0 km/h (0 Bft) W-SW 256 0 min 0,0 UV-I 70 W/m 7,3 C 12,8 C 0,0 km/h (0 Bft)
21.02.2023 17:09 12,7 C 11,7 C 69 % 1018,9 hPa 0,0 l/m 0,0 km/h (0 Bft) W-SW 256 0 min 0,0 UV-I 60 W/m 7,2 C 12,7 C 1,6 km/h (1 Bft)
21.02.2023 17:12 12,7 C 11,7 C 69 % 1019,0 hPa 0,0 l/m 0,0 km/h (0 Bft) W-SW 256 0 min 0,0 UV-I 57 W/m 7,2 C 12,7 C 0,0 km/h (0 Bft)
21.02.2023 17:15 12,7 C 11,1 C 69 % 1018,9 hPa 0,0 l/m 0,0 km/h (0 Bft) W-SW 256 0 min 0,0 UV-I 55 W/m 7,2 C 12,7 C 1,6 km/h (1 Bft)
21.02.2023 17:18 12,3 C 11,7 C 71 % 1018,9 hPa 0,0 l/m 1,4 km/h (1 Bft) W-SW 256 0 min 0,0 UV-I 43 W/m 7,2 C 12,3 C 3,2 km/h (1 Bft)
21.02.2023 17:21 12,2 C 11,1 C 71 % 1018,9 hPa 0,0 l/m 0,8 km/h (0 Bft) W-SW 256 0 min 0,0 UV-I 33 W/m 7,1 C 12,2 C 3,2 km/h (1 Bft)
21.02.2023 17:24 12,0 C 10,6 C 71 % 1018,9 hPa 0,0 l/m 0,0 km/h (0 Bft) W-SW 256 0 min 0,0 UV-I 27 W/m 6,9 C 12,0 C 0,0 km/h (0 Bft)
21.02.2023 17:27 11,8 C 9,4 C 72 % 1018,9 hPa 0,0 l/m 0,0 km/h (0 Bft) W-SW 256 0 min 0,0 UV-I 25 W/m 6,9 C 11,8 C 0,0 km/h (0 Bft)
21.02.2023 17:30 11,6 C 9,4 C 73 % 1018,9 hPa 0,0 l/m 0,6 km/h (0 Bft) W-SW 256 0 min 0,0 UV-I 21 W/m 6,9 C 11,6 C 3,2 km/h (1 Bft)
21.02.2023 17:33 11,5 C 8,9 C 73 % 1018,9 hPa 0,0 l/m 0,0 km/h (0 Bft) W-SW 256 0 min 0,0 UV-I 19 W/m 6,8 C 11,5 C 1,6 km/h (1 Bft)
21.02.2023 17:36 11,4 C 8,3 C 73 % 1018,8 hPa 0,0 l/m 0,1 km/h (0 Bft) W-SW 256 0 min 0,0 UV-I 18 W/m 6,7 C 11,4 C 1,6 km/h (1 Bft)
21.02.2023 17:39 11,2 C 8,3 C 74 % 1018,9 hPa 0,0 l/m 0,0 km/h (0 Bft) W-SW 256 0 min 0,0 UV-I 15 W/m 6,7 C 11,2 C 1,6 km/h (1 Bft)
21.02.2023 17:42 10,9 C 8,3 C 74 % 1019,1 hPa 0,0 l/m 0,8 km/h (0 Bft) W-SW 256 0 min 0,0 UV-I 14 W/m 6,5 C 10,9 C 3,2 km/h (1 Bft)
21.02.2023 17:45 10,7 C 8,3 C 75 % 1019,0 hPa 0,0 l/m 0,2 km/h (0 Bft) W-SW 256 0 min 0,0 UV-I 12 W/m 6,5 C 10,7 C 3,2 km/h (1 Bft)
21.02.2023 17:48 10,4 C 7,8 C 76 % 1019,0 hPa 0,0 l/m 0,0 km/h (0 Bft) W-SW 256 0 min 0,0 UV-I 11 W/m 6,4 C 10,4 C 0,0 km/h (0 Bft)
21.02.2023 17:51 10,1 C 7,2 C 76 % 1019,0 hPa 0,0 l/m 0,0 km/h (0 Bft) W-SW 256 0 min 0,0 UV-I 8 W/m 6,1 C 10,1 C 0,0 km/h (0 Bft)
21.02.2023 17:54 9,6 C 6,7 C 77 % 1019,0 hPa 0,0 l/m 0,0 km/h (0 Bft) W-SW 256 0 min 0,0 UV-I 7 W/m 5,8 C 9,6 C 0,0 km/h (0 Bft)
21.02.2023 17:57 9,1 C 6,1 C 78 % 1019,1 hPa 0,0 l/m 0,0 km/h (0 Bft) W-SW 256 0 min 0,0 UV-I 5 W/m 5,5 C 9,1 C 0,0 km/h (0 Bft)
21.02.2023 18:00 8,8 C 6,1 C 79 % 1019,0 hPa 0,0 l/m 0,0 km/h (0 Bft) W-SW 256 0 min 0,0 UV-I 0 W/m 5,4 C 8,8 C 0,0 km/h (0 Bft)
21.02.2023 18:03 8,7 C 6,1 C 81 % 1019,0 hPa 0,0 l/m 0,0 km/h (0 Bft) W-SW 256 0 min 0,0 UV-I 0 W/m 5,6 C 8,7 C 0,0 km/h (0 Bft)
21.02.2023 18:06 8,9 C 6,1 C 80 % 1019,0 hPa 0,0 l/m 0,0 km/h (0 Bft) W-SW 256 0 min 0,0 UV-I 0 W/m 5,6 C 8,9 C 0,0 km/h (0 Bft)
21.02.2023 18:09 8,9 C 5,6 C 79 % 1019,1 hPa 0,0 l/m 0,0 km/h (0 Bft) W-SW 256 0 min 0,0 UV-I 0 W/m 5,5 C 8,9 C 0,0 km/h (0 Bft)
21.02.2023 18:12 8,9 C 5,6 C 79 % 1019,1 hPa 0,0 l/m 0,0 km/h (0 Bft) W-SW 256 0 min 0,0 UV-I 0 W/m 5,5 C 8,9 C 0,0 km/h (0 Bft)
21.02.2023 18:15 8,9 C 5,6 C 78 % 1019,1 hPa 0,0 l/m 0,0 km/h (0 Bft) W-SW 256 0 min 0,0 UV-I 0 W/m 5,3 C 8,9 C 0,0 km/h (0 Bft)
21.02.2023 18:18 8,7 C 5,6 C 78 % 1019,1 hPa 0,0 l/m 0,0 km/h (0 Bft) W-SW 256 0 min 0,0 UV-I 0 W/m 5,1 C 8,7 C 0,0 km/h (0 Bft)
21.02.2023 18:21 8,4 C 5,6 C 79 % 1019,3 hPa 0,0 l/m 0,0 km/h (0 Bft) W-SW 256 0 min 0,0 UV-I 0 W/m 5,0 C 8,4 C 0,0 km/h (0 Bft)
21.02.2023 18:24 8,1 C 5,0 C 79 % 1019,2 hPa 0,0 l/m 0,0 km/h (0 Bft) W-SW 256 0 min 0,0 UV-I 0 W/m 4,7 C 8,1 C 0,0 km/h (0 Bft)
21.02.2023 18:27 7,9 C 5,0 C 81 % 1019,1 hPa 0,0 l/m 0,0 km/h (0 Bft) W-SW 256 0 min 0,0 UV-I 0 W/m 4,8 C 7,9 C 0,0 km/h (0 Bft)
21.02.2023 18:30 7,8 C 5,0 C 81 % 1019,2 hPa 0,0 l/m 0,0 km/h (0 Bft) W-SW 256 0 min 0,0 UV-I 0 W/m 4,7 C 7,8 C 0,0 km/h (0 Bft)
21.02.2023 18:33 7,7 C 4,4 C 82 % 1019,3 hPa 0,0 l/m 0,0 km/h (0 Bft) W-SW 256 0 min 0,0 UV-I 0 W/m 4,8 C 7,7 C 0,0 km/h (0 Bft)
21.02.2023 18:36 7,5 C 4,4 C 80 % 1019,2 hPa 0,0 l/m 0,0 km/h (0 Bft) W-SW 256 0 min 0,0 UV-I 0 W/m 4,3 C 7,5 C 0,0 km/h (0 Bft)
21.02.2023 18:39 6,9 C 3,9 C 81 % 1019,3 hPa 0,0 l/m 0,0 km/h (0 Bft) W-SW 256 0 min 0,0 UV-I 0 W/m 3,9 C 6,9 C 0,0 km/h (0 Bft)
21.02.2023 18:42 6,8 C 3,9 C 83 % 1019,3 hPa 0,0 l/m 0,0 km/h (0 Bft) W-SW 256 0 min 0,0 UV-I 0 W/m 4,1 C 6,8 C 0,0 km/h (0 Bft)
21.02.2023 18:45 6,6 C 3,3 C 83 % 1019,4 hPa 0,0 l/m 0,0 km/h (0 Bft) W-SW 256 0 min 0,0 UV-I 0 W/m 3,9 C 6,6 C 0,0 km/h (0 Bft)
21.02.2023 18:48 6,5 C 3,9 C 84 % 1019,4 hPa 0,0 l/m 0,0 km/h (0 Bft) W-SW 256 0 min 0,0 UV-I 0 W/m 4,0 C 6,5 C 0,0 km/h (0 Bft)
21.02.2023 18:51 6,5 C 3,9 C 84 % 1019,4 hPa 0,0 l/m 0,0 km/h (0 Bft) W-SW 256 0 min 0,0 UV-I 0 W/m 4,0 C 6,5 C 0,0 km/h (0 Bft)
21.02.2023 18:54 6,6 C 3,3 C 84 % 1019,4 hPa 0,0 l/m 0,0 km/h (0 Bft) W-SW 256 0 min 0,0 UV-I 0 W/m 4,1 C 6,6 C 0,0 km/h (0 Bft)
21.02.2023 18:57 6,4 C 3,9 C 85 % 1019,5 hPa 0,0 l/m 0,0 km/h (0 Bft) W-SW 256 0 min 0,0 UV-I 0 W/m 4,1 C 6,4 C 0,0 km/h (0 Bft)
21.02.2023 19:00 6,6 C 3,9 C 86 % 1019,4 hPa 0,0 l/m 0,0 km/h (0 Bft) W-SW 256 0 min 0,0 UV-I 0 W/m 4,4 C 6,6 C 0,0 km/h (0 Bft)
21.02.2023 19:03 6,9 C 3,9 C 86 % 1019,5 hPa 0,0 l/m 0,0 km/h (0 Bft) W-SW 254 0 min 0,0 UV-I 0 W/m 4,7 C 6,9 C 0,0 km/h (0 Bft)
21.02.2023 19:06 6,9 C 3,9 C 85 % 1019,4 hPa 0,0 l/m 0,0 km/h (0 Bft) W-SW 254 0 min 0,0 UV-I 0 W/m 4,6 C 6,9 C 0,0 km/h (0 Bft)
21.02.2023 19:09 6,9 C 3,9 C 85 % 1019,3 hPa 0,0 l/m 0,0 km/h (0 Bft) W-SW 254 0 min 0,0 UV-I 0 W/m 4,6 C 6,9 C 0,0 km/h (0 Bft)
21.02.2023 19:12 6,7 C 3,9 C 84 % 1019,3 hPa 0,0 l/m 0,0 km/h (0 Bft) W-SW 254 0 min 0,0 UV-I 0 W/m 4,2 C 6,7 C 0,0 km/h (0 Bft)
21.02.2023 19:15 6,5 C 3,9 C 85 % 1019,3 hPa 0,0 l/m 0,0 km/h (0 Bft) W-SW 254 0 min 0,0 UV-I 0 W/m 4,2 C 6,5 C 0,0 km/h (0 Bft)
21.02.2023 19:18 5,9 C 3,3 C 84 % 1019,3 hPa 0,0 l/m 0,0 km/h (0 Bft) W-SW 254 0 min 0,0 UV-I 0 W/m 3,4 C 5,9 C 0,0 km/h (0 Bft)
21.02.2023 19:21 5,4 C 2,8 C 85 % 1019,3 hPa 0,0 l/m 0,0 km/h (0 Bft) W-SW 254 0 min 0,0 UV-I 0 W/m 3,1 C 5,4 C 0,0 km/h (0 Bft)
21.02.2023 19:24 5,2 C 2,8 C 85 % 1019,3 hPa 0,0 l/m 0,0 km/h (0 Bft) W-SW 254 0 min 0,0 UV-I 0 W/m 2,9 C 5,2 C 0,0 km/h (0 Bft)
21.02.2023 19:27 4,9 C 2,8 C 86 % 1019,3 hPa 0,0 l/m 0,0 km/h (0 Bft) W-SW 254 0 min 0,0 UV-I 0 W/m 2,8 C 4,9 C 0,0 km/h (0 Bft)
21.02.2023 19:30 4,8 C 2,2 C 87 % 1019,4 hPa 0,0 l/m 0,0 km/h (0 Bft) W-SW 254 0 min 0,0 UV-I 0 W/m 2,8 C 4,8 C 0,0 km/h (0 Bft)
21.02.2023 19:33 4,8 C 2,2 C 88 % 1019,3 hPa 0,0 l/m 0,0 km/h (0 Bft) W-SW 254 0 min 0,0 UV-I 0 W/m 3,0 C 4,8 C 0,0 km/h (0 Bft)
21.02.2023 19:36 5,0 C 2,2 C 88 % 1019,4 hPa 0,0 l/m 0,0 km/h (0 Bft) W-SW 254 0 min 0,0 UV-I 0 W/m 3,2 C 5,0 C 0,0 km/h (0 Bft)
21.02.2023 19:39 4,9 C 2,2 C 88 % 1019,3 hPa 0,0 l/m 0,0 km/h (0 Bft) W-SW 254 0 min 0,0 UV-I 0 W/m 3,1 C 4,9 C 0,0 km/h (0 Bft)
21.02.2023 19:42 4,8 C 2,2 C 88 % 1019,4 hPa 0,0 l/m 0,0 km/h (0 Bft) W-SW 254 0 min 0,0 UV-I 0 W/m 3,0 C 4,8 C 0,0 km/h (0 Bft)
21.02.2023 19:45 4,9 C 2,2 C 88 % 1019,3 hPa 0,0 l/m 0,0 km/h (0 Bft) W-SW 254 0 min 0,0 UV-I 0 W/m 3,1 C 4,9 C 0,0 km/h (0 Bft)
21.02.2023 19:48 5,1 C 2,2 C 89 % 1019,4 hPa 0,0 l/m 0,0 km/h (0 Bft) W-SW 254 0 min 0,0 UV-I 0 W/m 3,4 C 5,1 C 0,0 km/h (0 Bft)
21.02.2023 19:51 4,8 C 2,2 C 88 % 1019,3 hPa 0,0 l/m 0,0 km/h (0 Bft) W-SW 254 0 min 0,0 UV-I 0 W/m 3,0 C 4,8 C 0,0 km/h (0 Bft)
21.02.2023 19:54 4,4 C 1,7 C 88 % 1019,3 hPa 0,0 l/m 0,0 km/h (0 Bft) W-SW 254 0 min 0,0 UV-I 0 W/m 2,6 C 4,4 C 0,0 km/h (0 Bft)
21.02.2023 19:57 4,2 C 1,7 C 88 % 1019,3 hPa 0,0 l/m 0,0 km/h (0 Bft) W-SW 254 0 min 0,0 UV-I 0 W/m 2,4 C 4,2 C 0,0 km/h (0 Bft)
21.02.2023 20:00 4,2 C 1,7 C 88 % 1019,2 hPa 0,0 l/m 0,0 km/h (0 Bft) W-SW 254 0 min 0,0 UV-I 0 W/m 2,4 C 4,2 C 0,0 km/h (0 Bft)
21.02.2023 20:03 4,1 C 1,7 C 89 % 1019,2 hPa 0,0 l/m 0,0 km/h (0 Bft) W-SW 254 0 min 0,0 UV-I 0 W/m 2,5 C 4,1 C 0,0 km/h (0 Bft)
21.02.2023 20:06 4,1 C 1,7 C 89 % 1019,2 hPa 0,0 l/m 0,0 km/h (0 Bft) W-SW 254 0 min 0,0 UV-I 0 W/m 2,5 C 4,1 C 0,0 km/h (0 Bft)
21.02.2023 20:09 3,8 C 1,7 C 89 % 1019,2 hPa 0,0 l/m 0,0 km/h (0 Bft) W-SW 254 0 min 0,0 UV-I 0 W/m 2,2 C 3,8 C 0,0 km/h (0 Bft)
21.02.2023 20:12 3,8 C 1,7 C 89 % 1019,1 hPa 0,0 l/m 0,0 km/h (0 Bft) W-SW 254 0 min 0,0 UV-I 0 W/m 2,2 C 3,8 C 0,0 km/h (0 Bft)
21.02.2023 20:15 3,9 C 1,7 C 90 % 1019,1 hPa 0,0 l/m 0,0 km/h (0 Bft) W-SW 254 0 min 0,0 UV-I 0 W/m 2,4 C 3,9 C 0,0 km/h (0 Bft)
21.02.2023 20:18 3,8 C 1,7 C 90 % 1019,1 hPa 0,0 l/m 0,0 km/h (0 Bft) W-SW 254 0 min 0,0 UV-I 0 W/m 2,3 C 3,8 C 0,0 km/h (0 Bft)
21.02.2023 20:21 3,8 C 1,1 C 90 % 1019,0 hPa 0,0 l/m 0,0 km/h (0 Bft) W-SW 254 0 min 0,0 UV-I 0 W/m 2,3 C 3,8 C 0,0 km/h (0 Bft)
21.02.2023 20:24 3,9 C 1,7 C 90 % 1019,0 hPa 0,0 l/m 1,0 km/h (0 Bft) W-SW 254 0 min 0,0 UV-I 0 W/m 2,4 C 3,9 C 3,2 km/h (1 Bft)
21.02.2023 20:27 4,0 C 1,7 C 90 % 1019,0 hPa 0,0 l/m 1,3 km/h (1 Bft) W-SW 254 0 min 0,0 UV-I 0 W/m 2,5 C 4,0 C 3,2 km/h (1 Bft)
21.02.2023 20:30 3,8 C 1,1 C 90 % 1019,0 hPa 0,0 l/m 0,4 km/h (0 Bft) W-SW 254 0 min 0,0 UV-I 0 W/m 2,3 C 3,8 C 1,6 km/h (1 Bft)
21.02.2023 20:33 3,7 C 1,1 C 90 % 1019,1 hPa 0,0 l/m 0,0 km/h (0 Bft) W-SW 254 0 min 0,0 UV-I 0 W/m 2,2 C 3,7 C 0,0 km/h (0 Bft)
21.02.2023 20:36 3,6 C 1,1 C 90 % 1019,1 hPa 0,0 l/m 0,0 km/h (0 Bft) W-SW 254 0 min 0,0 UV-I 0 W/m 2,1 C 3,6 C 1,6 km/h (1 Bft)
21.02.2023 20:39 3,4 C 0,6 C 90 % 1019,1 hPa 0,0 l/m 0,0 km/h (0 Bft) W-SW 254 0 min 0,0 UV-I 0 W/m 1,9 C 3,4 C 0,0 km/h (0 Bft)
21.02.2023 20:42 3,1 C 0,6 C 90 % 1019,1 hPa 0,0 l/m 0,0 km/h (0 Bft) W-SW 254 0 min 0,0 UV-I 0 W/m 1,6 C 3,1 C 0,0 km/h (0 Bft)
21.02.2023 20:45 2,8 C 0,6 C 90 % 1019,0 hPa 0,0 l/m 0,0 km/h (0 Bft) W-SW 254 0 min 0,0 UV-I 0 W/m 1,3 C 2,8 C 0,0 km/h (0 Bft)
21.02.2023 20:48 2,9 C 0,6 C 91 % 1019,0 hPa 0,0 l/m 0,0 km/h (0 Bft) W-SW 254 0 min 0,0 UV-I 0 W/m 1,6 C 2,9 C 0,0 km/h (0 Bft)
21.02.2023 20:51 3,1 C 0,6 C 91 % 1019,0 hPa 0,0 l/m 0,0 km/h (0 Bft) W-SW 254 0 min 0,0 UV-I 0 W/m 1,8 C 3,1 C 0,0 km/h (0 Bft)
21.02.2023 20:54 2,8 C 0,6 C 90 % 1019,0 hPa 0,0 l/m 0,0 km/h (0 Bft) W-SW 254 0 min 0,0 UV-I 0 W/m 1,3 C 2,8 C 0,0 km/h (0 Bft)
21.02.2023 20:57 2,8 C 0,6 C 91 % 1019,2 hPa 0,0 l/m 0,0 km/h (0 Bft) W-SW 254 0 min 0,0 UV-I 0 W/m 1,5 C 2,8 C 0,0 km/h (0 Bft)
21.02.2023 21:00 2,9 C 1,1 C 91 % 1019,0 hPa 0,0 l/m 0,0 km/h (0 Bft) W-SW 254 0 min 0,0 UV-I 0 W/m 1,6 C 2,9 C 0,0 km/h (0 Bft)
21.02.2023 21:03 2,8 C 0,6 C 91 % 1019,1 hPa 0,0 l/m 0,0 km/h (0 Bft) W-SW 254 0 min 0,0 UV-I 0 W/m 1,5 C 2,8 C 0,0 km/h (0 Bft)
21.02.2023 21:06 2,7 C 0,6 C 91 % 1019,2 hPa 0,0 l/m 0,0 km/h (0 Bft) W-SW 254 0 min 0,0 UV-I 0 W/m 1,4 C 2,7 C 0,0 km/h (0 Bft)
21.02.2023 21:09 2,4 C 0,0 C 91 % 1019,2 hPa 0,0 l/m 0,0 km/h (0 Bft) W-SW 254 0 min 0,0 UV-I 0 W/m 1,1 C 2,4 C 0,0 km/h (0 Bft)
21.02.2023 21:12 2,7 C 0,6 C 92 % 1019,1 hPa 0,0 l/m 0,0 km/h (0 Bft) W-SW 254 0 min 0,0 UV-I 0 W/m 1,5 C 2,7 C 0,0 km/h (0 Bft)
21.02.2023 21:15 2,6 C 0,6 C 91 % 1019,1 hPa 0,0 l/m 0,0 km/h (0 Bft) W-SW 254 0 min 0,0 UV-I 0 W/m 1,3 C 2,6 C 0,0 km/h (0 Bft)
21.02.2023 21:18 2,2 C 0,0 C 90 % 1019,1 hPa 0,0 l/m 0,0 km/h (0 Bft) W-SW 254 0 min 0,0 UV-I 0 W/m 0,7 C 2,2 C 0,0 km/h (0 Bft)
21.02.2023 21:21 2,1 C 0,0 C 91 % 1019,1 hPa 0,0 l/m 0,0 km/h (0 Bft) W-SW 254 0 min 0,0 UV-I 0 W/m 0,8 C 2,1 C 0,0 km/h (0 Bft)
21.02.2023 21:24 2,4 C 0,0 C 92 % 1019,1 hPa 0,0 l/m 0,0 km/h (0 Bft) W-SW 254 0 min 0,0 UV-I 0 W/m 1,2 C 2,4 C 0,0 km/h (0 Bft)
21.02.2023 21:27 2,5 C 0,6 C 92 % 1019,2 hPa 0,0 l/m 0,0 km/h (0 Bft) W-SW 254 0 min 0,0 UV-I 0 W/m 1,3 C 2,5 C 0,0 km/h (0 Bft)
21.02.2023 21:30 2,4 C 0,0 C 91 % 1019,1 hPa 0,0 l/m 0,0 km/h (0 Bft) W-SW 254 0 min 0,0 UV-I 0 W/m 1,1 C 2,4 C 0,0 km/h (0 Bft)
21.02.2023 21:33 2,1 C 0,0 C 91 % 1019,2 hPa 0,0 l/m 0,0 km/h (0 Bft) W-SW 254 0 min 0,0 UV-I 0 W/m 0,8 C 2,1 C 0,0 km/h (0 Bft)
21.02.2023 21:36 2,2 C 0,0 C 91 % 1019,1 hPa 0,0 l/m 0,0 km/h (0 Bft) W-SW 254 0 min 0,0 UV-I 0 W/m 0,9 C 2,2 C 0,0 km/h (0 Bft)
21.02.2023 21:39 2,0 C -0,6 C 91 % 1019,1 hPa 0,0 l/m 0,0 km/h (0 Bft) W-SW 254 0 min 0,0 UV-I 0 W/m 0,7 C 2,0 C 0,0 km/h (0 Bft)
21.02.2023 21:42 1,7 C -0,6 C 91 % 1019,0 hPa 0,0 l/m 0,0 km/h (0 Bft) W-SW 254 0 min 0,0 UV-I 0 W/m 0,4 C 1,7 C 0,0 km/h (0 Bft)
21.02.2023 21:45 1,4 C -0,6 C 91 % 1019,1 hPa 0,0 l/m 0,0 km/h (0 Bft) W-SW 254 0 min 0,0 UV-I 0 W/m 0,1 C 1,4 C 0,0 km/h (0 Bft)
21.02.2023 21:48 1,3 C -1,1 C 91 % 1019,1 hPa 0,0 l/m 0,0 km/h (0 Bft) W-SW 254 0 min 0,0 UV-I 0 W/m -0,0 C 1,3 C 0,0 km/h (0 Bft)
21.02.2023 21:51 1,3 C -1,1 C 92 % 1019,0 hPa 0,0 l/m 0,0 km/h (0 Bft) W-SW 254 0 min 0,0 UV-I 0 W/m 0,1 C 1,3 C 0,0 km/h (0 Bft)
21.02.2023 21:54 1,3 C -1,1 C 92 % 1018,9 hPa 0,0 l/m 0,0 km/h (0 Bft) W-SW 254 0 min 0,0 UV-I 0 W/m 0,1 C 1,3 C 0,0 km/h (0 Bft)
21.02.2023 21:57 1,2 C -1,1 C 91 % 1019,0 hPa 0,0 l/m 0,0 km/h (0 Bft) W-SW 254 0 min 0,0 UV-I 0 W/m -0,1 C 1,2 C 0,0 km/h (0 Bft)
21.02.2023 22:00 1,3 C -1,1 C 92 % 1018,9 hPa 0,0 l/m 0,0 km/h (0 Bft) W-SW 254 0 min 0,0 UV-I 0 W/m 0,1 C 1,3 C 0,0 km/h (0 Bft)
21.02.2023 22:03 1,4 C -0,6 C 92 % 1018,9 hPa 0,0 l/m 0,0 km/h (0 Bft) W-SW 254 0 min 0,0 UV-I 0 W/m 0,2 C 1,4 C 0,0 km/h (0 Bft)
21.02.2023 22:06 1,3 C -0,6 C 92 % 1019,0 hPa 0,0 l/m 0,0 km/h (0 Bft) W-SW 254 0 min 0,0 UV-I 0 W/m 0,1 C 1,3 C 0,0 km/h (0 Bft)
21.02.2023 22:09 1,3 C -0,6 C 92 % 1018,9 hPa 0,0 l/m 0,0 km/h (0 Bft) W-SW 254 0 min 0,0 UV-I 0 W/m 0,1 C 1,3 C 0,0 km/h (0 Bft)
21.02.2023 22:12 1,2 C -1,1 C 92 % 1018,9 hPa 0,0 l/m 0,0 km/h (0 Bft) W-SW 254 0 min 0,0 UV-I 0 W/m 0,0 C 1,2 C 0,0 km/h (0 Bft)
21.02.2023 22:15 1,1 C -1,1 C 92 % 1019,0 hPa 0,0 l/m 0,0 km/h (0 Bft) W-SW 254 0 min 0,0 UV-I 0 W/m -0,1 C 1,1 C 0,0 km/h (0 Bft)
21.02.2023 22:18 1,1 C -1,1 C 92 % 1019,0 hPa 0,0 l/m 0,0 km/h (0 Bft) W-SW 254 0 min 0,0 UV-I 0 W/m -0,1 C 1,1 C 0,0 km/h (0 Bft)
21.02.2023 22:21 1,1 C -1,1 C 92 % 1018,9 hPa 0,0 l/m 0,0 km/h (0 Bft) W-SW 254 0 min 0,0 UV-I 0 W/m -0,1 C 1,1 C 0,0 km/h (0 Bft)
21.02.2023 22:24 0,9 C -1,1 C 92 % 1018,8 hPa 0,0 l/m 0,0 km/h (0 Bft) W-SW 254 0 min 0,0 UV-I 0 W/m -0,2 C 0,9 C 0,0 km/h (0 Bft)
21.02.2023 22:27 0,8 C -1,1 C 92 % 1018,9 hPa 0,0 l/m 0,0 km/h (0 Bft) W-SW 254 0 min 0,0 UV-I 0 W/m -0,3 C 0,8 C 0,0 km/h (0 Bft)
21.02.2023 22:30 0,8 C -1,1 C 92 % 1018,9 hPa 0,0 l/m 0,0 km/h (0 Bft) W-SW 254 0 min 0,0 UV-I 0 W/m -0,3 C 0,8 C 0,0 km/h (0 Bft)
21.02.2023 22:33 0,9 C -1,7 C 92 % 1018,8 hPa 0,0 l/m 0,0 km/h (0 Bft) W-SW 254 0 min 0,0 UV-I 0 W/m -0,2 C 0,9 C 0,0 km/h (0 Bft)
21.02.2023 22:36 0,8 C -1,7 C 92 % 1018,8 hPa 0,0 l/m 0,0 km/h (0 Bft) W-SW 254 0 min 0,0 UV-I 0 W/m -0,3 C 0,8 C 0,0 km/h (0 Bft)
21.02.2023 22:39 0,6 C -1,7 C 92 % 1018,8 hPa 0,0 l/m 0,0 km/h (0 Bft) W-SW 254 0 min 0,0 UV-I 0 W/m -0,5 C 0,6 C 0,0 km/h (0 Bft)
21.02.2023 22:42 0,4 C -1,1 C 92 % 1018,8 hPa 0,0 l/m 0,0 km/h (0 Bft) W-SW 254 0 min 0,0 UV-I 0 W/m -0,7 C 0,4 C 0,0 km/h (0 Bft)
21.02.2023 22:45 0,4 C -1,7 C 92 % 1018,8 hPa 0,0 l/m 0,0 km/h (0 Bft) W-SW 254 0 min 0,0 UV-I 0 W/m -0,7 C 0,4 C 0,0 km/h (0 Bft)
21.02.2023 22:48 0,3 C -1,7 C 92 % 1018,8 hPa 0,0 l/m 0,0 km/h (0 Bft) W-SW 254 0 min 0,0 UV-I 0 W/m -0,8 C 0,3 C 0,0 km/h (0 Bft)
21.02.2023 22:51 0,4 C -1,7 C 92 % 1018,7 hPa 0,0 l/m 0,0 km/h (0 Bft) W-SW 254 0 min 0,0 UV-I 0 W/m -0,7 C 0,4 C 0,0 km/h (0 Bft)
21.02.2023 22:54 0,3 C -1,7 C 92 % 1018,7 hPa 0,0 l/m 0,0 km/h (0 Bft) W-SW 254 0 min 0,0 UV-I 0 W/m -0,8 C 0,3 C 0,0 km/h (0 Bft)
21.02.2023 22:57 0,3 C -1,7 C 92 % 1018,7 hPa 0,0 l/m 0,0 km/h (0 Bft) W-SW 254 0 min 0,0 UV-I 0 W/m -0,8 C 0,3 C 0,0 km/h (0 Bft)
21.02.2023 23:00 0,5 C -1,7 C 92 % 1018,7 hPa 0,0 l/m 0,0 km/h (0 Bft) W-SW 254 0 min 0,0 UV-I 0 W/m -0,6 C 0,5 C 0,0 km/h (0 Bft)
21.02.2023 23:03 0,4 C -1,7 C 92 % 1018,7 hPa 0,0 l/m 0,0 km/h (0 Bft) W-SW 254 0 min 0,0 UV-I 0 W/m -0,7 C 0,4 C 0,0 km/h (0 Bft)
21.02.2023 23:07 0,5 C -1,7 C 92 % 1018,5 hPa 0,0 l/m 0,0 km/h (0 Bft) W-SW 254 0 min 0,0 UV-I 0 W/m -0,6 C 0,5 C 0,0 km/h (0 Bft)
21.02.2023 23:09 0,4 C -1,7 C 92 % 1018,6 hPa 0,0 l/m 0,0 km/h (0 Bft) W-SW 254 0 min 0,0 UV-I 0 W/m -0,7 C 0,4 C 0,0 km/h (0 Bft)
21.02.2023 23:14 0,1 C -1,7 C 92 % 1018,6 hPa 0,0 l/m 0,0 km/h (0 Bft) W-SW 254 0 min 0,0 UV-I 0 W/m -1,0 C 0,1 C 0,0 km/h (0 Bft)
21.02.2023 23:15 0,1 C -1,7 C 92 % 1018,6 hPa 0,0 l/m 0,0 km/h (0 Bft) W-SW 254 0 min 0,0 UV-I 0 W/m -1,0 C 0,1 C 0,0 km/h (0 Bft)
21.02.2023 23:16 0,1 C -1,7 C 92 % 1018,5 hPa 0,0 l/m 0,0 km/h (0 Bft) W-SW 254 0 min 0,0 UV-I 0 W/m -1,0 C 0,1 C 0,0 km/h (0 Bft)
21.02.2023 23:17 0,1 C -1,7 C 92 % 1018,5 hPa 0,0 l/m 0,0 km/h (0 Bft) N 0 0 min 0,0 UV-I 0 W/m -1,0 C 0,1 C 0,0 km/h (0 Bft)
21.02.2023 23:18 0,1 C -1,7 C 92 % 1018,5 hPa 0,0 l/m 0,0 km/h (0 Bft) N 0 0 min 0,0 UV-I 0 W/m -1,0 C 0,1 C 0,0 km/h (0 Bft)
21.02.2023 23:21 0,2 C -1,7 C 93 % 1018,6 hPa 0,0 l/m 0,0 km/h (0 Bft) W-SW 254 0 min 0,0 UV-I 0 W/m -0,8 C 0,2 C 0,0 km/h (0 Bft)
21.02.2023 23:24 0,0 C -1,7 C 92 % 1018,5 hPa 0,0 l/m 0,0 km/h (0 Bft) W-SW 254 0 min 0,0 UV-I 0 W/m -1,1 C 0,0 C 0,0 km/h (0 Bft)
21.02.2023 23:27 -0,1 C -1,7 C 92 % 1018,4 hPa 0,0 l/m 0,0 km/h (0 Bft) W-SW 254 0 min 0,0 UV-I 0 W/m -1,2 C -0,1 C 0,0 km/h (0 Bft)
21.02.2023 23:30 0,0 C -1,7 C 92 % 1018,4 hPa 0,0 l/m 0,0 km/h (0 Bft) W-SW 254 0 min 0,0 UV-I 0 W/m -1,1 C 0,0 C 0,0 km/h (0 Bft)
21.02.2023 23:33 0,0 C -1,7 C 93 % 1018,4 hPa 0,0 l/m 0,0 km/h (0 Bft) W-SW 254 0 min 0,0 UV-I 0 W/m -1,0 C 0,0 C 0,0 km/h (0 Bft)
21.02.2023 23:36 0,1 C -1,7 C 93 % 1018,4 hPa 0,0 l/m 0,0 km/h (0 Bft) W-SW 254 0 min 0,0 UV-I 0 W/m -0,9 C 0,1 C 0,0 km/h (0 Bft)
21.02.2023 23:39 0,1 C -1,1 C 93 % 1018,3 hPa 0,0 l/m 0,0 km/h (0 Bft) W-SW 254 0 min 0,0 UV-I 0 W/m -0,9 C 0,1 C 0,0 km/h (0 Bft)
21.02.2023 23:42 0,0 C -1,7 C 92 % 1018,2 hPa 0,0 l/m 0,0 km/h (0 Bft) W-SW 254 0 min 0,0 UV-I 0 W/m -1,1 C 0,0 C 0,0 km/h (0 Bft)
21.02.2023 23:45 -0,2 C -1,7 C 92 % 1018,3 hPa 0,0 l/m 0,0 km/h (0 Bft) W-SW 254 0 min 0,0 UV-I 0 W/m -1,3 C -0,2 C 0,0 km/h (0 Bft)
21.02.2023 23:48 -0,4 C -1,7 C 92 % 1018,2 hPa 0,0 l/m 0,0 km/h (0 Bft) W-SW 254 0 min 0,0 UV-I 0 W/m -1,5 C -0,4 C 0,0 km/h (0 Bft)
21.02.2023 23:51 -0,6 C -2,2 C 92 % 1018,2 hPa 0,0 l/m 0,0 km/h (0 Bft) W-SW 254 0 min 0,0 UV-I 0 W/m -1,7 C -0,6 C 0,0 km/h (0 Bft)
21.02.2023 23:54 -0,7 C -2,2 C 92 % 1018,1 hPa 0,0 l/m 0,0 km/h (0 Bft) W-SW 254 0 min 0,0 UV-I 0 W/m -1,8 C -0,7 C 0,0 km/h (0 Bft)
21.02.2023 23:57 -0,8 C -2,2 C 92 % 1018,0 hPa 0,0 l/m 0,0 km/h (0 Bft) W-SW 254 0 min 0,0 UV-I 0 W/m -1,9 C -0,8 C 0,0 km/h (0 Bft)
21.02.2023 23:58 -0,8 C -2,2 C 92 % 1018,1 hPa 0,0 l/m 0,0 km/h (0 Bft) N 0 0 min 0,0 UV-I 0 W/m -1,9 C -0,8 C 0,0 km/h (0 Bft)
21.02.2023 23:59 -0,9 C -2,2 C 92 % 1018,1 hPa 0,0 l/m 0,0 km/h (0 Bft) N 0 0 min 0,0 UV-I 0 W/m -2,0 C -0,9 C 0,0 km/h (0 Bft)
_ Min-Zeit 23:59 23:51 14:06 23:57 - 03:55 - - - - - 23:59 23:59 04:21
Minimum _ -0,9 C -2,2 C 66 % 1018,0 hPa - 0,0 km/h (0 Bft) - - - - - -2,0 C -0,9 C 0,0 km/h (0 Bft)
_ Max-Zeit 16:36 16:33 08:58 00:00 00:00 12:33 - - 10:39 12:30 12:21 16:12 16:36 12:33
Maximum _ 13,8 C 23,3 C 95 % 1023,8 hPa 0,0 l/m 12,4 km/h
S (3 Bft)
- - 4 min 2,3 UV-I 513 W/m 8,2 C 13,8 C 17,7 km/h
S (3 Bft)
Durchschnitt _ 5,2 C 6,1 C 86 % 1021,0 hPa #0,0 l/m 2,7 km/h (1 Bft) SW - #5:54 h 1,5 UV-I 272 W/m 2,9 C 5,0 C 4,6 km/h (1 Bft)